[[{"header":{"parameterUnit":"m.s-1","parameterCategory":1,"la1":30.6,"la2":28.766,"lo1":-90.7593,"lo2":-88.6598,"dy":0.0162,"dx":0.0183,"nx":116,"ny":114,"refTime":"2024-04-03T00:00:00:Z","depth":0,"parameterNumber":2,"parameterNumberName":"U-component_of_WINDS"},"data":[0.0,0.0,0.0,0.0,0.0,0.0,0.0,0.0,0.0,0.0,0.0,0.0,0.0,0.0,0.0,0.0,0.0,0.0,0.0,0.0,0.0,0.0,0.0,0.0,0.0,0.0,0.0,0.0,0.0,0.0,0.0,0.0,0.0,0.0,0.0,0.0,0.0,0.0,0.0,0.0,0.0,0.0,0.0,0.0,0.0,0.0,0.0,0.0,0.0,0.0,0.0,0.0,0.0,0.0,0.0,0.0,0.0,0.0,0.0,0.0,0.0,0.0,0.0,0.0,0.0,0.0,0.0,0.0,0.0,0.0,0.0,0.0,0.0,0.0,0.0,0.0,0.0,0.0,0.0,0.0,0.0,0.0,0.0,0.0,0.0,0.0,0.0,0.0,0.0,0.0,0.0,0.0,0.0,0.0,0.0,0.0,0.0,0.0,0.0,0.0,0.0,0.0,0.0,0.0,0.0,0.0,0.0,0.0,0.0,0.0,0.0,0.0,0.0,0.0,0.0,0.0,0.0,0.0,0.0,0.0,0.0,0.0,0.0,0.0,0.0,0.0,0.0,0.0,0.0,0.0,0.0,0.0,0.0,0.0,0.0,0.0,0.0,0.0,0.0,0.0,0.0,0.0,0.0,0.0,0.0,0.0,0.0,0.0,0.0,0.0,0.0,0.0,0.0,0.0,0.0,0.0,0.0,0.0,0.0,0.0,0.0,0.0,0.0,0.0,0.0,0.0,0.0,0.0,0.0,0.0,0.0,0.0,0.0,0.0,0.0,0.0,0.0,0.0,0.0,0.0,0.0,0.0,0.0,0.0,0.0,0.0,0.0,0.0,0.0,0.0,0.0,0.0,0.0,0.0,0.0,0.0,0.0,0.0,0.0,0.0,0.0,0.0,0.0,0.0,0.0,0.0,0.0,0.0,0.0,0.0,0.0,0.0,0.0,0.0,0.0,0.0,0.0,0.0,0.0,0.0,0.0,0.0,0.0,0.0,0.0,0.0,0.0,0.0,0.0,0.0,0.0,0.0,0.0,0.0,0.0,0.0,0.0,0.0,0.0,0.0,0.0,0.0,0.0,0.0,0.0,0.0,0.0,0.0,0.0,0.0,0.0,0.0,0.0,0.0,0.0,0.0,0.0,0.0,0.0,0.0,0.0,0.0,0.0,0.0,0.0,0.0,0.0,0.0,0.0,0.0,0.0,0.0,0.0,0.0,0.0,0.0,0.0,0.0,0.0,0.0,0.0,0.0,0.0,0.0,0.0,0.0,0.0,0.0,0.0,0.0,0.0,0.0,0.0,0.0,0.0,0.0,0.0,0.0,0.0,0.0,0.0,0.0,0.0,0.0,0.0,0.0,0.0,0.0,0.0,0.0,0.0,0.0,0.0,0.0,0.0,0.0,0.0,0.0,0.0,0.0,0.0,0.0,0.0,0.0,0.0,0.0,0.0,0.0,0.0,0.0,0.0,0.0,0.0,0.0,0.0,0.0,0.0,0.0,0.0,0.0,0.0,0.0,0.0,0.0,0.0,0.0,0.0,0.0,0.0,0.0,0.0,0.0,0.0,0.0,0.0,0.0,0.0,0.0,0.0,0.0,0.0,0.0,0.0,0.0,0.0,0.0,0.0,0.0,0.0,0.0,0.0,0.0,0.0,0.0,0.0,0.0,0.0,0.0,0.0,0.0,0.0,0.0,0.0,0.0,0.0,0.0,0.0,0.0,0.0,0.0,0.0,0.0,0.0,0.0,0.0,0.0,0.0,0.0,0.0,0.0,0.0,0.0,0.0,0.0,0.0,0.0,0.0,0.0,0.0,0.0,0.0,0.0,0.0,0.0,0.0,0.0,0.0,0.0,0.0,0.0,0.0,0.0,0.0,0.0,0.0,0.0,0.0,0.0,0.0,0.0,0.0,0.0,0.0,0.0,0.0,0.0,0.0,0.0,0.0,0.0,0.0,0.0,0.0,0.0,0.0,0.0,0.0,0.0,0.0,0.0,0.0,0.0,0.0,0.0,0.0,0.0,0.0,0.0,0.0,0.0,0.0,0.0,0.0,0.0,0.0,0.0,0.0,0.0,0.0,0.0,0.0,0.0,0.0,0.0,0.0,0.0,0.0,0.0,0.0,0.0,0.0,0.0,0.0,0.0,0.0,0.0,0.0,0.0,0.0,0.0,0.0,0.0,0.0,0.0,0.0,0.0,0.0,0.0,0.0,0.0,0.0,0.0,0.0,0.0,0.0,0.0,0.0,0.0,0.0,0.0,0.0,0.0,0.0,0.0,0.0,0.0,0.0,0.0,0.0,0.0,0.0,0.0,0.0,0.0,0.0,0.0,0.0,0.0,0.0,0.0,0.0,0.0,0.0,0.0,0.0,0.0,0.0,0.0,0.0,0.0,0.0,0.0,0.0,0.0,0.0,0.0,0.0,0.0,0.0,0.0,0.0,0.0,0.0,0.0,0.0,0.0,0.0,0.0,0.0,0.0,0.0,0.0,0.0,0.0,0.0,0.0,0.0,0.0,0.0,0.0,0.0,0.0,0.0,0.0,0.0,0.0,0.0,0.0,0.0,0.0,0.0,0.0,0.0,0.0,0.0,0.0,0.0,0.0,0.0,0.0,0.0,0.0,0.0,0.0,0.0,0.0,0.0,0.0,0.0,0.0,0.0,0.0,0.0,0.0,0.0,0.0,0.0,0.0,0.0,0.0,0.0,0.0,0.0,0.0,0.0,0.0,0.0,0.0,0.0,0.0,0.0,0.0,0.0,0.0,0.0,0.0,0.0,0.0,0.0,0.0,0.0,0.0,0.0,0.0,0.0,0.0,0.0,0.0,0.0,0.0,0.0,0.0,0.0,0.0,0.0,0.0,0.0,0.0,0.0,0.0,0.0,0.0,0.0,0.0,0.0,0.0,0.0,0.0,0.0,0.0,0.0,0.0,0.0,0.0,0.0,0.0,0.0,0.0,0.0,0.0,0.0,0.0,0.0,0.0,0.0,0.0,0.0,0.0,0.0,0.0,0.0,0.0,0.0,0.0,0.0,0.0,0.0,0.0,0.0,0.0,0.0,0.0,0.0,0.0,0.0,0.0,0.0,0.0,0.0,0.0,0.0,0.0,0.0,0.0,0.0,0.0,0.0,0.0,0.0,0.0,0.0,0.0,0.0,0.0,0.0,0.0,0.0,0.0,0.0,0.0,0.0,0.0,0.0,0.0,0.0,0.0,0.0,0.0,0.0,0.0,0.0,0.0,0.0,0.0,0.0,0.0,0.0,0.0,0.0,0.0,0.0,0.0,0.0,0.0,0.0,0.0,0.0,0.0,0.0,0.0,0.0,0.0,0.0,0.0,0.0,0.0,0.0,0.0,0.0,0.0,0.0,0.0,0.0,0.0,0.0,0.0,0.0,0.0,0.0,0.0,0.0,0.0,0.0,0.0,0.0,0.0,0.0,0.0,0.0,0.0,0.0,0.0,0.0,0.0,0.0,0.0,0.0,0.0,0.0,0.0,0.0,0.0,0.0,0.0,0.0,0.0,0.0,0.0,0.0,0.0,0.0,0.0,0.0,0.0,0.0,0.0,0.0,0.0,0.0,0.0,0.0,0.0,0.0,0.0,0.0,0.0,0.0,0.0,0.0,0.0,0.0,0.0,0.0,0.0,0.0,0.0,0.0,0.0,0.0,0.0,0.0,0.0,0.0,0.0,0.0,0.0,0.0,0.0,0.0,0.0,0.0,0.0,0.0,0.0,0.0,0.0,0.0,0.0,0.0,0.0,0.0,0.0,0.0,0.0,0.0,0.0,0.0,0.0,0.0,0.0,0.0,0.0,0.0,0.0,0.0,0.0,0.0,0.0,0.0,0.0,0.0,0.0,0.0,0.0,0.0,0.0,0.0,0.0,0.0,0.0,0.0,0.0,0.0,0.0,0.0,0.0,0.0,0.0,0.0,0.0,0.0,0.0,0.0,0.0,0.0,0.0,0.0,0.0,0.0,0.0,0.0,0.0,0.0,0.0,0.0,0.0,0.0,0.0,0.0,0.0,0.0,0.0,0.0,0.0,0.0,0.0,0.0,0.0,0.0,0.0,0.0,0.0,0.0,0.0,0.0,0.0,0.0,0.0,0.0,0.0,0.0,0.0,0.0,0.0,0.0,0.0,0.0,0.0,0.0,0.0,0.0,0.0,0.0,0.0,0.0,0.0,0.0,0.0,0.0,0.0,0.0,0.0,0.0,0.0,0.0,0.0,0.0,0.0,0.0,0.0,0.0,0.0,0.0,0.0,0.0,0.0,0.0,0.0,0.0,0.0,0.0,0.0,0.0,0.0,0.0,0.0,0.0,0.0,0.0,0.0,0.0,0.0,0.0,0.0,0.0,0.0,0.0,0.0,0.0,0.0,0.0,0.0,0.0,0.0,0.0,0.0,0.0,0.0,0.0,0.0,0.0,0.0,0.0,0.0,0.0,0.0,0.0,0.0,0.0,0.0,0.0,0.0,0.0,0.0,0.0,0.0,0.0,0.0,0.0,0.0,0.0,0.0,0.0,0.0,0.0,0.0,0.0,0.0,0.0,0.0,0.0,0.0,0.0,0.0,0.0,0.0,0.0,0.0,0.0,0.0,0.0,0.0,0.0,0.0,0.0,0.0,0.0,0.0,0.0,0.0,0.0,0.0,0.0,0.0,0.0,0.0,0.0,0.0,0.0,0.0,0.0,0.0,0.0,0.0,0.0,0.0,0.0,0.0,0.0,0.0,0.0,0.0,0.0,0.0,0.0,0.0,0.0,0.0,0.0,0.0,0.0,0.0,0.0,0.0,0.0,0.0,0.0,0.0,0.0,0.0,0.0,0.0,0.0,0.0,0.0,0.0,0.0,0.0,0.0,0.0,0.0,0.0,0.0,0.0,0.0,0.0,0.0,0.0,0.0,0.0,0.0,0.0,0.0,0.0,0.0,0.0,0.0,0.0,0.0,0.0,0.0,0.0,0.0,0.0,0.0,0.0,0.0,0.0,0.0,0.0,0.0,0.0,0.0,0.0,0.0,0.0,0.0,0.0,0.0,0.0,0.0,0.0,0.0,0.0,0.0,0.0,0.0,0.0,0.0,0.0,0.0,0.0,0.0,0.0,0.0,0.0,0.0,0.0,0.0,0.0,0.0,0.0,0.0,0.0,0.0,0.0,0.0,0.0,0.0,0.0,0.0,0.0,0.0,0.0,0.0,0.0,0.0,0.0,0.0,0.0,0.0,0.0,0.0,0.0,0.0,0.0,0.0,0.0,0.0,0.0,0.0,0.0,0.0,0.0,0.0,0.0,0.0,0.0,0.0,0.0,0.0,0.0,0.0,0.0,0.0,0.0,0.0,0.0,0.0,0.0,0.0,0.0,0.0,0.0,0.0,0.0,0.0,0.0,0.0,0.0,0.0,0.0,0.0,0.0,0.0,0.0,0.0,0.0,0.0,0.0,0.0,0.0,0.0,0.0,0.0,0.0,0.0,0.0,0.0,0.0,0.0,0.0,0.0,0.0,0.0,0.0,0.0,0.0,0.0,0.0,0.0,0.0,0.0,0.0,0.0,0.0,0.0,0.0,0.0,0.0,0.0,0.0,0.0,0.0,0.0,0.0,0.0,0.0,0.0,0.0,0.0,0.0,0.0,0.0,0.0,0.0,0.0,0.0,0.0,0.0,0.0,0.0,0.0,0.0,0.0,0.0,0.0,0.0,0.0,0.0,0.0,0.0,0.0,0.0,0.0,0.0,0.0,0.0,0.0,0.0,0.0,0.0,0.0,0.0,0.0,0.0,0.0,0.0,0.0,0.0,0.0,0.0,0.0,0.0,0.0,0.0,0.0,0.0,0.0,0.0,0.0,0.0,0.0,0.0,0.0,0.0,0.0,0.0,0.0,0.0,0.0,0.0,0.0,0.0,0.0,0.0,0.0,0.0,0.0,0.0,0.0,0.0,0.0,0.0,0.0,0.0,0.0,0.0,0.0,0.0,0.0,0.0,0.0,0.0,0.0,0.0,0.0,0.0,0.0,0.0,0.0,0.0,0.0,0.0,0.0,0.0,0.0,0.0,0.0,0.0,0.0,0.0,0.0,0.0,0.0,0.0,0.0,0.0,0.0,0.0,1.9714,0.0,0.0,0.0,0.0,0.0,0.0,0.0,0.0,0.0,0.0,0.0,0.0,0.0,0.0,0.0,0.0,0.0,0.0,0.0,0.0,0.0,0.0,0.0,0.0,3.3964,3.3964,3.3964,3.3964,3.3688,3.305,0.0,0.0,0.0,0.0,0.0,3.2047,3.1889,3.1349,3.0323,3.0599,3.0309,2.9441,2.9796,2.9626,2.9275,0.0,0.0,0.0,0.0,0.0,0.0,0.0,0.0,0.0,0.0,0.0,0.0,0.0,0.0,0.0,0.0,0.0,0.0,0.0,0.0,0.0,0.0,0.0,0.0,0.0,0.0,0.0,0.0,0.0,0.0,0.0,0.0,0.0,0.0,0.0,0.0,0.0,0.0,0.0,0.0,0.0,0.0,0.0,0.0,0.0,0.0,0.0,0.0,0.0,0.0,0.0,0.0,0.0,0.0,0.0,0.0,0.0,0.0,0.0,0.0,0.0,0.0,0.0,0.0,0.0,0.0,0.0,0.0,0.0,0.0,0.0,1.8318,0.0,0.0,0.0,0.0,0.0,0.0,0.0,0.0,0.0,0.0,0.0,0.0,0.0,0.0,0.0,0.0,0.0,0.0,0.0,0.0,0.0,3.3311,3.3311,3.3398,3.3427,3.3311,3.3398,3.3151,3.2396,3.2338,3.2295,3.2179,3.2179,3.1846,3.1106,3.0946,3.0119,2.8614,2.8984,2.9063,2.8973,2.8803,2.8803,0.0,2.8973,0.0,0.0,0.0,0.0,0.0,0.0,0.0,0.0,0.0,0.0,0.0,0.0,0.0,0.0,0.0,0.0,0.0,0.0,0.0,0.0,0.0,0.0,0.0,0.0,0.0,0.0,0.0,0.0,0.0,0.0,0.0,0.0,0.0,0.0,0.0,0.0,0.0,0.0,0.0,0.0,0.0,0.0,0.0,0.0,0.0,0.0,0.0,0.0,0.0,0.0,0.0,0.0,0.0,0.0,0.0,0.0,0.0,0.0,0.0,0.0,0.0,0.0,0.0,1.3779,1.3074,1.1873,1.1873,1.1292,1.0388,1.37,1.5698,1.659,0.0,0.0,0.0,0.0,0.0,0.0,0.0,0.0,0.0,0.0,0.0,0.0,0.0,0.0,0.0,0.0,0.0,0.0,0.0,0.0,3.2643,3.2643,3.3137,3.3253,3.2687,3.3151,3.2948,3.1729,3.1656,3.1409,3.0858,3.0829,3.0434,2.961,2.9547,2.875,2.7152,2.7369,2.7895,2.859,0.0,0.0,2.8339,2.851,2.851,0.0,0.0,0.0,0.0,0.0,0.0,0.0,0.0,0.0,0.0,0.0,0.0,0.0,0.0,0.0,0.0,0.0,0.0,0.0,0.0,0.0,0.0,0.0,0.0,0.0,0.0,0.0,0.0,0.0,0.0,0.0,0.0,0.0,0.0,0.0,0.0,0.0,0.0,0.0,0.0,0.0,0.0,2.3729,2.3383,0.0,0.0,0.0,0.0,0.0,0.0,0.0,0.0,0.0,0.0,0.0,0.0,0.0,1.411,1.3922,1.3625,1.2932,1.1649,1.153,1.0891,0.9653,0.9653,0.9619,0.9626,0.9953,0.0,1.1745,1.1107,0.0,0.0,0.0,0.0,0.0,0.0,0.0,0.0,0.0,0.0,0.0,0.0,0.0,0.0,0.0,0.0,0.0,0.0,0.0,0.0,0.0,3.2893,3.3235,3.2542,3.3128,3.2941,3.1584,3.1177,3.0872,3.0582,3.0507,2.987,2.8712,2.8917,2.8356,2.7075,2.7042,2.7308,2.7908,0.0,0.0,0.0,2.7325,2.708,0.0,0.0,0.0,0.0,0.0,0.0,0.0,0.0,0.0,0.0,0.0,0.0,0.0,0.0,0.0,0.0,0.0,0.0,0.0,0.0,0.0,0.0,0.0,0.0,0.0,0.0,0.0,0.0,0.0,0.0,0.0,0.0,0.0,0.0,0.0,0.0,0.0,0.0,0.0,0.0,0.0,2.314,2.255,2.1473,2.1112,2.0298,0.0,0.0,0.0,0.0,0.0,0.0,0.0,0.0,0.0,1.2446,1.2257,1.1858,1.1068,1.0774,1.0382,0.9891,0.9871,0.9207,0.8109,0.8109,0.7841,0.7289,0.7232,0.7406,0.8016,0.9206,0.9694,0.9602,0.0,0.0,0.0,0.0,0.9891,0.9891,0.0,0.0,0.0,0.0,0.0,0.0,0.0,0.0,0.0,0.0,0.0,0.0,3.1496,3.2514,3.3037,3.2513,3.2989,3.2756,3.1569,3.071,3.0348,3.0507,3.0168,2.9378,2.8103,2.7986,2.7678,2.7172,2.6871,2.6844,0.0,0.0,0.0,0.0,0.0,0.0,0.0,0.0,0.0,0.0,0.0,0.0,0.0,0.0,0.0,0.0,0.0,0.0,0.0,0.0,0.0,0.0,0.0,0.0,0.0,0.0,0.0,0.0,0.0,0.0,0.0,0.0,0.0,0.0,0.0,0.0,0.0,0.0,0.0,0.0,0.0,0.0,0.0,0.0,0.0,0.0,0.0,2.1937,2.1599,1.98,1.9694,1.9026,0.0,0.0,0.0,0.0,0.0,0.0,1.2538,1.2182,1.1682,1.0867,1.0676,1.0083,0.9099,0.886,0.8645,0.8252,0.821,0.7606,0.6533,0.6533,0.6142,0.536,0.536,0.536,0.5466,0.74,0.8113,0.8014,0.7915,0.7915,0.8014,0.8113,0.8212,0.8216,0.0,0.0,0.0,0.0,0.0,0.0,0.0,0.0,0.0,0.0,0.0,3.0843,3.1453,3.2121,3.2513,3.2513,3.2513,3.2237,3.1569,3.023,2.9693,3.0297,2.9645,2.8786,2.7749,2.6239,2.6049,2.7172,0.0,0.0,0.0,0.0,0.0,0.0,0.0,0.0,0.0,0.0,0.0,0.0,0.0,0.0,0.0,0.0,0.0,0.0,0.0,0.0,0.0,0.0,0.0,0.0,0.0,0.0,0.0,0.0,0.0,0.0,0.0,0.0,0.0,0.0,0.0,0.0,0.0,0.0,0.0,0.0,0.0,0.0,0.0,0.0,0.0,0.0,0.0,0.0,0.0,0.0,0.0,1.8601,1.8645,0.0,0.0,0.0,0.0,1.1941,1.1535,1.0956,0.9882,0.9288,0.8992,0.8905,0.8901,0.8905,0.8803,0.8747,0.809,0.684,0.6712,0.5997,0.4776,0.4776,0.4681,0.4681,0.4681,0.4681,0.4695,0.5169,0.5541,0.5734,0.5438,0.5539,0.5834,0.6334,0.6534,0.6637,0.0,0.0,0.0,0.0,0.0,0.0,0.0,3.0727,3.0568,3.0568,3.093,3.1264,3.1496,3.2805,3.3416,3.2542,3.2864,3.2647,3.1459,3.0156,2.9491,2.9617,2.9223,2.8731,2.8206,2.6786,2.6238,2.6716,0.0,0.0,0.0,0.0,0.0,0.0,0.0,0.0,0.0,0.0,0.0,0.0,0.0,0.0,0.0,0.0,0.0,0.0,0.0,0.0,0.0,0.0,0.0,0.0,0.0,0.0,0.0,0.0,0.0,0.0,0.0,0.0,0.0,0.0,0.0,0.0,0.0,0.0,0.0,0.0,0.0,0.0,0.0,0.0,0.0,0.0,0.0,0.0,0.0,0.0,0.0,1.7265,1.6678,0.0,1.4254,1.3663,1.2802,1.1458,1.0624,0.9816,0.9034,0.8645,0.8207,0.764,0.7442,0.6867,0.5909,0.5674,0.4984,0.3743,0.3716,0.3231,0.2283,0.2283,0.2283,0.2283,0.2283,0.2283,0.2286,0.2414,0.3495,0.4955,0.4861,0.4861,0.4955,0.5149,0.5246,0.5246,0.0,0.0,0.0,0.0,3.0568,3.0568,3.0568,3.0568,3.0568,3.0568,3.1134,3.1613,3.183,3.3206,3.3805,3.3167,3.3217,3.2729,3.1387,2.9942,2.9059,2.8795,2.8412,2.8316,2.8587,2.6804,2.5929,0.0,0.0,0.0,0.0,0.0,0.0,0.0,0.0,0.0,0.0,0.0,0.0,0.0,0.0,0.0,2.0462,0.0,0.0,0.0,0.0,0.0,0.0,0.0,0.0,0.0,0.0,0.0,0.0,0.0,0.0,0.0,0.0,0.0,0.0,0.0,0.0,0.0,0.0,0.0,0.0,0.0,0.0,0.0,0.0,0.0,0.0,0.0,0.0,0.0,0.0,0.0,1.7743,1.5704,1.5113,1.4303,1.3009,1.2203,1.1303,1.0101,0.9084,0.8292,0.7525,0.7054,0.6441,0.5596,0.5216,0.446,0.3235,0.2929,0.2448,0.1695,0.1684,0.1398,0.0932,0.0932,0.0932,0.0932,0.0932,0.0932,0.0932,0.0932,0.1864,0.3361,0.3599,0.3905,0.4096,0.4096,0.4096,0.4096,0.0,0.0,0.0,3.0568,3.0568,3.0568,3.0568,3.0568,3.0568,3.0568,3.1134,3.1772,3.244,3.3114,3.3709,3.4226,3.3472,3.2431,3.1321,2.9662,2.8453,2.7996,2.7175,2.7358,2.8587,0.0,0.0,0.0,0.0,0.0,0.0,0.0,0.0,0.0,0.0,0.0,0.0,0.0,0.0,0.0,0.0,0.0,1.9778,0.0,0.0,0.0,0.0,0.0,0.0,0.0,0.0,0.0,0.0,0.0,0.0,0.0,0.0,0.0,0.0,0.0,0.0,0.0,0.0,0.0,0.0,0.0,0.0,0.0,0.0,0.0,0.0,0.0,0.0,0.0,0.0,0.0,1.7059,1.7355,1.6641,1.3861,1.4064,1.3761,1.181,1.1017,0.9737,0.7829,0.7025,0.607,0.5034,0.4277,0.3515,0.2846,0.2373,0.171,0.095,0.0838,0.0738,0.0738,0.0632,0.0626,0.0626,0.0626,0.0626,0.0626,0.0626,0.0626,0.0626,0.0626,0.0626,0.0719,0.1684,0.2471,0.3044,0.3044,0.3137,0.3136,0.0,0.0,3.0568,3.0568,3.0568,3.0568,3.0568,3.0568,3.0568,3.0568,3.1134,3.1944,3.3087,3.2879,3.287,3.3497,3.2377,3.1043,2.9729,2.8712,2.7869,2.7145,2.7393,2.7419,2.727,0.0,0.0,0.0,0.0,0.0,0.0,0.0,0.0,0.0,0.0,0.0,0.0,0.0,0.0,0.0,0.0,0.0,1.9664,0.0,0.0,0.0,0.0,0.0,0.0,0.0,0.0,0.0,0.0,0.0,0.0,0.0,0.0,0.0,0.0,0.0,0.0,0.0,0.0,0.0,0.0,0.0,0.0,0.0,0.0,0.0,0.0,0.0,0.0,0.0,0.0,1.6139,1.6206,1.5714,1.4832,1.3805,1.3153,1.227,1.0847,1.0143,0.9003,0.705,0.6335,0.5571,0.4661,0.4007,0.3425,0.2643,0.2094,0.1366,0.0273,0.0272,-0.0181,-0.1085,-0.1079,-0.1434,-0.1883,-0.1883,-0.1883,-0.1883,-0.1883,-0.1883,-0.1883,-0.1883,-0.1613,-0.0897,0.1088,0.2003,0.2186,0.2734,0.2888,0.2852,0.0,3.0568,3.0568,3.0568,3.0568,3.0568,3.0568,3.0568,3.0687,3.0911,3.1529,3.2137,3.2883,3.3049,3.3148,3.3206,3.2061,3.0824,2.948,2.8004,2.7145,2.7214,2.7074,2.693,0.0,0.0,0.0,0.0,0.0,0.0,0.0,0.0,0.0,0.0,0.0,0.0,0.0,0.0,0.0,0.0,0.0,0.0,1.9187,1.8816,1.837,1.8071,1.7575,1.7137,1.6766,1.6941,0.0,0.0,0.0,0.0,0.0,0.0,0.0,0.0,0.0,0.0,0.0,0.0,0.0,0.0,0.0,0.0,0.0,0.0,0.0,0.0,0.0,0.0,0.0,0.0,1.471,1.4663,1.4376,1.4071,1.3707,1.3126,1.2032,1.0987,0.9971,0.8862,0.7636,0.6204,0.556,0.4892,0.4108,0.3651,0.2905,0.1973,0.1164,0.0269,-0.0717,-0.1075,-0.1524,-0.2244,-0.2244,-0.2513,-0.2875,-0.2875,-0.2875,0.0,-0.2875,-0.2875,-0.2875,-0.2875,-0.259,0.0,0.0,0.0,0.0,0.0,0.2166,0.2142,0.0,3.0568,3.0568,3.0568,3.0568,3.0568,3.0568,3.0568,3.0807,3.1422,3.1988,3.2299,3.245,3.3398,3.3826,3.3272,3.2158,3.0966,2.972,2.749,2.6637,2.7523,2.6568,0.0,0.0,0.0,0.0,0.0,0.0,0.0,0.0,0.0,0.0,0.0,0.0,0.0,0.0,0.0,0.0,0.0,0.0,0.0,1.8622,1.8973,1.8404,1.7342,1.7738,1.7482,1.6899,1.6853,0.0,0.0,0.0,0.0,0.0,0.0,0.0,0.0,0.0,0.0,0.0,0.0,0.0,0.0,0.0,0.0,0.0,0.0,0.0,0.0,0.0,0.0,0.0,0.0,1.2939,1.3231,1.2165,1.2633,1.2798,1.2161,1.0963,0.9953,0.9139,0.7406,0.6099,0.5287,0.4656,0.4121,0.3587,0.0,0.0,0.0,0.0,-0.0897,-0.1705,-0.2424,-0.2784,-0.2784,-0.2873,-0.2875,-0.2875,-0.2784,-0.2784,-0.2784,-0.2694,-0.2694,-0.2784,-0.2776,-0.2739,-0.2686,-0.1992,-0.0865,0.0345,0.1017,0.1261,0.1259,0.0,3.0568,3.0568,3.0568,3.0568,3.0568,3.0568,3.0568,3.0807,3.1422,3.1599,3.2213,3.3748,3.3096,3.2982,3.385,3.1653,2.9451,2.7551,0.0,2.7732,0.0,0.0,0.0,0.0,0.0,0.0,0.0,0.0,0.0,0.0,0.0,0.0,0.0,0.0,0.0,0.0,0.0,0.0,0.0,0.0,0.0,1.8596,1.8674,1.876,1.8811,1.8879,1.8581,1.8159,1.7668,1.7546,1.7559,1.7017,0.0,0.0,0.0,0.0,0.0,0.0,0.0,0.0,0.0,0.0,0.0,0.0,0.0,0.0,0.0,0.0,0.0,0.0,0.0,0.0,1.2042,1.1893,1.1789,1.1766,1.1433,1.1308,1.1736,1.0603,0.9323,0.822,0.6897,0.5741,0.4567,0.4389,0.4121,0.3587,0.3136,0.233,0.1166,0.0538,-0.0179,-0.0897,-0.1615,-0.1974,-0.2064,0.0,0.0,-0.2873,-0.2244,-0.1974,-0.1974,-0.1346,-0.1436,-0.1972,-0.1938,-0.2246,-0.2625,-0.1946,-0.0761,0.0422,0.0505,0.0915,0.1311,0.0,3.0568,3.0568,3.0568,3.0568,3.0568,3.0568,3.0568,3.0807,3.1422,3.1766,3.2272,3.314,3.3204,3.3107,3.308,3.1039,2.9213,0.0,0.0,0.0,0.0,0.0,0.0,0.0,0.0,0.0,0.0,0.0,0.0,0.0,0.0,0.0,0.0,0.0,0.0,0.0,0.0,0.0,0.0,0.0,0.0,1.8804,1.8396,1.8434,1.8605,1.8605,1.8725,1.8795,1.8354,1.8547,1.8912,1.8377,1.8518,1.8501,0.0,0.0,0.0,0.0,0.0,0.0,0.0,0.0,0.0,0.0,0.0,0.0,0.0,0.0,1.2333,1.2511,0.0,1.1701,1.1701,1.1424,1.13,1.1149,1.0794,1.0727,1.0997,0.9407,0.8045,0.7444,0.5976,0.4956,0.4385,0.4261,0.3988,0.3314,0.2987,0.2281,0.1255,0.0621,0.0177,-0.0179,-0.0897,-0.1256,-0.1256,-0.1615,-0.1794,-0.1794,-0.1436,-0.1256,-0.1256,-0.0897,-0.0891,-0.1322,-0.1207,-0.1358,-0.1679,-0.1245,-0.0743,-0.0082,0.0571,0.105,0.128,0.0,3.0687,3.0628,3.0747,3.0687,3.0628,3.0747,3.0747,3.097,3.1595,3.2104,3.2455,3.2574,3.3377,3.3369,3.1919,3.0767,0.0,0.0,0.0,0.0,0.0,0.0,0.0,0.0,0.0,0.0,0.0,0.0,0.0,0.0,0.0,0.0,0.0,0.0,0.0,0.0,0.0,0.0,0.0,0.0,0.0,1.9063,1.8285,1.7983,1.8031,1.7954,1.8374,1.8905,1.8588,1.9187,2.0026,1.9727,1.9932,1.9957,1.8297,1.7652,0.0,0.0,0.0,0.0,0.0,0.0,0.0,0.0,0.0,1.2434,1.2442,1.2303,1.2032,1.1752,1.1698,1.1623,1.13,1.1262,1.116,1.0666,1.0489,1.0308,0.9883,0.8139,0.6888,0.6698,0.5167,0.4183,0.4269,0.4195,0.3747,0.2935,0.2749,0.2313,0.1425,0.0786,0.0524,0.0628,-0.0179,-0.0536,-0.0448,-0.0628,-0.0718,-0.0717,-0.0536,-0.0535,-0.0535,-0.0535,-0.0529,-0.0607,-0.0678,-0.0672,-0.067,-0.0492,-0.0487,-0.0405,0.0713,0.1178,0.1335,0.0,3.097,3.0747,3.1321,3.097,3.0807,3.1321,3.1422,3.1595,3.2216,3.2342,3.2788,3.377,3.3547,3.2697,3.1255,3.1502,0.0,0.0,0.0,0.0,0.0,0.0,0.0,0.0,0.0,0.0,0.0,0.0,0.0,0.0,0.0,0.0,0.0,0.0,0.0,0.0,0.0,0.0,0.0,0.0,0.0,1.9458,1.8369,1.7993,1.7997,1.7655,1.78,1.816,1.8108,1.8639,1.929,1.9247,1.9727,1.9957,1.8297,0.0,1.6294,1.4457,1.4126,1.4523,1.5483,1.4974,1.4177,0.0,0.0,1.272,1.246,1.2371,1.2237,1.1785,1.1698,1.1623,1.13,1.1262,1.1101,1.0473,1.002,0.9285,0.8006,0.7326,0.6678,0.5966,0.4797,0.4089,0.4181,0.4102,0.3663,0.287,0.2726,0.2296,0.1394,0.1282,0.1207,0.1255,0.0528,0.0176,0.0269,-0.0359,-0.0718,-0.0717,-0.0088,0.0174,0.0174,0.0174,0.0261,0.0173,-0.0424,-0.0672,-0.067,-0.0,0.0244,0.0162,0.0317,0.0786,0.1335,0.0,0.0,3.1807,3.2391,3.1736,3.1204,3.148,3.1766,3.1992,3.1879,3.2461,3.3055,3.3527,3.2926,3.2255,3.163,0.0,0.0,0.0,0.0,0.0,0.0,0.0,0.0,0.0,0.0,0.0,0.0,0.0,0.0,0.0,0.0,0.0,0.0,0.0,0.0,0.0,0.0,0.0,0.0,0.0,0.0,1.9981,1.8945,1.8953,1.9285,1.8211,1.8031,0.0,0.0,1.8885,1.9478,1.9167,1.9376,1.9608,1.8539,1.8041,0.0,1.6586,1.624,0.0,0.0,1.5561,1.5176,1.3726,1.3141,1.2742,1.2688,1.2511,1.2307,1.1968,1.179,1.1623,0.0,1.1262,1.101,1.0105,0.9923,0.9244,0.7457,0.7282,0.6726,0.535,0.4442,0.3993,0.4087,0.4059,0.363,0.2811,0.2672,0.225,0.1365,0.1337,0.1592,0.2071,0.1796,0.1624,0.164,0.138,0.095,0.0432,0.0771,0.0945,0.0954,0.0931,0.1179,0.1615,0.1328,0.1574,0.2091,0.2291,0.2372,0.2311,0.1293,0.1034,0.1335,0.0,0.0,0.0,3.3093,3.2501,3.1962,3.1962,3.2367,3.2477,3.2033,3.2718,3.3182,3.3182,3.2463,3.2012,3.2012,0.0,0.0,0.0,0.0,0.0,0.0,0.0,0.0,0.0,0.0,0.0,0.0,0.0,0.0,0.0,0.0,0.0,0.0,0.0,0.0,0.0,0.0,0.0,0.0,0.0,0.0,2.0791,1.9875,2.0001,2.0337,1.8779,1.8551,0.0,0.0,1.9144,1.9556,1.9024,1.9199,1.9417,1.8783,1.8337,1.8036,1.7686,0.0,0.0,1.6042,1.6038,1.5694,1.3604,1.3101,1.2918,1.2628,1.2431,1.2237,1.2,1.1811,1.1623,1.13,1.1262,1.101,1.0015,0.9947,0.9303,0.7469,0.729,0.6763,0.5328,0.4558,0.4168,0.424,0.422,0.3886,0.308,0.3094,0.2846,0.1998,0.1955,0.2285,0.2935,0.2917,0.2917,0.2935,0.2935,0.2603,0.2018,0.2006,0.2024,0.2147,0.208,0.2417,0.3068,0.3084,0.3418,0.4053,0.3878,0.3952,0.3814,0.2451,0.2002,0.1959,0.0,0.0,0.0,0.0,3.3182,3.3145,3.3145,3.313,3.3182,3.3145,3.3198,3.3182,3.3182,3.2463,3.2012,0.0,0.0,0.0,0.0,2.9891,0.0,0.0,0.0,0.0,0.0,0.0,0.0,0.0,0.0,0.0,0.0,0.0,0.0,0.0,0.0,0.0,0.0,0.0,0.0,0.0,0.0,0.0,2.1797,2.1272,2.0956,2.0701,1.9102,0.0,0.0,0.0,1.8958,1.9185,1.8937,1.9199,0.0,1.8783,1.7738,0.0,0.0,0.0,1.5747,1.6807,1.6212,1.5179,1.4231,1.3851,1.3405,1.234,1.2064,1.1989,1.1752,1.1704,1.1623,1.13,1.1262,1.1096,1.0437,0.9991,0.9237,0.7946,0.7357,0.6861,0.0,0.5412,0.4942,0.4781,0.4688,0.4439,0.3889,0.436,0.4351,0.3728,0.3724,0.3762,0.3771,0.3773,0.3773,0.3771,0.3771,0.3773,0.3686,0.3687,0.3779,0.3944,0.394,0.4034,0.4273,0.4181,0.4146,0.414,0.4055,0.3969,0.3974,0.3808,0.375,0.3665,0.0,0.0,0.0,0.0,0.0,3.3815,3.3815,3.3815,3.3646,3.3251,3.3527,0.0,0.0,0.0,0.0,0.0,0.0,0.0,0.0,3.1024,0.0,0.0,0.0,0.0,0.0,0.0,0.0,0.0,0.0,0.0,0.0,0.0,0.0,0.0,0.0,0.0,0.0,0.0,0.0,0.0,0.0,0.0,2.2803,2.2341,2.2115,2.1992,0.0,0.0,0.0,0.0,1.9154,1.9263,1.903,0.0,0.0,1.858,1.8044,1.7538,0.0,0.0,1.744,1.6913,1.6715,1.6394,1.5248,1.4674,1.4276,1.3923,1.3159,1.2489,1.2403,1.226,1.2123,1.2037,1.2026,1.1708,1.0881,1.0632,1.0226,0.9337,0.9304,0.0,0.0,0.0,0.0,0.5511,0.5549,0.5272,0.4673,0.4701,0.4545,0.4038,0.3847,0.4019,0.4564,0.4607,0.4607,0.4564,0.4084,0.3877,0.3934,0.3903,0.394,0.4022,0.3963,0.4298,0.4768,0.4742,0.5146,0.5697,0.5577,0.5551,0.5654,0.5492,0.5433,0.5312,0.0,0.0,0.0,0.0,0.0,0.0,0.0,0.0,0.0,0.0,0.0,0.0,0.0,0.0,0.0,0.0,0.0,0.0,0.0,0.0,0.0,0.0,0.0,0.0,0.0,0.0,0.0,0.0,0.0,0.0,0.0,0.0,0.0,0.0,0.0,0.0,0.0,0.0,0.0,0.0,0.0,0.0,2.3658,2.3424,2.314,0.0,0.0,0.0,0.0,0.0,0.0,0.0,1.9913,1.9506,1.9118,1.8939,1.8497,1.7949,0.0,1.8293,1.8158,1.7343,1.7373,1.7225,1.6055,1.5483,1.5106,1.4589,1.3754,1.3033,1.2685,1.2647,1.2711,1.2448,1.2619,1.2584,1.1905,1.1586,1.1156,1.0762,1.0573,1.061,0.0,0.0,0.0,0.7354,0.6986,0.6676,0.6468,0.6189,0.5937,0.5844,0.5684,0.5764,0.6314,0.6314,0.616,0.5854,0.569,0.5425,0.5272,0.5583,0.5574,0.5366,0.5606,0.5839,0.605,0.6354,0.6849,0.7419,0.7254,0.7092,0.6929,0.7083,0.6949,0.6553,0.0,0.0,0.0,0.0,0.0,0.0,0.0,0.0,0.0,0.0,0.0,0.0,0.0,0.0,0.0,0.0,0.0,0.0,0.0,0.0,0.0,0.0,0.0,0.0,0.0,0.0,0.0,0.0,0.0,0.0,0.0,0.0,0.0,0.0,0.0,0.0,0.0,0.0,0.0,0.0,0.0,0.0,2.4446,2.4658,0.0,0.0,0.0,0.0,0.0,0.0,0.0,0.0,0.0,0.0,1.9478,1.9858,1.9017,1.8057,1.8337,1.8282,1.8031,1.8031,1.804,1.77,1.669,1.6445,1.6026,1.4461,1.4126,1.3711,0.0,0.0,1.3222,1.2619,1.3045,1.3476,1.3457,1.2773,1.2182,0.0,0.0,0.0,0.0,0.0,0.0,1.0115,0.0,0.8593,0.912,0.8558,0.8461,0.8998,0.8851,0.8699,0.8699,0.8703,0.8322,0.7557,0.8322,0.8327,0.7573,0.8336,0.8353,0.7815,0.8602,0.8546,0.7979,0.8792,0.9117,0.9099,0.8899,0.8431,0.7861,0.8462,0.8246,0.7456,0.0,0.0,0.0,0.0,0.0,0.0,0.0,0.0,0.0,0.0,0.0,0.0,0.0,0.0,0.0,0.0,0.0,0.0,0.0,0.0,0.0,0.0,0.0,0.0,0.0,0.0,0.0,0.0,0.0,0.0,0.0,0.0,0.0,0.0,0.0,0.0,0.0,0.0,0.0,0.0,0.0,0.0,2.6047,0.0,0.0,0.0,0.0,0.0,0.0,0.0,0.0,0.0,0.0,0.0,2.0907,2.1018,2.0661,2.013,1.9492,1.9204,1.8975,1.8193,1.804,1.7951,1.7619,1.7375,1.6968,1.6147,1.5387,1.4636,0.0,0.0,0.0,1.3886,1.4062,0.0,1.385,1.3305,0.0,0.0,0.0,1.233,1.2756,1.2536,0.0,0.0,1.0872,0.9951,1.0011,0.9484,0.9296,0.9448,0.9074,0.8927,0.8927,0.878,0.8627,0.8399,0.8623,0.8625,0.853,0.8765,0.8788,0.8602,0.8839,0.8709,0.8549,0.8704,0.8782,0.8777,0.8798,0.8625,0.8462,0.8641,0.8546,0.8389,0.0,0.0,0.0,0.0,0.0,0.0,0.0,0.0,0.0,0.0,0.0,0.0,0.0,0.0,0.0,0.0,0.0,0.0,0.0,0.0,0.0,0.0,0.0,0.0,0.0,0.0,0.0,0.0,0.0,0.0,0.0,0.0,0.0,0.0,0.0,0.0,0.0,0.0,0.0,0.0,0.0,0.0,0.0,0.0,0.0,0.0,0.0,0.0,0.0,0.0,0.0,2.2787,2.2513,2.2157,2.1818,2.1744,0.0,2.0531,1.9876,1.9717,1.9561,1.8948,1.862,1.839,1.8215,1.7783,1.7271,1.6628,1.5986,0.0,0.0,0.0,0.0,0.0,0.0,0.0,1.4682,1.4524,1.441,0.0,1.4118,0.0,1.4249,1.4048,1.4001,0.0,1.2176,1.11,1.1343,1.0562,1.0276,1.0651,1.0351,1.0126,1.0051,0.983,0.9609,0.9236,0.9609,0.9596,0.9334,0.971,0.9632,0.9334,0.0,0.9642,0.9236,0.9609,0.9755,0.9755,0.9755,0.9533,0.9311,0.9755,0.9679,0.9458,0.0,0.0,0.0,0.0,0.0,0.0,0.0,0.0,0.0,0.0,3.4101,0.0,0.0,0.0,0.0,0.0,0.0,0.0,0.0,0.0,0.0,0.0,0.0,0.0,0.0,0.0,0.0,0.0,0.0,0.0,0.0,0.0,0.0,0.0,0.0,0.0,0.0,0.0,0.0,0.0,0.0,0.0,0.0,0.0,0.0,0.0,0.0,0.0,0.0,0.0,2.4743,2.4598,2.4352,2.3667,2.2827,2.2546,2.1575,2.0594,2.0175,2.0056,2.0033,1.9883,1.9533,1.9122,1.8702,1.8157,1.7519,1.6691,0.0,1.5968,1.4853,0.0,1.5191,1.4594,0.0,1.559,1.559,1.6002,1.6212,1.5676,1.5889,1.5928,1.5421,1.5307,1.533,1.5407,1.3251,1.2228,1.3037,1.1928,1.162,1.2291,1.2144,1.1922,1.1768,1.1552,1.1105,1.0438,1.1105,1.1031,1.0363,1.1105,1.1031,1.0438,0.0,0.0,1.0293,1.0887,1.1111,1.1111,1.1111,1.0663,1.0143,1.1037,1.0962,1.0513,0.0,0.0,0.0,0.0,0.0,0.0,0.0,0.0,0.0,0.0,3.4101,3.4101,0.0,0.0,0.0,0.0,0.0,0.0,0.0,0.0,0.0,0.0,0.0,0.0,0.0,0.0,0.0,0.0,0.0,0.0,0.0,0.0,0.0,0.0,0.0,0.0,0.0,0.0,0.0,0.0,0.0,0.0,0.0,0.0,0.0,0.0,0.0,0.0,0.0,0.0,2.6198,2.6557,2.5306,2.5087,2.5129,2.4235,2.3769,2.3167,2.1382,2.1214,2.1366,2.0461,2.0272,2.0091,1.9678,1.9222,0.0,0.0,0.0,1.6674,1.5838,1.5582,0.0,1.4858,0.0,0.0,0.0,0.0,1.725,0.0,0.0,0.0,0.0,0.0,0.0,0.0,0.0,1.4233,1.4672,1.421,1.3947,1.3875,1.3745,1.3593,1.3571,1.323,1.3091,1.3011,1.3091,1.3018,1.2872,1.3018,1.3018,1.2872,1.2291,0.0,1.1855,1.1335,1.1111,1.1111,1.1111,1.1037,1.0887,1.1111,1.1186,1.1329,0.0,0.0,0.0,0.0,0.0,0.0,0.0,3.4101,3.4101,3.4101,3.4101,3.4101,3.4101,3.4101,3.4054,0.0,0.0,0.0,0.0,0.0,0.0,0.0,0.0,0.0,0.0,0.0,0.0,0.0,0.0,0.0,0.0,0.0,0.0,0.0,0.0,0.0,0.0,0.0,0.0,0.0,0.0,0.0,0.0,0.0,0.0,0.0,0.0,0.0,0.0,0.0,2.686,2.7525,2.6198,2.5971,2.5884,2.4597,2.4232,2.3965,2.2674,2.257,2.274,2.2232,2.1712,2.1079,2.0239,0.0,0.0,0.0,0.0,1.7093,1.6724,0.0,0.0,0.0,0.0,0.0,0.0,0.0,0.0,0.0,0.0,0.0,0.0,0.0,0.0,0.0,0.0,1.6017,1.492,1.4697,1.453,1.4458,1.4243,1.4171,1.4155,1.381,1.3673,1.3875,1.3665,1.3673,1.373,1.373,1.3665,1.36,1.3171,0.0,1.2879,1.2579,1.2211,1.1929,1.2418,1.2345,1.2137,1.2565,1.2858,1.3004,0.0,0.0,0.0,0.0,0.0,0.0,3.4101,3.4101,3.4165,3.4311,3.4198,3.4165,3.4311,3.4182,3.3973,0.0,0.0,0.0,0.0,0.0,0.0,0.0,0.0,0.0,0.0,0.0,0.0,0.0,0.0,0.0,0.0,0.0,0.0,0.0,0.0,0.0,0.0,0.0,0.0,0.0,0.0,0.0,0.0,0.0,0.0,0.0,0.0,0.0,0.0,0.0,2.7266,2.7954,2.6883,2.655,2.6184,2.4841,2.4462,2.4375,2.385,2.3863,2.4032,2.3987,2.3269,2.2264,2.0991,1.9827,0.0,0.0,0.0,1.7472,0.0,0.0,0.0,0.0,0.0,0.0,0.0,0.0,0.0,0.0,0.0,0.0,0.0,0.0,0.0,0.0,0.0,0.0,1.5632,1.5438,1.5305,1.5305,1.495,1.4807,1.4879,1.4458,1.4386,1.4585,1.4386,1.4314,1.4514,1.4514,1.4378,1.425,1.4106,0.0,0.0,1.3818,1.3455,1.2952,1.3723,1.365,1.3222,1.3939,1.4227,1.4378,0.0,0.0,0.0,0.0,0.0,0.0,3.4101,3.4101,3.4327,3.4991,3.4505,3.436,3.5007,3.4489,3.4068,0.0,0.0,0.0,0.0,0.0,0.0,0.0,0.0,0.0,0.0,0.0,0.0,0.0,0.0,0.0,0.0,0.0,0.0,0.0,0.0,0.0,0.0,0.0,0.0,0.0,0.0,0.0,0.0,0.0,0.0,0.0,0.0,0.0,0.0,0.0,0.0,2.7743,2.7281,2.6932,2.6524,2.5647,0.0,0.0,2.4526,2.4649,2.4988,2.497,2.455,2.3847,2.2583,0.0,0.0,0.0,1.8559,1.8115,0.0,0.0,0.0,0.0,0.0,0.0,0.0,0.0,0.0,0.0,0.0,0.0,0.0,0.0,0.0,0.0,0.0,0.0,1.8583,1.8027,1.7687,1.7687,1.6862,1.6464,1.6691,1.6263,1.6184,1.6385,1.6193,1.6053,1.6123,1.6123,1.6053,1.5982,1.5338,0.0,0.0,1.4235,1.3939,1.3867,1.3939,1.3939,1.3932,1.4004,1.4155,1.4378,0.0,0.0,0.0,0.0,0.0,0.0,3.4101,3.4473,3.4862,3.5137,3.4926,3.4862,3.5153,3.4538,3.3939,3.3518,0.0,0.0,0.0,0.0,0.0,0.0,0.0,0.0,0.0,0.0,0.0,0.0,0.0,0.0,0.0,0.0,0.0,0.0,0.0,0.0,0.0,0.0,0.0,0.0,0.0,0.0,0.0,0.0,0.0,0.0,0.0,0.0,0.0,0.0,0.0,0.0,2.6819,2.6498,0.0,0.0,2.5866,2.5897,2.561,2.5833,2.6072,2.608,2.5465,2.4575,2.3471,0.0,0.0,2.0658,2.0291,2.0085,1.9814,0.0,0.0,0.0,0.0,0.0,0.0,0.0,0.0,0.0,0.0,0.0,0.0,0.0,0.0,0.0,0.0,0.0,1.9368,1.8353,1.7704,1.7704,1.7317,1.7314,1.7711,1.7445,1.7369,1.7423,1.7226,1.6959,1.663,1.663,1.6621,1.6473,1.6184,0.0,0.0,1.5675,1.5305,1.495,1.5525,1.5455,1.5171,1.5596,1.5816,1.5895,0.0,0.0,0.0,0.0,0.0,3.4165,3.4392,3.4667,3.5024,3.5461,3.5137,3.4943,3.5153,3.4538,3.3906,3.3437,3.3194,0.0,0.0,0.0,0.0,0.0,0.0,0.0,0.0,0.0,0.0,0.0,0.0,0.0,0.0,0.0,0.0,0.0,0.0,0.0,0.0,0.0,0.0,0.0,0.0,0.0,0.0,0.0,0.0,0.0,0.0,0.0,0.0,0.0,0.0,0.0,0.0,0.0,0.0,0.0,2.6244,2.6412,2.6762,2.6854,2.6869,2.7046,2.6205,2.5039,0.0,0.0,0.0,2.1565,2.1451,2.1388,2.1187,2.1037,0.0,0.0,0.0,0.0,0.0,0.0,0.0,0.0,0.0,0.0,0.0,0.0,0.0,0.0,0.0,0.0,0.0,1.8381,1.7899,1.7852,1.7616,1.7708,1.809,1.8096,1.8061,1.8108,1.8113,1.791,1.751,1.751,1.7432,1.7285,0.0,0.0,0.0,1.6751,1.6394,1.5965,1.6621,1.6551,1.6193,1.6691,1.6908,1.6908,0.0,0.0,0.0,0.0,0.0,0.0,3.5056,3.457,3.4635,3.6108,3.5024,3.4376,3.5104,3.4538,3.4101,3.4084,3.3469,0.0,0.0,0.0,0.0,0.0,0.0,0.0,0.0,0.0,3.2757,3.399,3.2049,0.0,0.0,0.0,0.0,0.0,0.0,0.0,0.0,0.0,0.0,0.0,0.0,0.0,0.0,0.0,0.0,0.0,0.0,0.0,0.0,0.0,0.0,0.0,0.0,0.0,0.0,0.0,2.6623,2.6555,2.7936,2.7713,2.7256,2.7933,2.6931,2.556,0.0,0.0,0.0,2.1729,2.1502,2.1388,2.1388,2.1262,2.1071,2.1135,2.2432,0.0,0.0,0.0,0.0,0.0,0.0,0.0,0.0,0.0,0.0,0.0,0.0,0.0,0.0,1.8632,1.8768,1.8583,1.7863,1.7492,1.7502,1.7996,1.8297,1.8297,1.8761,1.8977,1.8977,1.8977,1.8977,0.0,0.0,0.0,0.0,1.7176,1.6908,1.6908,1.6908,1.6908,1.6908,1.6908,1.6908,1.6908,0.0,0.0,0.0,0.0,0.0,0.0,3.4408,3.4667,3.5007,3.5477,3.5137,3.4926,3.5153,3.4538,3.4101,3.4101,3.3906,0.0,0.0,0.0,0.0,0.0,0.0,0.0,0.0,0.0,3.3271,3.4117,3.3119,3.2428,3.2036,3.2029,0.0,0.0,0.0,0.0,0.0,0.0,0.0,0.0,0.0,0.0,0.0,0.0,0.0,0.0,0.0,0.0,0.0,0.0,0.0,0.0,0.0,0.0,0.0,2.744,0.0,0.0,2.7299,2.7547,2.7672,2.7455,2.6654,2.5834,2.5521,0.0,0.0,0.0,2.3005,2.2884,2.2775,2.258,2.2629,2.302,2.3501,0.0,0.0,0.0,0.0,0.0,0.0,0.0,0.0,0.0,0.0,0.0,0.0,0.0,0.0,1.8888,1.8691,1.8272,1.8416,1.8467,1.8467,1.8622,1.8627,1.8516,1.8997,1.8966,1.8503,1.8503,0.0,0.0,0.0,0.0,0.0,1.8442,1.8307,1.8307,1.7833,1.7901,1.8307,1.7842,1.7638,1.7638,0.0,0.0,0.0,0.0,0.0,0.0,3.4473,3.4651,3.4862,3.5137,3.4943,3.4764,3.4764,3.4376,3.4101,3.4101,3.4101,0.0,0.0,0.0,0.0,0.0,0.0,0.0,0.0,3.3208,3.3918,3.5031,3.3935,3.3316,3.3027,3.2718,3.1741,3.0319,0.0,0.0,0.0,0.0,0.0,0.0,0.0,0.0,3.6669,0.0,0.0,0.0,0.0,0.0,0.0,0.0,0.0,0.0,0.0,0.0,0.0,0.0,2.7946,2.7823,0.0,2.772,2.7783,2.768,2.6984,0.0,0.0,0.0,0.0,0.0,0.0,2.3747,2.3852,2.3556,2.3492,2.4029,2.4259,0.0,0.0,0.0,0.0,0.0,0.0,0.0,0.0,0.0,0.0,0.0,0.0,0.0,0.0,1.9468,1.9132,1.8379,1.8688,1.8804,1.8609,1.8793,1.8816,1.87,1.9377,1.9412,1.8814,1.9232,0.0,0.0,0.0,0.0,0.0,1.911,1.8977,1.8977,1.8509,1.8633,1.8977,1.8499,1.8365,1.8365,0.0,0.0,0.0,0.0,0.0,0.0,0.0,3.4538,3.4343,3.5007,3.4522,3.4101,3.4101,3.4101,3.4101,3.4101,3.4149,0.0,0.0,0.0,0.0,0.0,0.0,0.0,0.0,3.3894,3.4625,3.6326,3.4551,3.3858,3.4267,3.3008,3.1854,3.0895,3.0298,0.0,0.0,0.0,0.0,0.0,0.0,3.5331,0.0,0.0,0.0,0.0,0.0,0.0,0.0,0.0,0.0,0.0,0.0,0.0,0.0,0.0,0.0,0.0,0.0,2.8127,2.7708,2.8277,2.7695,2.6918,0.0,0.0,0.0,0.0,0.0,2.4157,2.4681,2.4176,2.3923,2.4345,2.4826,0.0,0.0,0.0,0.0,0.0,0.0,0.0,0.0,0.0,0.0,0.0,0.0,0.0,0.0,2.03,1.9978,1.8917,1.8966,1.8711,1.8096,1.8609,1.885,1.8908,1.9895,2.0148,1.9769,2.0687,0.0,0.0,0.0,0.0,0.0,1.9441,1.9177,1.9177,1.911,1.911,1.9177,1.911,1.911,1.911,0.0,0.0,0.0,0.0,0.0,0.0,0.0,0.0,0.0,0.0,3.4214,3.4101,3.4101,3.4101,3.4101,0.0,0.0,0.0,0.0,0.0,0.0,0.0,0.0,0.0,0.0,3.3447,3.4104,3.5612,3.4726,3.4284,3.4284,3.3611,3.2482,3.103,3.0516,3.0231,0.0,0.0,0.0,0.0,3.4151,3.4732,0.0,0.0,0.0,0.0,3.3403,3.2595,0.0,0.0,0.0,0.0,0.0,0.0,0.0,0.0,2.8411,2.8394,2.8449,0.0,2.8132,2.7876,2.7513,2.7158,0.0,0.0,0.0,0.0,0.0,2.5245,2.5356,2.5175,2.5157,2.5791,0.0,0.0,0.0,0.0,0.0,0.0,0.0,0.0,0.0,0.0,0.0,0.0,0.0,0.0,0.0,2.0655,2.0192,1.9565,1.9775,1.9309,1.8096,1.821,1.8506,1.8896,1.9551,1.9998,2.0251,2.0481,0.0,0.0,0.0,0.0,2.0955,2.0764,2.07,2.0624,2.0031,2.0172,2.0624,2.0031,1.9835,1.9835,0.0,0.0,0.0,0.0,0.0,0.0,0.0,0.0,0.0,0.0,3.4101,3.4101,3.4101,3.4101,3.4101,0.0,0.0,0.0,0.0,0.0,0.0,0.0,0.0,3.417,3.3907,3.3484,3.3974,3.5391,3.4758,3.4513,3.4672,3.3811,3.2779,3.1564,3.0724,3.0231,0.0,0.0,0.0,0.0,3.3145,0.0,0.0,0.0,0.0,0.0,3.3178,3.2417,0.0,3.1903,3.0832,2.9138,0.0,0.0,0.0,0.0,2.8411,2.8411,2.8411,2.8411,2.8348,2.8039,2.786,2.7645,0.0,0.0,0.0,0.0,0.0,0.0,2.6068,0.0,0.0,0.0,0.0,0.0,0.0,0.0,0.0,0.0,0.0,0.0,0.0,0.0,0.0,0.0,0.0,0.0,0.0,2.1223,2.086,2.0258,2.0256,1.9703,1.8422,1.841,1.8556,1.8896,1.9183,1.9585,2.009,2.0308,2.0561,0.0,0.0,0.0,2.1285,2.136,2.1434,2.1371,2.0967,2.1106,2.136,2.0967,2.0828,2.0828,0.0,0.0,0.0,0.0,0.0,0.0,0.0,0.0,0.0,0.0,0.0,0.0,0.0,0.0,0.0,0.0,0.0,0.0,0.0,0.0,0.0,0.0,0.0,3.43,3.4448,3.3843,3.4072,3.5212,3.4609,3.4559,3.5043,3.3795,3.2785,3.2017,3.0751,3.0146,0.0,0.0,0.0,0.0,3.1882,0.0,0.0,0.0,0.0,0.0,0.0,0.0,0.0,3.1469,3.0513,2.9091,2.8967,0.0,0.0,0.0,0.0,0.0,2.8411,2.8444,2.8493,2.8396,2.8299,2.8201,0.0,0.0,0.0,0.0,0.0,0.0,0.0,0.0,0.0,0.0,0.0,0.0,0.0,0.0,0.0,0.0,0.0,0.0,0.0,0.0,0.0,0.0,0.0,0.0,0.0,2.1793,2.1554,2.0957,2.0709,2.0067,1.9105,1.903,1.9057,1.9125,1.9251,1.9472,1.9874,2.0369,2.0588,0.0,0.0,0.0,2.1463,2.1624,2.1698,2.1698,2.1698,2.1698,2.1698,2.1698,2.1698,2.1698,0.0,0.0,0.0,0.0,0.0,0.0,0.0,0.0,0.0,0.0,0.0,0.0,0.0,0.0,0.0,0.0,0.0,0.0,0.0,0.0,0.0,3.4151,3.4151,3.4151,3.4151,3.4037,3.4086,3.4313,3.4199,3.4266,3.4397,3.36,3.2602,3.149,3.0609,3.0231,3.0333,0.0,0.0,3.2087,3.1394,0.0,0.0,0.0,0.0,0.0,0.0,0.0,0.0,3.1512,3.067,2.9186,2.9785,0.0,0.0,0.0,0.0,0.0,2.8411,2.87,2.892,2.8493,2.8396,2.8348,0.0,0.0,0.0,0.0,0.0,0.0,0.0,0.0,0.0,0.0,0.0,0.0,0.0,0.0,0.0,0.0,0.0,0.0,0.0,0.0,0.0,0.0,0.0,0.0,0.0,2.1949,2.1746,2.165,2.1361,2.1006,2.0497,2.0223,2.0091,2.0191,2.0735,2.0867,2.0575,2.121,2.1518,0.0,0.0,2.1635,2.1624,2.1698,2.1698,2.1698,2.1698,2.1698,2.1698,2.1698,2.1698,2.1698,0.0,0.0,0.0,0.0,0.0,0.0,0.0,0.0,0.0,0.0,0.0,0.0,0.0,0.0,0.0,0.0,0.0,0.0,0.0,0.0,0.0,3.4101,3.4101,3.4101,3.4101,3.3744,3.3744,3.4101,3.3744,3.3794,3.4184,3.3502,3.2749,3.1839,3.1134,3.0795,3.0762,3.0283,3.0407,3.0904,0.0,0.0,0.0,0.0,0.0,0.0,0.0,0.0,0.0,0.0,3.0489,2.9353,2.9733,0.0,0.0,0.0,0.0,0.0,2.8795,2.9136,2.9438,2.9182,2.9152,0.0,0.0,0.0,0.0,0.0,0.0,0.0,0.0,0.0,0.0,0.0,0.0,0.0,0.0,0.0,0.0,0.0,0.0,0.0,0.0,0.0,0.0,0.0,0.0,0.0,0.0,0.0,2.2044,2.2044,2.1746,2.167,2.1848,2.1548,2.112,2.0677,2.108,2.1377,2.1716,2.1386,2.159,2.2149,0.0,2.1812,2.1812,2.1949,2.1949,2.1949,2.1949,2.1949,2.1949,2.1949,2.1949,2.2011,0.0,0.0,0.0,0.0,0.0,0.0,0.0,0.0,0.0,0.0,0.0,0.0,0.0,0.0,0.0,0.0,0.0,0.0,0.0,0.0,3.4,3.4,3.4,3.405,3.4101,3.3599,3.3582,3.4101,3.3582,3.3518,3.3858,3.3389,3.2834,3.2256,3.1553,3.1197,3.1059,3.0326,2.9946,2.9918,0.0,0.0,0.0,0.0,0.0,0.0,0.0,0.0,0.0,0.0,0.0,0.0,0.0,0.0,0.0,2.8826,2.8997,2.9257,2.9257,2.9617,2.9968,0.0,0.0,0.0,0.0,0.0,0.0,0.0,0.0,0.0,0.0,0.0,0.0,0.0,0.0,0.0,0.0,0.0,0.0,0.0,0.0,0.0,0.0,0.0,0.0,0.0,0.0,0.0,0.0,0.0,2.2184,2.2184,2.1996,2.2138,2.2574,2.2501,2.1995,2.1088,2.1368,2.1813,2.2449,2.1584,2.1753,2.2713,2.2161,2.1987,2.1999,2.2123,2.2197,2.2197,2.2197,2.2197,2.2209,2.233,2.2294,2.2209,0.0,0.0,0.0,0.0,0.0,0.0,0.0,0.0,0.0,0.0,0.0,0.0,0.0,0.0,0.0,0.0,0.0,0.0,0.0,0.0,3.3761,3.3761,3.3761,3.3848,3.4101,3.4052,3.4052,3.4101,3.4052,3.3728,3.3161,3.3113,3.2788,3.2166,3.1434,3.1108,3.1059,3.0326,2.9946,2.9918,2.9918,0.0,0.0,0.0,0.0,0.0,0.0,0.0,0.0,0.0,0.0,0.0,0.0,0.0,2.9316,2.912,2.9393,2.975,2.975,3.0097,3.0435,3.0435,0.0,0.0,0.0,0.0,0.0,0.0,0.0,0.0,0.0,0.0,0.0,0.0,0.0,0.0,0.0,0.0,0.0,0.0,0.0,0.0,0.0,0.0,0.0,0.0,0.0,0.0,0.0,0.0,0.0,2.2184,2.2184,2.2198,2.2255,2.2768,2.2569,2.1668,2.23,2.2428,2.2137,2.2115,2.2455,2.3027,2.242,2.2185,2.2185,2.2185,2.2197,2.2197,2.2197,2.2197,2.2258,2.2751,2.2618,2.2258,0.0,0.0,0.0,0.0,0.0,0.0,0.0,0.0,0.0,0.0,0.0,0.0,0.0,0.0,0.0,0.0,0.0,0.0,0.0,3.3277,3.345,3.345,3.345,3.3503,3.3607,3.3949,3.4101,3.4101,3.368,3.355,3.3696,3.2821,3.2562,3.2723,3.1491,3.0972,3.0924,3.0254,2.9902,2.9918,2.9918,2.9918,0.0,0.0,0.0,0.0,0.0,0.0,0.0,0.0,2.9814,2.9726,2.9637,2.9694,2.9733,2.9572,2.9908,3.0293,3.0267,3.0576,3.0935,0.0,0.0,0.0,0.0,0.0,0.0,0.0,0.0,0.0,0.0,0.0,0.0,0.0,0.0,0.0,0.0,0.0,0.0,0.0,0.0,0.0,0.0,0.0,0.0,0.0,0.0,0.0,0.0,0.0,0.0,2.2526,2.231,2.2184,2.2184,2.2409,2.2379,2.2007,2.2636,2.2871,2.2711,2.238,2.2726,2.3612,2.2994,2.2727,2.275,2.275,2.2531,2.2221,2.2558,2.2883,2.3195,2.34,2.334,2.3195,0.0,0.0,0.0,0.0,0.0,0.0,0.0,0.0,0.0,0.0,0.0,0.0,0.0,0.0,0.0,0.0,0.0,0.0,3.2726,3.2834,3.3011,3.315,3.315,3.3203,3.3309,3.3658,3.3848,3.3848,3.3173,3.311,3.3579,3.2402,3.2176,3.2692,3.1461,3.0881,3.0878,3.0166,2.9918,2.9918,2.9918,2.9918,0.0,0.0,0.0,0.0,0.0,0.0,0.0,0.0,2.9918,2.9874,2.9814,2.9957,3.0199,3.0011,3.0393,3.0845,3.0764,3.1038,3.1269,0.0,0.0,0.0,0.0,0.0,0.0,0.0,0.0,0.0,0.0,0.0,0.0,0.0,0.0,0.0,0.0,0.0,0.0,0.0,0.0,0.0,0.0,0.0,0.0,0.0,0.0,0.0,0.0,0.0,0.0,0.0,2.2356,2.2184,2.2184,2.2184,2.2184,2.2184,2.2685,2.2981,2.3057,2.2537,2.2804,2.3744,2.3371,2.3223,2.3237,2.3251,2.2871,2.2296,2.2838,2.326,2.3568,2.3881,2.3972,2.3917,0.0,0.0,0.0,0.0,0.0,0.0,0.0,0.0,3.1875,3.1875,3.189,0.0,0.0,0.0,0.0,0.0,0.0,0.0,3.2843,3.2398,3.2327,3.2843,3.2912,3.3005,3.3309,3.3309,3.3309,3.3309,3.2613,3.2403,3.2572,3.1902,3.1742,3.1963,3.1189,3.0865,3.0833,3.0166,2.9902,2.9902,2.9918,2.9902,2.9902,0.0,0.0,0.0,0.0,0.0,0.0,0.0,2.9918,2.9858,2.956,3.0044,3.0651,3.0393,3.0861,3.1462,3.1351,3.1406,0.0,0.0,0.0,0.0,0.0,0.0,0.0,0.0,0.0,0.0,0.0,0.0,0.0,0.0,0.0,0.0,0.0,0.0,0.0,0.0,0.0,0.0,0.0,0.0,0.0,0.0,0.0,0.0,0.0,0.0,0.0,0.0,2.2402,2.2184,2.2184,2.2184,2.2184,2.2231,2.2324,2.2635,2.3097,2.2592,2.2719,2.3319,2.3446,2.348,2.3533,2.3567,2.3113,2.2481,2.3004,2.3159,2.3123,2.4145,2.4328,2.4098,0.0,0.0,0.0,0.0,0.0,0.0,0.0,0.0,3.0613,3.0613,3.0837,0.0,0.0,0.0,0.0,0.0,0.0,0.0,3.1087,3.1248,3.1422,3.1552,3.1853,3.2079,3.2176,3.2508,3.285,3.3309,3.2598,3.225,3.2387,3.11,3.0593,3.0704,2.9987,2.9623,2.9607,2.94,2.935,2.935,2.9531,2.9486,2.935,0.0,0.0,0.0,0.0,0.0,0.0,0.0,0.0,0.0,3.0027,3.0393,3.0781,3.0878,3.1235,3.1559,3.1445,0.0,0.0,0.0,0.0,0.0,0.0,0.0,0.0,0.0,0.0,0.0,0.0,0.0,0.0,0.0,0.0,0.0,0.0,0.0,0.0,0.0,0.0,0.0,0.0,0.0,0.0,0.0,0.0,0.0,0.0,0.0,0.0,0.0,2.2678,2.2324,2.2324,2.2324,2.237,2.2463,2.2509,2.2562,2.2607,2.2546,2.2884,2.3428,2.3497,2.3737,2.4123,2.423,2.4302,2.4455,2.4589,2.4834,2.5134,2.546,2.5468,2.5375,0.0,0.0,0.0,0.0,0.0,0.0,0.0,0.0,2.9927,2.9927,3.0097,3.0083,0.0,0.0,0.0,0.0,0.0,0.0,0.0,3.0297,3.0404,3.0584,3.0881,3.0999,3.0999,3.1564,3.2033,3.2477,3.208,3.1992,3.2065,3.0665,3.0068,3.0148,2.9437,2.9075,2.9075,2.9075,2.9075,2.9121,2.9259,2.9259,2.9121,0.0,0.0,0.0,0.0,0.0,0.0,0.0,0.0,0.0,3.0087,3.0435,3.0845,3.0998,3.1351,3.1634,3.1538,0.0,0.0,0.0,0.0,0.0,0.0,0.0,0.0,0.0,0.0,0.0,0.0,0.0,0.0,0.0,0.0,0.0,0.0,0.0,0.0,0.0,0.0,0.0,0.0,0.0,0.0,0.0,0.0,0.0,0.0,0.0,0.0,0.0,2.3143,2.2709,2.2709,2.254,2.2509,2.2615,2.2661,2.2629,2.2583,2.2629,2.289,2.3263,2.3813,2.4262,2.4621,2.4915,2.5084,2.5074,2.5282,2.5704,2.609,2.5999,2.6206,2.6333,0.0,0.0,2.9761,2.9602,0.0,0.0,0.0,0.0,2.9602,2.9602,2.9602,2.9602,0.0,0.0,0.0,0.0,0.0,0.0,0.0,2.9484,2.9421,2.9827,2.9889,2.995,3.0011,3.0674,3.1087,3.1174,3.1369,3.1519,3.1644,3.0444,2.9937,3.0006,2.9328,2.9045,2.9045,2.9045,2.9045,2.9045,2.9045,2.9029,2.9045,2.9045,0.0,0.0,0.0,0.0,0.0,0.0,0.0,0.0,2.9946,3.0384,3.0788,3.0868,3.1334,3.1763,0.0,0.0,0.0,0.0,0.0,0.0,0.0,0.0,0.0,0.0,0.0,0.0,0.0,0.0,0.0,0.0,0.0,0.0,0.0,0.0,0.0,0.0,0.0,0.0,0.0,0.0,0.0,0.0,0.0,0.0,0.0,0.0,0.0,2.443,2.3636,2.3216,2.3216,2.2814,2.2615,0.0,2.2735,2.2795,2.2795,2.2795,2.2795,2.2867,2.4202,2.4855,2.4962,2.5666,2.5522,2.4921,2.5432,2.5907,2.6329,2.6193,2.6673,2.7139,0.0,0.0,2.9665,2.9602,0.0,0.0,0.0,0.0,0.0,0.0,0.0,0.0,0.0,0.0,0.0,0.0,0.0,0.0,2.8881,2.883,2.8766,2.8894,2.9233,2.9594,3.0011,3.0674,3.1028,3.1028,3.1671,3.1551,3.068,3.0387,2.9743,2.8805,2.8602,2.8541,2.8541,2.8541,2.8541,2.8589,2.87,2.87,2.8589,2.8748,2.8779,0.0,0.0,0.0,0.0,0.0,0.0,0.0,3.0393,3.0683,3.0908,3.1428,3.1671,3.18,0.0,0.0,0.0,0.0,0.0,0.0,0.0,0.0,0.0,0.0,0.0,0.0,0.0,0.0,0.0,0.0,0.0,0.0,0.0,0.0,0.0,0.0,0.0,0.0,0.0,0.0,0.0,0.0,0.0,0.0,0.0,0.0,0.0,2.4632,2.3806,2.3363,2.3363,2.2933,2.2781,0.0,2.2857,2.2857,2.2857,2.2857,2.2857,2.2975,2.4235,2.4809,2.4926,2.613,2.65,2.6379,2.6469,2.6849,2.7325,2.7272,2.7645,2.8088,0.0,0.0,0.0,0.0,0.0,0.0,0.0,0.0,0.0,0.0,0.0,0.0,0.0,0.0,0.0,0.0,2.8197,2.8066,2.8,2.8,2.8,2.8,2.83,2.8397,2.8414,2.9069,2.9434,2.954,3.026,3.0467,3.0219,3.0219,2.9501,2.8217,2.8217,2.8217,2.8201,2.8299,2.825,2.8201,2.8365,2.8381,2.8299,2.8414,2.851,2.8573,2.8716,0.0,0.0,0.0,0.0,0.0,0.0,0.0,3.0764,3.1372,3.1671,3.18,0.0,0.0,0.0,0.0,0.0,0.0,0.0,0.0,0.0,0.0,0.0,0.0,0.0,0.0,0.0,0.0,0.0,0.0,0.0,0.0,0.0,0.0,0.0,0.0,0.0,0.0,0.0,0.0,0.0,0.0,0.0,2.5355,2.5208,2.5114,2.4446,2.4048,2.3809,2.3407,2.3068,2.2888,2.2888,2.3047,2.3383,2.3033,2.2888,2.2946,2.3963,2.4559,2.4936,2.5908,2.6489,2.6779,2.6779,2.7129,2.7613,2.7256,2.7732,2.8339,0.0,0.0,0.0,0.0,0.0,0.0,0.0,0.0,0.0,0.0,0.0,0.0,0.0,0.0,0.0,0.0,0.0,0.0,2.7268,2.7268,2.7268,2.7268,2.7335,2.7129,2.6622,2.7287,2.7645,2.7708,2.8425,2.9171,0.0,0.0,0.0,2.802,2.7905,2.784,2.784,2.7974,2.7875,2.7725,2.7925,2.8024,2.8024,2.8024,2.8186,2.8348,2.8444,2.8525,2.8653,2.8732,0.0,0.0,0.0,0.0,3.0559,3.1083,3.1487,3.1746,0.0,0.0,0.0,0.0,0.0,0.0,0.0,0.0,0.0,0.0,0.0,0.0,0.0,0.0,0.0,0.0,0.0,0.0,0.0,0.0,0.0,0.0,0.0,0.0,0.0,0.0,0.0,0.0,0.0,0.0,2.5616,2.5616,2.5616,2.5616,2.5169,2.4719,2.4302,2.3852,2.3436,2.2978,2.3094,2.3487,2.413,2.356,2.3254,2.3136,2.3705,2.4316,2.5019,2.5581,2.6236,2.6884,2.6884,2.7224,2.7723,2.7143,2.7682,2.8429,0.0,0.0,0.0,0.0,0.0,0.0,0.0,0.0,0.0,0.0,2.8651,2.8522,0.0,0.0,2.7723,2.7403,2.7214,2.7079,2.7011,0.0,0.0,2.7011,2.7079,2.6822,2.6257,2.6892,2.7117,2.6789,2.788,0.0,0.0,0.0,0.0,2.7955,0.0,0.0,2.724,2.7225,2.6953,2.6505,2.7004,2.7225,2.7276,2.7363,2.7745,2.8284,2.8558,2.8573,2.8493,2.8889,2.8936,0.0,0.0,0.0,3.0418,3.0834,3.1261,0.0,0.0,0.0,0.0,0.0,0.0,0.0,0.0,0.0,0.0,0.0,0.0,0.0,0.0,0.0,0.0,0.0,0.0,0.0,0.0,0.0,0.0,0.0,0.0,0.0,0.0,0.0,0.0,0.0,0.0,0.0,2.5616,2.5616,2.5616,2.5616,2.5278,2.4855,2.4395,2.4063,2.3638,2.3231,2.3834,2.4452,2.5118,2.5029,2.4582,2.3961,2.4048,2.4491,2.5202,2.578,2.644,2.713,2.713,2.7527,2.8032,2.7979,2.8378,2.889,0.0,0.0,0.0,0.0,0.0,0.0,0.0,0.0,0.0,0.0,0.0,2.7987,0.0,2.7469,2.7139,2.6696,2.6752,2.6794,2.6645,2.6645,2.6714,2.6807,2.6943,2.6601,2.5704,2.5973,2.5926,2.5411,0.0,0.0,0.0,2.8679,2.8598,0.0,0.0,0.0,0.0,0.0,0.0,2.5932,2.6678,2.6953,2.6953,2.7393,2.786,2.8235,2.8365,2.8429,2.8444,2.8636,2.8621,2.8653,2.9196,0.0,0.0,0.0,3.101,0.0,0.0,0.0,0.0,0.0,0.0,0.0,0.0,0.0,0.0,0.0,0.0,0.0,0.0,0.0,0.0,0.0,0.0,0.0,0.0,0.0,0.0,0.0,0.0,0.0,0.0,0.0,0.0,0.0,0.0,2.5749,2.5749,2.5749,2.5749,2.5749,2.5621,2.5323,2.4823,2.4461,2.3964,2.3334,2.4414,2.4858,2.4705,2.5634,2.5379,2.4246,2.4614,2.4923,2.525,2.5879,2.6541,2.7181,2.7181,2.7343,2.7609,2.7609,2.8007,2.8464,0.0,0.0,0.0,0.0,0.0,0.0,0.0,0.0,0.0,0.0,0.0,0.0,0.0,0.0,0.0,0.0,2.6418,2.6458,2.609,2.5952,2.5945,2.6093,2.6447,2.6057,2.4925,2.5103,2.4961,0.0,0.0,0.0,2.722,2.8483,2.8575,0.0,2.7585,0.0,0.0,0.0,0.0,0.0,2.6428,2.6745,2.6692,2.7357,2.7775,2.8088,2.8186,2.8235,2.8348,2.8411,2.8411,2.8493,2.8858,2.9074,0.0,0.0,0.0,0.0,0.0,0.0,0.0,0.0,0.0,0.0,0.0,0.0,0.0,0.0,0.0,0.0,0.0,0.0,0.0,0.0,0.0,0.0,0.0,0.0,0.0,0.0,0.0,0.0,0.0,0.0,0.0,0.0,0.0,2.6176,2.6176,2.5995,2.5897,2.5897,2.5934,2.5717,2.5269,2.4759,2.4223,2.3629,2.4698,2.498,2.4606,2.5789,2.5625,2.4399,2.4902,2.5183,2.5346,2.58,2.6494,2.7321,2.7321,2.7321,2.7321,2.7321,2.7684,2.8187,0.0,0.0,0.0,0.0,0.0,0.0,0.0,0.0,0.0,0.0,0.0,0.0,2.7011,2.6875,2.6633,2.6389,2.6302,2.5908,2.5241,2.4657,2.4439,2.4439,2.512,0.0,2.3791,2.448,0.0,0.0,0.0,0.0,2.734,2.8526,2.8483,2.7324,2.7324,2.6622,2.5453,0.0,0.0,0.0,2.6014,2.651,2.6563,0.0,0.0,0.0,0.0,0.0,2.8235,2.8348,2.8411,2.8396,2.8444,2.8748,2.9241,0.0,0.0,0.0,0.0,0.0,0.0,0.0,0.0,0.0,0.0,0.0,0.0,0.0,0.0,0.0,0.0,0.0,0.0,0.0,0.0,0.0,0.0,0.0,0.0,0.0,0.0,0.0,0.0,0.0,0.0,0.0,0.0,2.6929,2.6929,2.6274,2.5897,2.5897,2.5954,2.5791,2.5378,2.467,2.4371,2.4522,2.4597,2.494,2.5508,2.563,2.5285,2.4582,2.4551,2.4923,2.5553,2.5488,2.6311,2.7575,2.7575,2.7575,2.7575,2.7575,2.8008,2.8592,0.0,0.0,0.0,0.0,0.0,0.0,0.0,0.0,0.0,0.0,0.0,0.0,0.0,2.5745,2.5132,2.5054,2.4492,2.3948,2.3438,2.3778,2.4195,2.4682,2.5001,2.4888,2.4082,2.432,0.0,0.0,0.0,2.521,2.5873,2.712,2.7242,2.6452,2.7428,2.6975,2.5398,2.5618,0.0,0.0,2.6014,2.6336,2.6443,0.0,0.0,0.0,0.0,0.0,0.0,0.0,0.0,0.0,2.8411,2.8231,2.8075,2.8488,2.9104,0.0,0.0,0.0,0.0,0.0,0.0,0.0,0.0,0.0,0.0,0.0,0.0,0.0,0.0,0.0,0.0,0.0,0.0,0.0,0.0,0.0,0.0,0.0,0.0,0.0,0.0,0.0,0.0,0.0,0.0,0.0,2.7238,2.6958,2.6594,2.6112,2.6132,2.5807,2.5075,2.4839,2.4436,2.3969,2.4418,2.4522,2.4343,2.5211,2.5016,2.4014,2.4851,2.5359,2.5644,2.6016,2.6718,2.7625,2.7625,2.7625,2.7619,2.8068,2.8382,2.8667,0.0,0.0,0.0,0.0,0.0,2.6381,2.6381,2.6381,2.6314,2.6248,0.0,0.0,0.0,0.0,2.4079,2.3737,2.2918,2.236,2.2139,2.2492,2.3048,2.3827,2.4207,2.4115,2.3643,0.0,0.0,0.0,0.0,0.0,0.0,2.6126,2.6366,2.5791,2.7216,2.6821,0.0,0.0,0.0,2.5175,0.0,2.6351,2.6578,0.0,0.0,0.0,0.0,0.0,0.0,0.0,0.0,0.0,0.0,2.8014,2.7713,2.7768,2.8146,0.0,0.0,0.0,0.0,0.0,0.0,0.0,0.0,0.0,0.0,0.0,0.0,0.0,0.0,0.0,0.0,0.0,0.0,0.0,0.0,0.0,0.0,0.0,0.0,0.0,0.0,0.0,0.0,0.0,0.0,0.0,2.779,2.7487,2.6949,2.6236,2.6291,2.5828,2.4902,2.4981,2.4542,2.3653,2.4161,2.419,2.3769,2.4672,2.4596,2.3814,2.4927,2.5498,2.5659,2.6318,2.7025,2.7675,2.7625,2.7625,2.7765,2.8389,2.8794,2.9026,0.0,0.0,2.5665,2.581,2.5445,2.5077,2.5077,2.5065,2.4924,2.4589,0.0,0.0,0.0,0.0,0.0,2.2491,2.1711,2.1296,2.1296,2.0859,2.088,2.167,2.2524,2.2751,2.2246,0.0,0.0,0.0,0.0,0.0,0.0,0.0,2.5935,2.537,2.6609,2.6034,2.4131,0.0,2.5063,2.5119,0.0,2.6472,2.7003,0.0,0.0,0.0,2.769,2.779,0.0,0.0,0.0,0.0,0.0,2.8186,2.8136,2.7818,2.763,0.0,0.0,0.0,0.0,0.0,0.0,0.0,0.0,0.0,0.0,0.0,0.0,0.0,0.0,0.0,0.0,0.0,0.0,0.0,0.0,0.0,0.0,0.0,0.0,0.0,0.0,0.0,0.0,0.0,0.0,2.9231,2.8745,2.7844,2.7002,2.627,2.6397,2.5974,2.4942,2.5098,2.4744,2.3839,2.3982,2.4024,2.3982,2.3982,2.3982,2.4028,2.4696,2.5228,2.5659,2.6318,2.709,2.779,2.7675,2.769,2.7896,2.8559,2.9185,2.9753,0.0,2.5061,2.5222,2.5289,2.5177,2.5078,2.4957,2.46,2.4263,0.0,0.0,0.0,0.0,0.0,2.1375,2.0068,1.9663,1.9266,1.8748,1.9142,2.0182,2.1733,2.1875,2.2194,2.2911,0.0,0.0,0.0,0.0,0.0,0.0,0.0,0.0,0.0,2.3816,2.3624,2.3198,2.5133,0.0,0.0,2.6297,2.6592,0.0,0.0,0.0,0.0,0.0,2.7437,0.0,0.0,2.779,2.7815,0.0,0.0,0.0,0.0,0.0,0.0,2.7125,0.0,0.0,0.0,0.0,0.0,3.2218,3.3031,0.0,0.0,0.0,0.0,0.0,0.0,0.0,0.0,0.0,0.0,0.0,0.0,0.0,0.0,0.0,0.0,0.0,0.0,0.0,0.0,3.063,3.0212,2.9532,2.8223,2.7437,2.72,2.677,2.6206,2.5556,2.5594,2.5198,2.4379,2.4436,2.4287,2.3982,2.3982,2.3982,2.4028,2.4696,2.5363,2.5939,2.6605,2.7334,2.7955,2.7905,2.8208,2.8758,2.9425,3.0091,3.0703,2.3893,2.3966,2.4026,2.4093,2.4093,2.402,2.367,2.355,2.3405,0.0,0.0,0.0,0.0,0.0,1.9551,1.8422,1.82,1.8007,1.7619,1.8075,1.9039,2.0565,2.0786,2.1239,2.2007,0.0,0.0,0.0,0.0,0.0,0.0,0.0,0.0,0.0,2.3078,0.0,0.0,0.0,0.0,0.0,2.5632,0.0,0.0,2.6832,2.7003,0.0,0.0,0.0,2.7335,2.7437,2.7575,0.0,0.0,0.0,0.0,0.0,0.0,0.0,0.0,0.0,0.0,0.0,0.0,0.0,3.1172,3.2177,3.3075,0.0,0.0,0.0,0.0,0.0,0.0,0.0,0.0,0.0,0.0,0.0,0.0,0.0,0.0,0.0,0.0,0.0,0.0,3.1072,3.0952,3.0593,2.9833,2.8434,2.7664,2.7593,2.6942,2.633,2.5815,2.5888,2.5577,2.4942,2.4784,2.4599,2.4369,2.4219,2.4151,2.4155,2.5175,2.5649,2.5787,2.7086,2.7786,2.8103,2.8005,2.8414,2.9139,2.9535,3.0228,3.1055,0.0,2.2667,2.245,2.2645,2.271,2.2491,2.1954,2.2162,2.2192,0.0,2.1083,0.0,0.0,0.0,0.0,0.0,1.7198,1.7198,1.7198,1.7198,1.7706,1.8704,1.9462,2.0064,2.0444,2.1192,0.0,0.0,0.0,0.0,0.0,0.0,0.0,0.0,2.3458,2.3682,0.0,0.0,0.0,2.4509,2.4624,2.5412,0.0,0.0,2.6832,0.0,2.7078,2.713,2.7115,2.7181,2.7335,0.0,0.0,0.0,0.0,0.0,2.5749,0.0,0.0,0.0,0.0,0.0,0.0,0.0,2.9825,3.0986,3.2044,0.0,0.0,0.0,0.0,0.0,0.0,0.0,0.0,0.0,0.0,0.0,0.0,0.0,0.0,0.0,0.0,3.1896,3.1487,3.123,3.1032,3.0627,2.999,2.8747,2.8007,2.788,2.7197,2.6553,2.602,2.6118,2.5924,2.5406,2.5098,2.4902,2.4823,2.4451,2.4302,2.4379,2.561,2.5841,2.5472,2.7396,2.8163,2.8079,2.8073,2.8514,2.9245,2.9322,3.006,3.1049,2.1023,2.1391,2.1815,2.245,2.2527,2.2362,2.1843,2.1091,2.0401,1.9846,1.9299,0.0,0.0,0.0,0.0,0.0,1.6097,1.5692,1.5842,1.6193,1.6958,1.8267,1.8496,1.921,2.053,2.0902,2.1158,0.0,0.0,0.0,0.0,0.0,0.0,0.0,2.2482,2.2702,0.0,0.0,0.0,2.4567,2.5425,0.0,2.6218,2.634,2.6394,2.6447,2.6447,2.6525,2.6683,0.0,2.7144,2.7255,0.0,0.0,0.0,0.0,0.0,0.0,0.0,0.0,0.0,0.0,0.0,0.0,2.9537,3.0624,3.1769,0.0,0.0,0.0,0.0,0.0,0.0,0.0,0.0,0.0,0.0,0.0,0.0,0.0,0.0,0.0,0.0,3.1932,3.1562,3.123,3.1151,3.1083,3.0948,3.0104,2.9631,2.9631,2.8279,2.7535,2.7412,2.6859,2.621,2.5465,2.5427,2.5044,2.441,2.4343,2.4302,2.4317,2.4594,2.4948,2.5395,2.638,2.7103,2.7595,2.8132,2.8762,2.9423,2.9976,3.0668,3.142,1.953,1.9986,2.0445,2.0863,2.135,2.144,2.0632,2.0247,1.9828,1.8977,1.8142,0.0,0.0,0.0,0.0,0.0,0.0,0.0,0.0,1.5417,1.5998,1.683,1.7398,1.8057,1.9015,1.9745,2.0161,2.0344,0.0,0.0,0.0,0.0,0.0,0.0,0.0,0.0,0.0,0.0,2.4025,2.4713,2.5129,0.0,2.6111,2.6179,2.6233,2.6286,2.6286,2.6326,2.6365,2.6258,2.6351,0.0,0.0,2.6654,2.6776,0.0,2.6538,2.6695,0.0,0.0,0.0,2.6928,0.0,0.0,0.0,2.9885,3.0657,0.0,0.0,0.0,0.0,0.0,0.0,0.0,0.0,0.0,0.0,0.0,0.0,0.0,0.0,0.0,0.0,3.1657,3.1389,3.123,3.119,3.119,3.119,3.0497,3.0108,3.0108,2.8991,2.8399,2.8399,2.7725,2.7024,2.6339,2.5831,2.5253,2.4614,2.4508,2.4385,2.4333,2.4813,2.5111,2.5395,2.6457,2.7088,2.7457,2.815,2.9027,2.992,2.992,3.0751,3.189,1.8267,1.8613,1.9034,1.9233,2.0036,2.0232,1.9218,1.9344,1.9155,1.7891,0.0,0.0,0.0,0.0,0.0,0.0,0.0,0.0,0.0,0.0,1.5133,1.5133,1.6245,1.7001,1.7267,1.8422,1.909,1.9114,0.0,0.0,0.0,0.0,0.0,0.0,0.0,0.0,0.0,0.0,0.0,2.4787,0.0,2.5118,2.5962,2.5962,2.6071,2.6233,2.6233,2.6165,2.6042,2.5577,0.0,2.555,2.5522,2.5809,0.0,0.0,0.0,0.0,0.0,0.0,0.0,0.0,0.0,2.7155,0.0,0.0,0.0,0.0,0.0,0.0,0.0,0.0,0.0,0.0,0.0,0.0,0.0,0.0,0.0,0.0,0.0,0.0,0.0,3.1671,3.1382,3.1207,3.1365,3.1382,3.123,3.0632,3.0328,3.0366,2.9621,2.9231,2.9268,2.8439,2.7737,2.716,2.6213,2.546,2.4918,2.4735,2.4589,2.4472,2.5394,2.5606,2.5484,2.6963,2.7473,2.7504,2.8134,2.915,3.0181,2.9766,3.0705,3.2136,1.7257,1.7541,1.7949,1.91,1.9417,1.9229,1.8412,1.7978,1.7038,0.0,0.0,0.0,0.0,0.0,0.0,0.0,0.0,0.0,1.3382,0.0,1.441,1.3962,1.5321,1.6306,1.6706,1.7677,1.8295,1.8598,0.0,0.0,0.0,0.0,0.0,0.0,2.2235,0.0,0.0,0.0,2.4269,0.0,2.4516,2.4956,0.0,2.555,2.5702,2.5948,2.6056,2.577,2.5356,0.0,2.505,2.4641,0.0,2.5092,2.555,0.0,0.0,0.0,0.0,0.0,0.0,0.0,2.6979,0.0,0.0,0.0,0.0,0.0,0.0,0.0,0.0,0.0,0.0,0.0,0.0,0.0,0.0,0.0,0.0,0.0,0.0,0.0,0.0,0.0,3.2021,3.1241,3.1936,3.2026,3.1346,3.1128,3.115,3.1359,3.0517,3.0125,3.0253,2.8835,2.7737,2.7102,2.6323,2.561,2.5005,2.4966,2.4926,2.4973,2.5668,2.5858,2.5773,2.735,2.787,2.7689,2.823,2.8873,2.9597,3.012,3.0812,3.1582,1.5508,1.6367,1.7001,1.7335,1.7677,1.7599,1.6766,1.6149,1.5392,0.0,0.0,0.0,0.0,0.0,0.0,0.0,0.0,1.2732,0.0,0.0,0.0,1.2931,1.373,1.445,1.4942,1.5852,1.6591,1.7076,1.8055,0.0,0.0,0.0,0.0,0.0,2.1934,0.0,2.3607,0.0,0.0,0.0,0.0,0.0,0.0,2.516,2.53,2.5397,2.5453,2.5272,2.4978,0.0,2.4066,0.0,0.0,0.0,0.0,0.0,0.0,0.0,0.0,0.0,0.0,0.0,0.0,0.0,2.752,0.0,2.7731,0.0,0.0,0.0,0.0,0.0,0.0,0.0,3.2231,0.0,0.0,0.0,0.0,0.0,0.0,0.0,0.0,0.0,0.0,0.0,3.2004,3.2128,3.1286,3.1235,3.1291,3.1308,3.1079,3.0946,3.0929,2.9571,2.8574,2.7961,2.6651,2.5779,2.5246,2.5201,2.5306,2.5582,2.5989,2.6535,2.7142,2.7813,2.8286,2.8527,2.8748,2.937,3.0216,3.0356,3.1074,3.2013,1.3346,0.0,0.0,1.5824,1.6237,1.6237,1.5463,1.4768,0.0,0.0,0.0,0.0,1.2673,1.2365,0.0,0.0,0.0,1.2512,0.0,0.0,1.2872,0.0,0.0,0.0,0.0,1.4425,1.5084,1.5948,1.6954,0.0,0.0,0.0,0.0,0.0,0.0,2.2598,2.3489,0.0,0.0,2.4752,2.4262,2.4223,2.4405,2.4821,2.4991,2.4989,2.5018,2.4878,2.4593,2.361,2.3386,0.0,2.3505,0.0,0.0,0.0,0.0,0.0,2.4341,0.0,0.0,0.0,0.0,0.0,0.0,0.0,0.0,0.0,0.0,0.0,0.0,0.0,0.0,0.0,0.0,0.0,0.0,0.0,0.0,0.0,0.0,0.0,0.0,0.0,0.0,3.1642,3.2349,3.2406,3.128,3.1252,3.1274,3.1308,3.1423,3.15,3.1428,3.0105,2.9193,2.871,2.7016,2.6112,2.5977,2.5799,2.6046,2.6622,2.688,2.7428,2.8183,2.8478,2.886,2.9229,2.9435,3.0148,3.0958,3.0618,3.1297,3.2398,1.0611,1.2325,0.0,0.0,0.0,1.5392,1.4974,0.0,0.0,0.0,0.0,0.0,0.0,0.0,0.0,0.0,0.0,1.3954,1.2673,0.0,1.2599,0.0,0.0,1.2998,0.0,0.0,1.4394,1.5709,1.5964,0.0,0.0,0.0,0.0,0.0,0.0,2.2282,2.2883,2.3599,2.4015,2.4125,2.4125,2.4125,2.4184,0.0,2.497,2.5027,2.4989,0.0,0.0,2.3505,2.322,0.0,0.0,0.0,0.0,0.0,0.0,0.0,0.0,0.0,0.0,2.5287,0.0,0.0,0.0,0.0,2.6741,0.0,0.0,0.0,0.0,0.0,0.0,3.0311,0.0,0.0,0.0,0.0,0.0,0.0,0.0,0.0,0.0,0.0,0.0,3.2576,3.327,3.3031,3.138,3.1252,3.1329,3.1579,3.1538,3.1593,3.18,3.0265,2.9368,2.9051,2.7262,2.6803,2.7523,2.6907,2.7183,2.8129,2.8526,2.8597,2.8462,2.9447,2.9694,2.955,3.027,3.0943,3.1533,3.0958,3.144,3.2398,0.918,0.0,0.0,0.0,0.0,0.0,0.0,1.371,0.0,0.0,0.0,0.0,0.0,0.0,1.3585,0.0,0.0,1.3098,1.2599,1.2224,0.0,0.0,0.0,1.1291,0.0,0.0,0.0,0.0,0.0,0.0,0.0,0.0,0.0,0.0,0.0,2.1296,0.0,0.0,0.0,0.0,0.0,2.4458,2.4334,0.0,0.0,2.4358,2.3974,2.3694,0.0,2.2619,2.2101,2.1749,2.2213,2.1968,2.1801,2.282,2.2811,0.0,0.0,0.0,2.3492,2.3669,0.0,0.0,0.0,0.0,0.0,0.0,0.0,0.0,0.0,0.0,0.0,2.9597,0.0,0.0,0.0,0.0,0.0,0.0,0.0,0.0,0.0,0.0,0.0,3.2405,3.2287,3.1947,3.1286,3.1235,3.1312,3.1389,3.1504,3.1596,3.1671,3.0747,3.0247,3.0123,2.8303,2.7876,2.8535,2.7701,2.7888,2.8949,2.9075,2.9219,2.9431,2.9761,2.9874,2.9835,3.0516,3.1148,3.1646,3.1744,3.228,3.3074,0.7283,0.0,0.0,0.0,0.0,0.0,0.0,0.0,0.0,0.0,1.4522,0.0,1.4736,0.0,1.4011,0.0,1.339,1.3098,1.2599,1.2224,0.0,1.1484,1.0887,0.0,0.0,0.0,0.0,0.0,0.0,1.5876,0.0,0.0,0.0,0.0,0.0,0.0,0.0,0.0,2.3586,0.0,0.0,2.5034,0.0,0.0,2.3772,2.3872,0.0,2.3031,2.2881,2.1988,2.1358,2.1124,2.1642,2.1114,2.0676,2.1928,2.1898,2.1319,2.1303,2.1934,0.0,2.2623,2.3175,0.0,2.3702,0.0,0.0,0.0,0.0,0.0,0.0,0.0,0.0,2.8856,2.9134,2.9547,0.0,3.1863,0.0,0.0,0.0,0.0,0.0,0.0,3.3194,3.2381,3.2224,3.1885,0.0,0.0,3.1295,3.1351,3.1504,3.1617,3.1671,3.1022,3.0696,3.0679,2.9108,2.8833,2.9657,2.8783,2.892,2.9838,2.9716,2.9747,2.9918,2.9918,2.9918,2.9999,3.0927,3.1467,3.1807,3.2249,3.2812,3.3403,0.4836,0.0,0.0,0.0,1.1099,0.0,0.0,0.0,1.3708,0.0,1.4498,1.5005,1.5005,1.5005,1.4649,1.3852,1.4307,0.0,1.282,1.2673,0.0,0.0,1.2003,1.2432,1.3877,0.0,0.0,0.0,0.0,0.0,0.0,0.0,0.0,0.0,2.0654,0.0,2.1498,2.294,2.3989,2.478,2.5392,2.5607,2.5547,2.49,2.4254,2.3534,2.3027,2.2739,2.2579,2.15,2.1101,2.0952,2.0775,2.033,1.9948,2.0435,2.0582,2.0589,2.0311,2.0996,2.1858,2.2036,0.0,0.0,0.0,0.0,2.3795,0.0,0.0,0.0,0.0,0.0,0.0,2.8051,2.8415,2.9014,3.041,0.0,0.0,0.0,0.0,0.0,0.0,3.5169,3.4686,3.2534,3.3039,0.0,0.0,0.0,3.1402,3.1517,3.1559,3.1671,3.18,3.1093,3.0748,3.0731,2.9674,2.9725,3.0731,3.0112,3.0213,3.0804,3.046,3.0156,2.9902,2.9918,2.9918,3.0048,3.1445,3.2044,3.2142,3.2545,3.2997,3.3451,0.289,0.4361,0.6063,0.0,1.0067,1.1335,0.0,0.0,0.0,0.0,1.5649,1.6367,1.6367,1.6367,1.6079,1.5234,1.4816,0.0,0.0,0.0,0.0,1.2599,1.2003,1.2116,1.2938,1.3314,0.0,1.3889,0.0,0.0,1.651,0.0,0.0,0.0,0.0,0.0,2.1461,2.2321,2.3607,2.5099,2.5718,2.5914,0.0,0.0,2.4841,2.3826,2.3065,2.224,2.1428,2.0899,2.0079,1.9408,1.9773,1.941,1.9034,1.9866,2.0041,2.0049,2.0472,2.0509,2.0627,2.1568,2.1643,2.162,0.0,0.0,0.0,0.0,0.0,0.0,0.0,0.0,0.0,0.0,0.0,0.0,0.0,0.0,0.0,3.1255,0.0,0.0,3.5138,3.3448,3.2486,3.3068,3.1788,0.0,0.0,0.0,0.0,3.1534,3.1517,3.1614,3.18,3.161,3.1524,3.1507,3.0676,3.0711,3.1489,3.0776,3.0728,3.1123,3.0845,3.0477,3.0199,2.9973,2.9918,3.0048,3.1445,3.2643,3.3582,3.3661,3.4024,3.4553,0.1251,0.0,0.0,0.6479,0.0,0.0,1.1143,0.0,0.0,1.4561,1.5632,0.0,1.6715,1.6862,1.6651,1.5998,1.5002,0.0,1.4433,0.0,0.0,1.3084,1.2739,1.2673,1.2973,1.3672,0.0,1.3704,0.0,0.0,1.6506,0.0,0.0,0.0,0.0,2.0692,0.0,2.2975,2.4278,2.5363,2.6155,0.0,0.0,2.6017,2.5071,2.3912,2.2935,2.201,2.1131,2.0441,1.958,1.8931,1.9449,1.9026,1.8486,1.9223,1.9378,1.9356,1.9529,1.9715,2.0099,2.0875,2.1018,2.121,2.1868,2.2055,2.2307,0.0,0.0,0.0,0.0,0.0,0.0,0.0,0.0,0.0,0.0,0.0,0.0,0.0,3.0874,0.0,3.374,3.2135,3.1486,3.2731,0.0,0.0,0.0,0.0,0.0,3.1496,3.1538,3.1614,3.18,3.18,3.18,3.18,3.1369,3.1231,3.1317,3.1214,3.105,3.0836,3.083,3.0625,3.0267,3.0017,2.9918,3.0048,3.1445,3.287,3.4101,3.4101,3.4258,3.4655,0.0,0.0,0.0,0.0,0.0,0.0,0.0,1.1316,0.0,1.4554,0.0,1.5957,1.6624,1.6803,1.6705,1.6278,0.0,1.4413,1.4465,1.3646,1.3383,1.3772,1.3615,1.3492,1.3492,1.4163,0.0,0.0,0.0,0.0,1.6994,0.0,0.0,0.0,0.0,0.0,0.0,2.4092,2.5258,0.0,2.6573,2.6913,2.6761,2.6085,2.5106,2.3919,2.2721,2.1871,2.1146,2.0156,1.9443,1.9049,1.931,1.878,1.8159,1.8506,1.8681,1.8713,1.829,1.8895,1.9727,2.0053,2.0594,2.1236,2.1908,2.2137,2.2359,2.298,2.3492,2.4137,0.0,0.0,0.0,0.0,0.0,0.0,0.0,0.0,0.0,0.0,0.0,0.0,0.0,3.1051,3.1189,0.0,0.0,0.0,0.0,0.0,0.0,3.1551,3.1559,3.1706,3.1975,0.0,3.1852,3.1975,3.1852,3.1455,3.0869,3.1507,3.1273,3.0415,3.0695,3.0625,3.0335,3.0017,3.0032,3.0324,3.1526,3.287,3.4101,3.4101,3.4101,3.4311,0.0,0.0,0.0,0.0,0.0,1.1077,1.1919,1.3531,1.4939,1.5677,1.6483,1.713,1.7206,1.6963,1.6722,1.6645,1.614,0.0,0.0,0.0,0.0,1.445,1.384,1.3492,1.3492,1.4163,1.4201,0.0,1.4949,1.569,1.6005,0.0,0.0,0.0,0.0,0.0,2.3386,2.4535,0.0,2.5893,2.6582,2.6499,2.5982,2.5855,2.5022,2.381,2.2672,2.1622,2.0617,1.9989,1.9443,1.8934,1.8495,1.8228,1.805,1.7623,1.7867,1.8345,1.8678,1.8586,1.8665,1.9692,2.0147,2.0523,2.1224,2.18,2.2359,2.298,2.3207,2.3492,2.4337,0.0,0.0,0.0,0.0,0.0,0.0,0.0,0.0,0.0,0.0,0.0,0.0,0.0,0.0,0.0,0.0,0.0,0.0,0.0,0.0,0.0,3.1517,0.0,0.0,0.0,3.2167,3.2958,3.2167,3.1731,3.161,3.1731,3.1694,3.1482,3.0993,3.0764,3.0683,3.0146,3.0571,3.1656,3.1898,3.287,3.4101,3.4101,3.4101,3.4311,0.0,0.0,0.0,0.0,0.0,0.0,0.0,1.5407,0.0,1.6437,1.6446,1.6525,1.6744,1.7017,1.6934,1.6406,1.5914,1.5762,1.6154,1.4807,1.4417,1.536,1.4173,0.0,1.4625,1.4929,1.4856,1.4617,1.5656,1.6218,1.6298,0.0,0.0,0.0,0.0,2.2212,0.0,0.0,0.0,2.5964,2.6582,2.6403,2.576,2.5423,2.4713,2.3757,2.2632,2.1739,2.0888,2.0066,1.9633,1.9403,1.9141,1.8994,1.8771,1.836,1.8317,1.8464,1.846,1.8279,1.8322,1.924,1.9621,2.0005,2.0962,2.1524,2.1983,2.2531,2.2859,2.3297,2.3883,2.4461,0.0,0.0,0.0,0.0,0.0,0.0,0.0,0.0,0.0,0.0,0.0,0.0,0.0,0.0,0.0,0.0,0.0,0.0,0.0,0.0,0.0,0.0,0.0,0.0,0.0,3.2466,3.2009,3.1649,3.1322,3.1647,3.1649,3.1304,3.1147,3.0965,3.0781,3.0539,3.104,3.2044,3.2417,3.3194,3.4101,3.4101,3.4586,3.5347,0.0,0.9115,0.0,0.0,1.3055,0.0,1.5163,1.6862,1.7888,1.7366,1.6525,1.6216,1.665,1.7175,1.7133,1.6248,1.5744,1.5718,1.6201,1.4909,1.4764,1.63,1.482,1.4553,1.5737,1.5745,1.5745,0.0,1.6524,1.6872,0.0,0.0,0.0,0.0,0.0,0.0,0.0,0.0,2.5425,2.6111,2.6462,2.6184,2.5517,2.4878,2.424,2.3588,2.2555,2.1882,2.1259,2.0284,1.9888,1.9798,1.9798,1.9685,1.9539,1.9083,1.8917,1.8674,1.8239,1.8084,1.823,1.8788,1.9165,1.9651,2.0629,2.1117,2.1524,2.1945,2.2567,2.3081,2.3345,2.4096,0.0,0.0,0.0,0.0,0.0,0.0,0.0,0.0,0.0,0.0,0.0,0.0,0.0,0.0,0.0,0.0,0.0,0.0,0.0,0.0,0.0,3.1977,3.2357,0.0,3.1906,3.2098,3.1942,3.16,3.115,3.1688,3.1618,3.1168,3.1288,3.1123,3.0692,3.1078,3.1524,3.2077,3.2805,3.3501,3.4101,3.4101,3.4926,3.6092,0.0,0.0,0.0,0.0,0.0,0.0,1.6716,1.7644,1.8383,1.8721,1.7991,1.7668,1.8373,1.7752,1.6984,1.6316,1.6639,1.6759,1.6641,1.6188,1.6242,1.6789,1.6,1.5666,1.593,1.6315,1.6385,0.0,1.7148,1.7423,0.0,0.0,0.0,0.0,0.0,0.0,0.0,2.4881,2.5632,2.6669,2.6126,2.5487,2.4814,2.4225,2.3554,2.2929,2.2417,2.1848,2.1318,2.0706,2.0168,1.9722,1.9265,1.9327,1.9399,1.8472,1.8499,1.8674,1.8239,1.8084,1.8096,1.8196,1.8797,1.9406,1.9557,2.0544,2.1416,2.1464,2.2165,2.2714,2.2531,2.2921,2.3219,0.0,0.0,0.0,0.0,0.0,0.0,0.0,0.0,0.0,0.0,2.7058,0.0,0.0,0.0,0.0,0.0,0.0,0.0,3.2502,0.0,3.3162,3.414,3.2602,3.2239,3.3045,3.2403,3.2038,3.2004,3.2162,3.2162,3.1968,3.1714,3.1106,3.045,3.178,3.2194,3.2077,3.2805,3.3501,3.4101,3.4101,3.4603,3.538,0.0,0.0,0.0,0.0,0.0,0.0,0.0,2.0161,2.0664,2.083,1.9388,1.8353,1.8351,1.7677,1.6884,1.6019,1.61,1.5846,1.5156,1.5362,1.5779,1.6488,1.5905,1.6127,1.7482,1.7354,1.7364,0.0,0.0,0.0,0.0,0.0,0.0,0.0,0.0,2.3062,2.4881,2.4951,2.5701,2.6721,2.6054,2.54,2.4713,2.4138,2.3499,2.2888,2.2696,2.2072,2.1388,2.1268,2.0592,1.9798,1.9633,1.9786,1.9798,1.9,1.8951,1.901,1.8317,1.8084,1.8139,1.8259,1.8627,1.9026,1.94,2.0268,2.0995,2.1332,2.2068,2.2579,2.2115,2.2605,2.2992,0.0,0.0,0.0,0.0,0.0,0.0,0.0,0.0,0.0,0.0,0.0,0.0,0.0,0.0,0.0,0.0,0.0,0.0,3.3236,0.0,3.2513,3.3485,3.2355,3.1975,3.2342,3.2176,3.2144,3.2232,3.2197,3.2091,3.1893,3.1562,3.1123,3.07,3.1996,3.2305,3.2109,3.3259,3.3858,3.4149,3.4586,3.5218,3.5963,1.3389,0.0,1.6471,0.0,1.9265,2.0138,2.1222,2.1606,2.1671,2.1483,2.0133,1.906,1.8857,1.8043,1.7191,1.6221,1.6019,1.5631,1.4844,1.5077,1.572,1.6796,1.6107,0.0,1.8594,1.8128,1.8131,1.8674,1.8617,0.0,0.0,0.0,0.0,0.0,2.2063,2.3518,2.5007,2.5007,2.559,2.6431,2.5778,2.5125,2.4486,2.3847,2.3325,2.2902,2.2947,2.2402,2.1664,2.1664,2.1011,2.0144,2.008,2.0144,2.0182,1.956,1.949,1.9402,1.8696,1.841,1.841,1.8518,1.8625,1.8774,1.9262,1.9981,2.0779,2.1536,2.2238,2.2555,2.2209,2.2635,2.2952,2.2623,0.0,0.0,0.0,0.0,0.0,0.0,2.2683,2.3378,2.3367,0.0,0.0,0.0,0.0,0.0,0.0,0.0,0.0,0.0,0.0,0.0,0.0,3.2162,3.18,3.18,3.2037,3.2197,3.2232,3.2144,3.2123,3.2202,3.2145,3.1919,3.1698,3.2818,3.2952,3.2575,3.368,3.423,3.4489,3.4991,3.5785,3.6675,1.6971,1.8008,1.9198,2.1077,2.0892,2.0736,2.1393,2.1056,2.0501,1.9978,1.9938,2.0088,2.0445,1.9133,1.7918,1.7242,1.6886,1.6616,1.6481,1.6094,1.6554,0.0,0.0,1.7277,1.8934,1.8392,1.8424,1.9065,0.0,0.0,1.8808,0.0,2.0009,2.0824,2.1604,2.3062,2.5007,2.5007,2.5324,2.5749,2.5139,2.45,2.3833,2.3149,2.2902,2.2947,2.3037,2.2737,2.2235,2.1888,2.1461,2.0897,2.0335,2.0359,2.0382,1.9912,1.9914,1.9893,1.9522,1.921,1.8987,1.8987,1.8893,1.8798,1.881,1.9742,2.0969,2.2128,2.2543,2.2739,2.2848,2.3017,2.3078,2.3065,0.0,0.0,0.0,0.0,0.0,0.0,2.3336,2.3546,2.223,0.0,0.0,0.0,0.0,0.0,0.0,0.0,0.0,3.1909,3.2474,0.0,3.2904,3.2162,3.18,3.18,3.2126,3.2232,3.2108,3.2108,3.249,3.3221,3.3792,3.3882,3.3641,3.4723,3.4542,3.3623,3.3958,3.4538,3.5169,3.5185,3.6076,3.7307,1.82,1.9748,2.0969,2.1539,2.3176,2.3937,2.233,2.2706,2.271,2.1565,2.1111,2.0741,2.0387,1.8835,1.7591,0.0,1.6628,1.6067,0.0,1.5729,1.6446,1.7373,1.7368,1.7878,1.9165,1.9008,1.8828,1.8599,0.0,0.0,0.0,1.9879,2.0643,2.1049,2.2187,2.3124,2.3784,2.4175,2.4431,2.4619,2.4312,2.408,2.3818,2.3285,2.3037,2.3037,2.3201,2.2904,2.242,2.2434,2.1855,2.1135,2.1033,2.0795,2.0432,2.0064,1.9965,1.9965,1.971,1.9331,1.9097,1.9344,1.9105,1.8798,1.8946,1.9817,2.0945,2.214,2.2555,2.2739,2.2848,2.3017,2.3078,2.3078,2.2673,0.0,0.0,0.0,0.0,0.0,2.1544,2.1746,0.0,2.3421,0.0,0.0,0.0,0.0,0.0,0.0,0.0,0.0,3.2156,0.0,3.2904,3.2162,3.18,3.18,3.2037,3.2144,3.2108,3.2108,3.2418,3.3035,3.3201,3.3402,3.3624,3.4219,3.4126,3.3672,3.4511,3.4975,3.5299,3.6287,3.6934,3.7388,1.9432,2.1247,2.2535,2.2612,2.3798,2.4192,2.2527,2.2975,2.2966,2.1555,2.1292,2.0965,2.0169,1.8913,0.0,1.7403,1.6817,1.621,1.5596,1.5818,1.636,1.7157,1.7237,1.7877,1.9081,1.9104,0.0,1.8803,1.8722,1.8954,1.9382,2.0247,2.098,2.1616,2.2419,2.3077,2.3603,2.3703,2.3861,2.4089,2.4036,2.3871,2.3622,2.3318,2.3171,2.3201,2.3334,2.3172,2.2889,2.2799,2.2221,2.1513,2.141,2.1091,2.0657,2.0419,2.0369,2.0367,2.039,2.0099,1.98,2.008,1.9811,1.9559,1.9858,2.0317,2.1003,2.2262,2.2678,2.28,2.2969,2.3017,2.3078,2.3078,2.2498,2.2053,2.1946,0.0,0.0,0.0,0.0,0.0,0.0,2.2514,2.385,0.0,0.0,0.0,0.0,0.0,0.0,3.1898,3.1493,0.0,3.249,3.2024,3.18,3.18,3.2223,3.2418,3.2508,3.273,3.3173,3.3766,3.3766,3.4077,3.4634,3.4709,3.4509,3.4303,3.5103,3.5486,3.5736,3.6886,3.7501,3.7792,2.0649,2.2351,0.0,0.0,2.3124,0.0,2.2041,2.2041,2.1649,2.0412,2.0778,2.0824,1.9839,1.9332,1.8831,1.823,0.0,0.0,0.0,1.638,1.6398,1.7433,1.7048,1.7431,1.8833,1.8829,1.9057,1.9526,1.891,1.9215,2.0259,2.0369,2.1113,2.2299,2.2297,2.295,2.4014,2.348,2.3561,2.4019,2.4082,2.3806,2.3319,2.3319,2.3319,2.3319,2.3451,2.3509,2.3451,2.3068,2.2603,2.2035,2.1589,2.1286,2.1028,2.1027,2.103,2.1103,2.134,2.1247,2.0981,2.1037,2.0795,2.0758,2.1357,2.1188,2.1293,2.2517,2.2848,2.2957,2.3078,2.3078,2.3078,2.3078,2.2311,2.1759,2.1895,0.0,0.0,0.0,0.0,0.0,0.0,2.172,2.2437,0.0,0.0,0.0,0.0,0.0,3.0672,3.0081,3.0526,3.1083,3.1746,3.18,3.1817,3.1886,3.2576,3.3052,3.3271,3.3827,3.449,3.5197,3.5197,3.5611,3.6259,3.5958,3.5577,3.5328,3.5678,3.6034,3.6465,3.7145,3.7825,3.8391,0.0,0.0,2.3535,2.252,2.3235,2.3296,2.1399,2.1557,2.1588,2.0756,2.0803,2.0683,2.0139,1.9985,1.9634,1.8927,1.8112,1.7626,1.7609,1.7527,1.7804,1.8452,1.8416,1.8768,1.9478,1.9482,1.9486,1.947,1.9069,1.9217,1.984,2.0486,2.0964,2.1259,2.1788,2.2146,2.2375,2.2651,2.2797,2.2939,2.3362,2.3408,2.3319,2.3407,2.3466,2.3451,2.3538,2.3566,2.3566,2.3465,2.2965,2.2374,2.2282,2.1813,2.1251,2.1055,2.1131,2.1375,2.1635,2.1356,2.1029,2.1259,2.0957,2.091,2.1994,2.2146,2.2373,2.3346,2.3577,2.3458,2.3125,2.3078,2.3078,2.3078,2.2311,2.1759,2.1895,2.1081,0.0,0.0,2.1159,2.1459,2.1315,2.2309,2.3532,0.0,0.0,0.0,0.0,2.92,2.9703,2.9422,3.0318,3.0908,3.1128,3.1562,3.2076,3.2645,3.2817,3.3252,3.3878,3.4029,3.449,3.5197,3.5197,3.5611,3.6259,3.5958,3.5881,3.605,3.6389,3.6771,3.7161,3.7873,3.8246,3.8391,2.2176,2.2855,2.3088,2.2233,2.2601,2.2586,2.1231,2.1342,2.1438,2.107,2.1023,2.0811,2.0243,2.0369,2.0106,1.9176,1.8486,1.8109,1.8126,1.8248,1.8376,1.8435,1.9015,1.9344,1.9382,1.9661,1.9843,1.9799,1.9402,1.9576,2.0346,2.0514,2.0872,2.1455,2.1504,2.1693,2.1961,2.2191,2.2404,2.2649,2.3201,2.3436,2.3436,2.3538,2.3538,2.3538,2.361,2.3653,2.3696,2.3696,2.3319,2.2815,2.2815,2.236,2.1766,2.1643,2.1575,2.1664,2.1899,2.1796,2.1594,2.1718,2.1599,2.172,2.2669,2.2991,2.3281,2.3735,2.3859,2.3767,2.3185,2.3078,2.305,2.2858,2.2204,2.1759,2.195,2.1353,0.0,2.1407,2.1707,2.1904,2.1904,2.2472,2.3393,2.4723,2.584,0.0,2.778,2.8521,2.9042,2.9196,3.0048,3.0633,3.0897,3.1812,3.2507,3.2904,3.3611,3.418,3.4594,3.4938,3.5318,3.5697,3.5697,3.5838,3.6045,3.5871,3.5891,3.6058,3.6587,3.7032,3.7404,3.8132,3.8391,3.8391,2.279,2.292,2.2817,2.2619,2.1989,2.1502,2.1471,2.139,2.1309,2.1309,2.1309,2.1071,2.0379,2.063,2.0441,1.9457,1.9078,1.8841,1.875,1.9026,1.899,1.8547,1.9551,1.9812,1.9291,1.9787,2.0105,2.0195,1.9762,2.0079,2.0989,2.0514,2.086,2.1885,2.13,2.142,2.2086,2.2,2.2292,2.2875,2.3377,2.3595,2.3595,2.3595,2.3595,2.3638,2.3638,2.3739,2.3839,2.3839,2.3595,2.326,2.326,2.286,2.2388,2.2488,2.2264,2.2055,2.2166,2.2231,2.2231,2.2231,2.2428,2.2815,2.3372,2.3873,2.4136,2.4019,2.4105,2.4002,2.3245,2.3138,2.3047,2.2673,2.2242,2.1997,2.2176,0.0,2.1719,2.2309,2.2494,2.2546,2.26,2.26,2.2959,2.3888,2.4913,2.5842,2.6701,2.781,2.8605,2.9058,2.9701,3.0327,3.0954,3.2261,3.2955,3.3093,3.4507,3.5249,3.5387,3.6008,3.6301,3.6301,3.6301,3.6131,3.5827,3.5827,3.5803,3.5909,3.6585,3.7098,3.7549,3.8165,3.8391,3.8391,2.312,2.3407,2.3617,2.3587,2.2965,2.2426,2.2345,2.1776,2.1355,2.1325,2.134,2.123,2.0828,2.091,2.0868,2.0661,2.0546,2.0337,1.9958,2.0614,2.1024,2.1034,2.1274,2.1182,2.0706,2.0359,2.018,2.023,2.0295,2.0411,2.0591,2.059,2.0731,2.0923,2.0832,2.1242,2.2079,2.2083,2.2602,2.3465,2.3551,2.3595,2.3595,2.3595,2.3653,2.3782,2.3782,2.3839,2.3982,2.3982,2.3782,2.3551,2.3551,2.3143,2.2764,2.3324,2.3197,2.2796,2.2325,2.2278,2.237,2.237,2.2885,2.3558,2.4312,2.4926,2.5251,2.4885,2.4838,2.4509,2.3305,2.3271,2.3305,2.3276,2.3013,2.2812,2.2868,0.0,2.2269,2.2387,2.2805,2.3204,2.3495,2.3495,2.397,2.5135,2.555,2.6112,2.6975,2.7925,2.8444,2.8525,2.9287,3.0175,3.124,3.2355,3.3231,3.3904,3.4783,3.5525,3.6128,3.6249,3.6301,3.6301,3.6301,3.6131,3.5827,3.5827,3.6122,3.6617,3.6783,3.7408,3.8246,3.8359,3.8391,3.8391,2.3468,2.3439,2.3424,2.3752,2.3293,2.2981,2.3178,2.2557,2.2099,2.2068,2.2099,2.1794,2.1023,2.1537,2.166,2.0953,2.1774,2.2079,2.1483,2.1706,2.1777,2.1612,2.1921,2.1801,2.1141,2.0893,2.0636,2.0458,2.0536,2.0638,2.0625,2.0947,2.1082,2.1082,2.1348,2.1704,2.2138,2.2387,2.2808,2.3273,2.348,2.3653,2.3696,2.3696,2.3797,2.3925,2.3925,2.3982,2.4124,2.4124,2.4295,2.4541,2.4541,2.4283,2.4119,2.444,2.3837,2.309,2.2842,2.2625,2.2502,2.2875,2.3588,2.4345,2.5027,2.5763,2.6074,2.5591,2.5245,2.4724,2.3884,2.3556,2.3361,2.3231,2.3064,0.0,0.0,2.2932,2.2949,2.3289,2.355,2.3809,2.408,2.4136,2.4482,2.5425,2.5973,2.6528,2.7056,2.7925,2.8541,2.8763,2.9512,3.0525,3.1873,3.2973,3.3921,3.4697,3.5439,3.5973,3.6301,3.6301,3.6301,3.6318,3.6749,3.6618,3.6093,3.6481,3.6837,3.7073,3.7073,3.7617,3.8391,3.8391,3.8391,3.8391,2.3737,2.3654,2.3555,2.4016,2.3786,2.3687,2.4032,2.344,2.2965,2.2965,2.2965,2.2638,2.1763,2.2459,2.2618,2.1686,2.2907,2.3514,2.2945,2.284,2.2539,2.2091,2.2395,2.2304,2.1588,2.1381,2.1096,2.0878,2.0858,2.0868,2.0858,2.1348,2.1541,2.1602,2.1955,2.217,2.232,2.2752,2.2989,2.3163,2.3481,2.3726,2.3842,2.3839,2.394,2.404,2.404,2.4124,2.4208,2.4208,2.4679,2.5275,2.5188,2.5183,2.5283,2.5286,2.4494,2.3653,2.3609,2.3274,2.3065,2.3645,2.4359,2.5063,2.5524,2.6249,2.6621,2.6002,2.5536,2.5119,2.4624,2.4176,2.3813,2.3428,0.0,0.0,0.0,2.342,2.3589,2.406,2.4112,2.4216,2.458,2.4637,2.4878,2.5536,2.6244,2.6797,2.7071,2.8061,2.8854,2.9421,3.0064,3.0957,3.2181,3.3539,3.449,3.5057,3.5897,3.6301,3.6301,3.6301,3.6301,3.6335,3.6939,3.6887,3.6332,3.6932,3.7215,3.7323,3.7323,3.776,3.8391,3.8391,3.8391,3.8391,2.3851,2.4497,2.4943,2.4993,2.496,2.496,2.4906,2.428,2.3786,2.3719,2.3786,2.3786,2.3687,2.3836,2.3814,2.3601,2.4111,2.435,2.4194,2.4158,2.3933,2.3477,2.3081,2.2848,2.2761,2.1842,2.1366,2.1352,2.1335,2.1376,2.1383,2.1819,2.2035,2.2035,2.2081,2.2369,2.2848,2.2892,2.3214,2.3729,2.3758,2.3889,2.3978,2.3997,2.4067,2.417,2.4197,2.425,2.4302,2.4302,2.4748,2.5231,2.4865,2.5046,2.542,2.5581,2.5437,2.5089,2.4555,2.4482,2.4552,2.4595,2.517,2.5734,2.5778,2.63,2.6621,2.6002,2.5974,2.5837,2.5231,2.5287,2.5273,2.467,0.0,0.0,2.4105,2.4047,2.406,2.4112,2.4112,2.4345,2.4892,2.4948,2.523,2.5839,2.6258,2.6707,2.7071,2.842,2.9537,3.0463,3.1038,3.1374,3.1483,3.3515,3.4602,3.467,3.5796,3.6301,3.6301,3.6301,3.6301,3.6301,3.6353,3.6331,3.6298,3.6348,3.6769,3.7323,3.7323,3.776,3.8391,3.8391,3.8391,3.8391,2.3868,2.3984,2.4298,2.5229,2.4613,2.4431,2.5832,2.5246,2.4628,2.4595,2.4628,2.448,2.4017,2.4381,2.4558,2.4269,2.4798,2.5002,2.4704,2.4451,2.4094,2.3595,2.3419,2.3198,2.2891,2.2538,2.2175,2.183,2.1839,2.1815,2.1866,2.2433,2.2733,2.2733,2.3094,2.3408,2.358,2.3591,2.3704,2.3933,2.3909,2.3997,2.4139,2.4109,2.4208,2.425,2.425,2.4276,2.4364,2.4795,2.5466,2.6158,2.6138,2.6669,2.7215,2.6817,2.6396,2.6069,2.5957,2.5337,2.4817,2.5243,2.5618,2.5894,2.6315,2.6605,2.6779,2.6621,2.6312,2.6068,2.6014,2.5783,2.5563,2.5398,0.0,2.4892,2.4677,2.4345,2.4112,2.4112,2.4274,2.4536,2.4948,2.5188,2.5578,2.6204,2.6654,2.7086,2.7509,2.8996,3.0257,3.1198,3.2012,3.2338,3.2088,3.3556,3.4665,3.5341,3.5761,3.6088,3.6301,3.6301,3.6301,3.6353,3.7038,3.7191,3.705,3.7718,3.7958,3.7987,3.7987,3.8149,3.8391,3.8391,3.8391,3.8391,2.3646,2.3744,2.412,2.5499,2.5067,2.5039,2.6488,2.6084,2.5562,2.5458,2.5458,2.5259,2.4746,2.5143,2.525,2.4843,2.5371,2.5535,2.5137,2.4719,2.423,2.3638,2.3595,2.3462,2.3111,2.2978,2.2741,2.2415,2.2394,2.2418,2.2451,2.3086,2.3402,2.3387,2.3805,2.4003,2.4016,2.3994,2.4002,2.4039,2.4059,2.4131,2.423,2.4234,2.4276,2.4302,2.4302,2.4343,2.4493,2.5172,2.6025,2.6842,2.7103,2.7605,2.8012,2.75,2.7019,2.6645,2.6779,2.6155,2.5524,2.6046,2.6148,2.6265,2.6782,2.6884,2.6884,2.7055,2.675,2.6563,2.6736,2.6496,2.6215,2.6122,2.5742,2.5384,2.5061,2.4721,2.4434,2.4274,2.4478,2.4765,2.5131,2.5383,2.5757,2.6457,2.6948,2.7713,2.8783,3.0117,3.118,3.1902,3.2869,3.3193,3.2679,3.3756,3.4739,3.5588,3.5722,3.5898,3.6174,3.6517,3.662,3.6543,3.7575,3.7877,3.777,3.8424,3.8553,3.8391,3.8391,3.8391,3.8391,3.8391,3.8391,3.8391,2.3265,2.3994,2.4832,2.5906,2.6695,2.7085,2.6758,2.6691,2.6572,2.6239,2.622,2.622,2.622,2.622,2.6026,2.5556,2.5937,2.599,2.554,2.5121,2.4502,2.3638,2.3595,2.3595,2.3595,2.3169,2.2966,2.312,2.3098,2.3113,2.3209,2.3748,2.4008,2.3993,2.4,2.3991,2.3994,2.3994,2.4081,2.4199,2.4199,2.423,2.4302,2.4302,2.4302,2.4302,2.4302,2.4441,2.4739,2.5483,2.6282,2.7087,2.7423,2.7415,2.7348,2.7464,2.7203,2.6794,2.6779,2.6899,2.7018,2.7003,2.6899,2.6884,2.713,2.7093,2.7055,2.7181,2.7284,2.7401,2.7401,2.7539,2.7408,2.6774,2.6683,2.6297,2.5174,2.5258,2.5175,2.4567,2.4821,2.5131,2.5494,2.5508,2.5812,2.6472,2.7155,2.8601,3.1075,3.1925,3.2419,3.2588,3.3579,3.3777,3.3097,3.4153,3.4883,3.5224,3.5588,3.5827,3.5844,3.6981,3.7281,3.6951,3.7657,3.8164,3.8472,3.8077,3.8112,3.8391,3.8391,3.8391,3.8391,3.8391,3.8391,3.8391,2.3618,2.4299,2.519,2.6243,2.6247,2.6309,2.6935,2.664,2.6293,2.6203,2.622,2.622,2.622,2.622,2.6132,2.599,2.6132,2.5934,2.5269,2.513,2.4679,2.3925,2.3797,2.3739,2.3739,2.3724,2.3684,2.3733,2.3736,2.3746,2.3784,2.404,2.4166,2.4166,2.4193,2.4204,2.4214,2.4214,2.423,2.4287,2.4287,2.4302,2.4302,2.4302,2.4385,2.4508,2.4508,2.4983,2.5664,2.6383,2.7264,2.8168,2.8942,2.8372,2.75,2.7947,2.7874,2.7521,2.7068,2.7378,2.7703,2.712,2.7041,2.7078,2.7181,2.7181,2.7196,2.7284,2.735,2.7452,2.7539,2.7575,2.7524,2.7357,2.6997,2.6616,2.6375,2.604,2.5809,2.57,2.5986,2.6215,2.6336,2.6982,2.7579,2.8107,2.8982,3.025,3.1878,3.2199,3.2743,3.3611,3.3937,3.4003,3.3793,3.4399,3.4883,3.5224,3.5316,3.5633,3.6148,3.6816,3.6979,3.691,3.7896,3.8237,3.8127,3.8281,3.8421,3.8408,3.8504,3.8448,3.8391,3.8391,3.8391,3.8391,2.4916,2.538,2.6051,2.711,2.6935,2.6814,2.722,2.6906,2.6538,2.6345,2.631,2.631,2.631,2.631,2.631,2.631,2.631,2.6079,2.5454,2.5246,2.4855,2.4261,2.4067,2.394,2.3882,2.3955,2.4016,2.4064,2.4063,2.4096,2.4112,2.4199,2.423,2.423,2.4302,2.4302,2.4302,2.4302,2.4302,2.4302,2.4302,2.4343,2.4426,2.4426,2.4549,2.4798,2.5064,2.5548,2.6259,2.7243,2.8227,2.9134,2.9729,2.8982,2.8008,2.8627,2.8423,2.7974,2.7577,2.7859,2.8098,2.7373,2.7196,2.7233,2.7321,2.7528,2.7647,2.7497,2.7697,2.7891,2.7979,2.7754,2.779,2.8278,2.7921,2.7571,2.7686,2.7321,2.6987,2.6827,2.707,2.7193,2.6878,2.7909,2.8842,2.9539,3.0462,3.142,3.2489,3.2728,3.3211,3.3933,3.405,3.4101,3.4101,3.4497,3.4919,3.5407,3.5407,3.5793,3.653,3.7369,3.7567,3.7282,3.8439,3.87,3.8344,3.8547,3.8504,3.8391,3.8616,3.856,3.8408,3.8448,3.8464,3.8391,2.6695,2.689,2.7228,2.8228,2.8327,2.8073,2.7487,2.7317,2.71,2.6589,2.6485,2.6485,2.6485,2.6485,2.6485,2.6485,2.6485,2.6329,2.5917,2.5476,2.5036,2.4614,2.4359,2.4166,2.4024,2.4036,2.4067,2.4216,2.4234,2.423,2.4302,2.4302,2.4302,2.4302,2.4302,2.4302,2.4302,2.4302,2.4302,2.4343,2.4343,2.4467,2.463,2.4692,2.4885,2.5195,2.5891,2.6284,2.6727,2.8057,2.9162,2.9918,2.9918,2.9369,2.8805,2.9363,2.9021,2.8432,2.8216,2.8396,2.8472,2.772,2.7469,2.7469,2.7554,2.8047,2.8308,2.7784,2.8203,2.8682,2.8682,2.8173,2.821,2.9439,2.9215,2.8899,2.902,2.8836,2.8517,2.7993,2.8198,2.8136,2.7462,2.861,2.9854,3.0845,3.1543,3.2195,3.292,3.3398,3.3726,3.3841,3.4097,3.423,3.4295,3.4644,3.512,3.5679,3.5679,3.6124,3.69,3.8337,3.8606,3.7972,3.9068,3.9365,3.8969,3.8727,3.856,3.8448,3.8694,3.8655,3.8448,3.856,3.8504,3.8391,2.7097,2.7609,2.8111,2.8362,2.8156,2.784,2.7439,2.7161,2.6856,2.6537,2.6485,2.6485,2.6485,2.6485,2.6485,2.6485,2.6485,2.6329,2.599,2.5589,2.5176,2.4839,2.4492,2.4276,2.4234,2.4219,2.4276,2.4291,2.4261,2.4302,2.4302,2.4302,2.4302,2.4302,2.4302,2.4302,2.4302,2.4302,2.4385,2.4549,2.4549,2.467,2.4989,2.5485,2.5853,2.6118,2.6837,2.7586,2.8327,2.865,2.9318,3.0049,3.0049,3.0176,3.023,2.984,3.0125,3.0107,2.8114,2.9132,3.0342,2.8719,2.8719,2.8823,2.7814,2.8098,2.8495,2.8412,2.8906,2.937,2.937,2.925,2.9289,2.9666,2.9644,2.9652,2.9894,2.9894,2.9855,2.9803,2.987,2.9877,2.9724,3.0426,3.1228,3.2026,3.2431,3.2833,3.3187,3.3503,3.4053,3.4823,3.4943,3.5234,3.5817,3.5938,3.585,3.5679,3.5679,3.6274,3.727,3.7884,3.8044,3.7953,3.8874,3.9061,3.8672,3.8766,3.875,3.8694,3.8655,3.8616,3.8576,3.8448,3.8391,3.8391,2.7879,2.8222,2.8502,2.8502,2.8317,2.8055,2.7607,2.7365,2.7083,2.6657,2.6589,2.6589,2.6589,2.6589,2.6589,2.6589,2.6589,2.6435,2.6049,2.5852,2.5589,2.5226,2.533,2.5415,2.5378,2.5524,2.5211,2.4302,2.4302,2.4302,2.4302,2.4302,2.4302,2.4302,2.4385,2.4426,2.4467,2.4589,2.467,2.4791,2.4791,2.4926,2.5171,2.5536,2.6007,2.6575,2.7283,2.8343,2.9377,2.9377,2.9723,3.0162,3.0162,3.0419,3.0735,3.0719,3.1013,3.0976,2.9674,3.0107,3.0652,2.9417,2.9325,2.94,2.8697,2.9041,2.9415,2.9131,2.9579,3.0028,3.0028,2.9828,2.9937,3.0624,3.0567,3.0624,3.1106,3.0914,3.0821,3.0874,3.0889,3.1012,3.1336,3.1674,3.2151,3.2829,3.3606,3.414,3.4304,3.4734,3.5174,3.5704,3.572,3.5914,3.6303,3.6303,3.636,3.6473,3.6473,3.697,3.7903,3.8266,3.8323,3.8264,3.895,3.9007,3.8711,3.875,3.8805,3.8805,3.8711,3.8711,3.8655,3.856,3.8448,3.8408,2.8587,2.8587,2.8587,2.8587,2.8562,2.8362,2.7858,2.7683,2.7413,2.6858,2.6725,2.6691,2.6691,2.6691,2.6691,2.6691,2.681,2.6673,2.621,2.6372,2.6303,2.5792,2.6442,2.6758,2.6582,2.6936,2.6318,2.4596,2.4508,2.4421,2.4343,2.4343,2.4385,2.4441,2.4589,2.467,2.467,2.4926,2.5005,2.5045,2.5045,2.5162,2.5365,2.5644,2.6172,2.6976,2.7786,2.8923,3.0017,3.0017,3.0266,3.0609,3.0609,3.0929,3.1354,3.179,3.1823,3.165,3.1327,3.1043,3.0633,2.9948,2.9819,2.9909,2.9909,3.0223,3.0357,2.9849,3.0253,3.0743,3.0743,3.0418,3.0528,3.166,3.1582,3.1549,3.217,3.1866,3.1551,3.1551,3.1551,3.1828,3.2505,3.2567,3.2844,3.3537,3.4695,3.5394,3.5394,3.5963,3.6367,3.6481,3.6481,3.6546,3.6659,3.6659,3.695,3.7501,3.7501,3.7825,3.8391,3.8766,3.8766,3.8576,3.8952,3.9007,3.8805,3.875,3.8805,3.886,3.875,3.875,3.8805,3.8655,3.8504,3.8391,2.8587,2.8587,2.8587,2.8587,2.8587,2.8448,2.8102,2.784,2.7535,2.7181,2.6891,2.6691,2.6691,2.6691,2.6691,2.6691,2.7283,2.735,2.6657,2.7551,2.7744,2.7003,2.7392,2.7308,2.6614,2.7105,2.6837,2.5778,2.5368,2.4947,2.4549,2.4583,2.4664,2.4926,2.4926,2.4926,2.4966,2.4966,2.51,2.5256,2.5256,2.5371,2.5707,2.692,2.7437,2.7737,2.9166,2.9897,3.0146,3.0146,3.1128,3.227,3.227,3.2896,3.355,3.3048,3.2926,3.2578,3.099,3.1336,3.187,3.0648,3.0821,3.127,3.127,3.0866,3.0477,3.0402,3.1054,3.1649,3.1649,3.1687,3.1769,3.212,3.2114,3.2139,3.2327,3.2321,3.2259,3.2259,3.2259,3.2521,3.3198,3.326,3.3567,3.4275,3.4992,3.5394,3.5394,3.5963,3.6578,3.7161,3.7177,3.7485,3.8116,3.8116,3.8165,3.8262,3.8262,3.8311,3.8391,3.8448,3.8448,3.8448,3.8616,3.8711,3.8805,3.8655,3.8892,3.9164,3.8672,3.8655,3.8969,3.8805,3.86,3.8391,2.8587,2.8587,2.8587,2.8587,2.8587,2.844,2.7954,2.7771,2.7504,2.6989,2.6791,2.6691,2.6691,2.6691,2.6691,2.6691,2.6996,2.7232,2.7317,2.7853,2.8,2.7662,2.8682,2.8887,2.808,2.8706,2.8641,2.7842,2.6812,2.5989,2.5372,2.5381,2.5438,2.5535,2.5259,2.5178,2.5162,2.5294,2.5371,2.548,2.5938,2.6138,2.6328,2.7412,2.8046,2.8549,2.9701,3.0451,3.0942,3.0942,3.172,3.2668,3.2668,3.3241,3.3873,3.3592,3.337,3.3003,3.2181,3.1905,3.1777,3.1207,3.13,3.1539,3.167,3.1429,3.1219,3.1219,3.1516,3.1841,3.1898,3.2053,3.215,3.2191,3.2247,3.2342,3.2398,3.2398,3.2398,3.2398,3.2721,3.3075,3.3367,3.4106,3.4691,3.5014,3.5947,3.6516,3.6516,3.7118,3.7614,3.7922,3.7922,3.8068,3.8391,3.8391,3.8391,3.8391,3.8391,3.8391,3.8391,3.8391,3.8448,3.8504,3.8655,3.8821,3.8914,3.8766,3.8931,3.9218,3.8616,3.8504,3.8711,3.8985,3.8766,3.8448]},{"header":{"parameterUnit":"m.s-1","parameterCategory":1,"la1":30.6,"la2":28.766,"lo1":-90.7593,"lo2":-88.6598,"dy":0.0162,"dx":0.0183,"nx":116,"ny":114,"refTime":"2024-04-03T00:00:00:Z","depth":0,"parameterNumber":3,"parameterNumberName":"V-component_of_WINDS"},"data":[0.0,0.0,0.0,0.0,0.0,0.0,0.0,0.0,0.0,0.0,0.0,0.0,0.0,0.0,0.0,0.0,0.0,0.0,0.0,0.0,0.0,0.0,0.0,0.0,0.0,0.0,0.0,0.0,0.0,0.0,0.0,0.0,0.0,0.0,0.0,0.0,0.0,0.0,0.0,0.0,0.0,0.0,0.0,0.0,0.0,0.0,0.0,0.0,0.0,0.0,0.0,0.0,0.0,0.0,0.0,0.0,0.0,0.0,0.0,0.0,0.0,0.0,0.0,0.0,0.0,0.0,0.0,0.0,0.0,0.0,0.0,0.0,0.0,0.0,0.0,0.0,0.0,0.0,0.0,0.0,0.0,0.0,0.0,0.0,0.0,0.0,0.0,0.0,0.0,0.0,0.0,0.0,0.0,0.0,0.0,0.0,0.0,0.0,0.0,0.0,0.0,0.0,0.0,0.0,0.0,0.0,0.0,0.0,0.0,0.0,0.0,0.0,0.0,0.0,0.0,0.0,0.0,0.0,0.0,0.0,0.0,0.0,0.0,0.0,0.0,0.0,0.0,0.0,0.0,0.0,0.0,0.0,0.0,0.0,0.0,0.0,0.0,0.0,0.0,0.0,0.0,0.0,0.0,0.0,0.0,0.0,0.0,0.0,0.0,0.0,0.0,0.0,0.0,0.0,0.0,0.0,0.0,0.0,0.0,0.0,0.0,0.0,0.0,0.0,0.0,0.0,0.0,0.0,0.0,0.0,0.0,0.0,0.0,0.0,0.0,0.0,0.0,0.0,0.0,0.0,0.0,0.0,0.0,0.0,0.0,0.0,0.0,0.0,0.0,0.0,0.0,0.0,0.0,0.0,0.0,0.0,0.0,0.0,0.0,0.0,0.0,0.0,0.0,0.0,0.0,0.0,0.0,0.0,0.0,0.0,0.0,0.0,0.0,0.0,0.0,0.0,0.0,0.0,0.0,0.0,0.0,0.0,0.0,0.0,0.0,0.0,0.0,0.0,0.0,0.0,0.0,0.0,0.0,0.0,0.0,0.0,0.0,0.0,0.0,0.0,0.0,0.0,0.0,0.0,0.0,0.0,0.0,0.0,0.0,0.0,0.0,0.0,0.0,0.0,0.0,0.0,0.0,0.0,0.0,0.0,0.0,0.0,0.0,0.0,0.0,0.0,0.0,0.0,0.0,0.0,0.0,0.0,0.0,0.0,0.0,0.0,0.0,0.0,0.0,0.0,0.0,0.0,0.0,0.0,0.0,0.0,0.0,0.0,0.0,0.0,0.0,0.0,0.0,0.0,0.0,0.0,0.0,0.0,0.0,0.0,0.0,0.0,0.0,0.0,0.0,0.0,0.0,0.0,0.0,0.0,0.0,0.0,0.0,0.0,0.0,0.0,0.0,0.0,0.0,0.0,0.0,0.0,0.0,0.0,0.0,0.0,0.0,0.0,0.0,0.0,0.0,0.0,0.0,0.0,0.0,0.0,0.0,0.0,0.0,0.0,0.0,0.0,0.0,0.0,0.0,0.0,0.0,0.0,0.0,0.0,0.0,0.0,0.0,0.0,0.0,0.0,0.0,0.0,0.0,0.0,0.0,0.0,0.0,0.0,0.0,0.0,0.0,0.0,0.0,0.0,0.0,0.0,0.0,0.0,0.0,0.0,0.0,0.0,0.0,0.0,0.0,0.0,0.0,0.0,0.0,0.0,0.0,0.0,0.0,0.0,0.0,0.0,0.0,0.0,0.0,0.0,0.0,0.0,0.0,0.0,0.0,0.0,0.0,0.0,0.0,0.0,0.0,0.0,0.0,0.0,0.0,0.0,0.0,0.0,0.0,0.0,0.0,0.0,0.0,0.0,0.0,0.0,0.0,0.0,0.0,0.0,0.0,0.0,0.0,0.0,0.0,0.0,0.0,0.0,0.0,0.0,0.0,0.0,0.0,0.0,0.0,0.0,0.0,0.0,0.0,0.0,0.0,0.0,0.0,0.0,0.0,0.0,0.0,0.0,0.0,0.0,0.0,0.0,0.0,0.0,0.0,0.0,0.0,0.0,0.0,0.0,0.0,0.0,0.0,0.0,0.0,0.0,0.0,0.0,0.0,0.0,0.0,0.0,0.0,0.0,0.0,0.0,0.0,0.0,0.0,0.0,0.0,0.0,0.0,0.0,0.0,0.0,0.0,0.0,0.0,0.0,0.0,0.0,0.0,0.0,0.0,0.0,0.0,0.0,0.0,0.0,0.0,0.0,0.0,0.0,0.0,0.0,0.0,0.0,0.0,0.0,0.0,0.0,0.0,0.0,0.0,0.0,0.0,0.0,0.0,0.0,0.0,0.0,0.0,0.0,0.0,0.0,0.0,0.0,0.0,0.0,0.0,0.0,0.0,0.0,0.0,0.0,0.0,0.0,0.0,0.0,0.0,0.0,0.0,0.0,0.0,0.0,0.0,0.0,0.0,0.0,0.0,0.0,0.0,0.0,0.0,0.0,0.0,0.0,0.0,0.0,0.0,0.0,0.0,0.0,0.0,0.0,0.0,0.0,0.0,0.0,0.0,0.0,0.0,0.0,0.0,0.0,0.0,0.0,0.0,0.0,0.0,0.0,0.0,0.0,0.0,0.0,0.0,0.0,0.0,0.0,0.0,0.0,0.0,0.0,0.0,0.0,0.0,0.0,0.0,0.0,0.0,0.0,0.0,0.0,0.0,0.0,0.0,0.0,0.0,0.0,0.0,0.0,0.0,0.0,0.0,0.0,0.0,0.0,0.0,0.0,0.0,0.0,0.0,0.0,0.0,0.0,0.0,0.0,0.0,0.0,0.0,0.0,0.0,0.0,0.0,0.0,0.0,0.0,0.0,0.0,0.0,0.0,0.0,0.0,0.0,0.0,0.0,0.0,0.0,0.0,0.0,0.0,0.0,0.0,0.0,0.0,0.0,0.0,0.0,0.0,0.0,0.0,0.0,0.0,0.0,0.0,0.0,0.0,0.0,0.0,0.0,0.0,0.0,0.0,0.0,0.0,0.0,0.0,0.0,0.0,0.0,0.0,0.0,0.0,0.0,0.0,0.0,0.0,0.0,0.0,0.0,0.0,0.0,0.0,0.0,0.0,0.0,0.0,0.0,0.0,0.0,0.0,0.0,0.0,0.0,0.0,0.0,0.0,0.0,0.0,0.0,0.0,0.0,0.0,0.0,0.0,0.0,0.0,0.0,0.0,0.0,0.0,0.0,0.0,0.0,0.0,0.0,0.0,0.0,0.0,0.0,0.0,0.0,0.0,0.0,0.0,0.0,0.0,0.0,0.0,0.0,0.0,0.0,0.0,0.0,0.0,0.0,0.0,0.0,0.0,0.0,0.0,0.0,0.0,0.0,0.0,0.0,0.0,0.0,0.0,0.0,0.0,0.0,0.0,0.0,0.0,0.0,0.0,0.0,0.0,0.0,0.0,0.0,0.0,0.0,0.0,0.0,0.0,0.0,0.0,0.0,0.0,0.0,0.0,0.0,0.0,0.0,0.0,0.0,0.0,0.0,0.0,0.0,0.0,0.0,0.0,0.0,0.0,0.0,0.0,0.0,0.0,0.0,0.0,0.0,0.0,0.0,0.0,0.0,0.0,0.0,0.0,0.0,0.0,0.0,0.0,0.0,0.0,0.0,0.0,0.0,0.0,0.0,0.0,0.0,0.0,0.0,0.0,0.0,0.0,0.0,0.0,0.0,0.0,0.0,0.0,0.0,0.0,0.0,0.0,0.0,0.0,0.0,0.0,0.0,0.0,0.0,0.0,0.0,0.0,0.0,0.0,0.0,0.0,0.0,0.0,0.0,0.0,0.0,0.0,0.0,0.0,0.0,0.0,0.0,0.0,0.0,0.0,0.0,0.0,0.0,0.0,0.0,0.0,0.0,0.0,0.0,0.0,0.0,0.0,0.0,0.0,0.0,0.0,0.0,0.0,0.0,0.0,0.0,0.0,0.0,0.0,0.0,0.0,0.0,0.0,0.0,0.0,0.0,0.0,0.0,0.0,0.0,0.0,0.0,0.0,0.0,0.0,0.0,0.0,0.0,0.0,0.0,0.0,0.0,0.0,0.0,0.0,0.0,0.0,0.0,0.0,0.0,0.0,0.0,0.0,0.0,0.0,0.0,0.0,0.0,0.0,0.0,0.0,0.0,0.0,0.0,0.0,0.0,0.0,0.0,0.0,0.0,0.0,0.0,0.0,0.0,0.0,0.0,0.0,0.0,0.0,0.0,0.0,0.0,0.0,0.0,0.0,0.0,0.0,0.0,0.0,0.0,0.0,0.0,0.0,0.0,0.0,0.0,0.0,0.0,0.0,0.0,0.0,0.0,0.0,0.0,0.0,0.0,0.0,0.0,0.0,0.0,0.0,0.0,0.0,0.0,0.0,0.0,0.0,0.0,0.0,0.0,0.0,0.0,0.0,0.0,0.0,0.0,0.0,0.0,0.0,0.0,0.0,0.0,0.0,0.0,0.0,0.0,0.0,0.0,0.0,0.0,0.0,0.0,0.0,0.0,0.0,0.0,0.0,0.0,0.0,0.0,0.0,0.0,0.0,0.0,0.0,0.0,0.0,0.0,0.0,0.0,0.0,0.0,0.0,0.0,0.0,0.0,0.0,0.0,0.0,0.0,0.0,0.0,0.0,0.0,0.0,0.0,0.0,0.0,0.0,0.0,0.0,0.0,0.0,0.0,0.0,0.0,0.0,0.0,0.0,0.0,0.0,0.0,0.0,0.0,0.0,0.0,0.0,0.0,0.0,0.0,0.0,0.0,0.0,0.0,0.0,0.0,0.0,0.0,0.0,0.0,0.0,0.0,0.0,0.0,0.0,0.0,0.0,0.0,0.0,0.0,0.0,0.0,0.0,0.0,0.0,0.0,0.0,0.0,0.0,0.0,0.0,0.0,0.0,0.0,0.0,0.0,0.0,0.0,0.0,0.0,0.0,0.0,0.0,0.0,0.0,0.0,0.0,0.0,0.0,0.0,0.0,0.0,0.0,0.0,0.0,0.0,0.0,0.0,0.0,0.0,0.0,0.0,0.0,0.0,0.0,0.0,0.0,0.0,0.0,0.0,0.0,0.0,0.0,0.0,0.0,0.0,0.0,0.0,0.0,0.0,0.0,0.0,0.0,0.0,0.0,0.0,0.0,0.0,0.0,0.0,0.0,0.0,0.0,0.0,0.0,0.0,0.0,0.0,0.0,0.0,0.0,0.0,0.0,0.0,0.0,0.0,0.0,0.0,0.0,0.0,0.0,0.0,0.0,0.0,0.0,0.0,0.0,0.0,0.0,0.0,0.0,0.0,0.0,0.0,0.0,0.0,0.0,0.0,0.0,0.0,0.0,0.0,0.0,0.0,0.0,0.0,0.0,0.0,0.0,0.0,0.0,0.0,0.0,0.0,0.0,0.0,0.0,0.0,0.0,0.0,0.0,0.0,0.0,0.0,0.0,0.0,0.0,0.0,0.0,0.0,0.0,0.0,0.0,0.0,0.0,0.0,0.0,0.0,0.0,0.0,0.0,0.0,0.0,0.0,0.0,0.0,0.0,0.0,0.0,0.0,0.0,0.0,0.0,0.0,0.0,0.0,0.0,0.0,0.0,0.0,0.0,0.0,0.0,0.0,0.0,0.0,0.0,0.0,0.0,0.0,0.0,0.0,0.0,0.0,0.0,0.0,0.0,0.0,0.0,0.0,0.0,0.0,0.0,0.0,0.0,0.0,0.0,0.0,0.0,0.0,0.0,0.0,0.0,0.0,0.0,0.0,0.0,0.0,0.0,0.0,0.0,0.0,0.0,0.0,0.0,0.0,0.0,0.0,0.0,0.0,0.0,0.0,0.0,0.0,0.0,0.0,0.0,0.0,0.0,0.0,0.0,0.0,0.0,0.0,0.0,0.0,0.0,0.0,0.0,0.0,0.0,0.0,0.0,0.0,0.0,0.0,0.0,0.0,0.0,0.0,0.0,0.0,0.0,0.0,0.0,0.0,0.0,0.0,0.0,0.0,0.0,0.0,0.0,0.0,0.0,0.0,0.0,0.0,0.0,0.0,0.0,0.0,0.0,0.0,0.0,0.0,0.0,0.0,0.0,0.0,0.0,-4.6162,0.0,0.0,0.0,0.0,0.0,0.0,0.0,0.0,0.0,0.0,0.0,0.0,0.0,0.0,0.0,0.0,0.0,0.0,0.0,0.0,0.0,0.0,0.0,0.0,-3.0581,-3.0581,-3.0581,-3.0581,-3.0333,-2.9758,0.0,0.0,0.0,0.0,0.0,-2.9754,-2.9867,-3.0405,-3.1401,-3.2245,-3.3368,-3.4778,-3.5041,-3.5464,-3.5831,0.0,0.0,0.0,0.0,0.0,0.0,0.0,0.0,0.0,0.0,0.0,0.0,0.0,0.0,0.0,0.0,0.0,0.0,0.0,0.0,0.0,0.0,0.0,0.0,0.0,0.0,0.0,0.0,0.0,0.0,0.0,0.0,0.0,0.0,0.0,0.0,0.0,0.0,0.0,0.0,0.0,0.0,0.0,0.0,0.0,0.0,0.0,0.0,0.0,0.0,0.0,0.0,0.0,0.0,0.0,0.0,0.0,0.0,0.0,0.0,0.0,0.0,0.0,0.0,0.0,0.0,0.0,0.0,0.0,0.0,0.0,-4.6503,0.0,0.0,0.0,0.0,0.0,0.0,0.0,0.0,0.0,0.0,0.0,0.0,0.0,0.0,0.0,0.0,0.0,0.0,0.0,0.0,0.0,-2.9993,-2.9993,-3.0072,-3.0098,-2.9993,-3.0072,-2.9849,-2.917,-2.9118,-2.9078,-2.8974,-2.8974,-2.931,-3.0038,-3.0147,-3.0918,-3.2343,-3.3343,-3.4637,-3.61,-3.6211,-3.6211,0.0,-3.61,0.0,0.0,0.0,0.0,0.0,0.0,0.0,0.0,0.0,0.0,0.0,0.0,0.0,0.0,0.0,0.0,0.0,0.0,0.0,0.0,0.0,0.0,0.0,0.0,0.0,0.0,0.0,0.0,0.0,0.0,0.0,0.0,0.0,0.0,0.0,0.0,0.0,0.0,0.0,0.0,0.0,0.0,0.0,0.0,0.0,0.0,0.0,0.0,0.0,0.0,0.0,0.0,0.0,0.0,0.0,0.0,0.0,0.0,0.0,0.0,0.0,0.0,0.0,-4.6518,-4.6356,-4.5911,-4.5911,-4.5716,-4.5449,-4.6623,-4.6916,-4.6525,0.0,0.0,0.0,0.0,0.0,0.0,0.0,0.0,0.0,0.0,0.0,0.0,0.0,0.0,0.0,0.0,0.0,0.0,0.0,0.0,-2.9392,-2.9392,-2.9836,-2.9941,-2.9431,-2.9849,-2.9666,-2.8569,-2.8503,-2.8281,-2.7785,-2.7758,-2.8133,-2.8971,-2.9036,-2.9771,-3.1235,-3.3201,-3.4912,-3.6429,0.0,0.0,-3.66,-3.6492,-3.6492,0.0,0.0,0.0,0.0,0.0,0.0,0.0,0.0,0.0,0.0,0.0,0.0,0.0,0.0,0.0,0.0,0.0,0.0,0.0,0.0,0.0,0.0,0.0,0.0,0.0,0.0,0.0,0.0,0.0,0.0,0.0,0.0,0.0,0.0,0.0,0.0,0.0,0.0,0.0,0.0,0.0,0.0,-4.2808,-4.3065,0.0,0.0,0.0,0.0,0.0,0.0,0.0,0.0,0.0,0.0,0.0,0.0,0.0,-4.4414,-4.4494,-4.4565,-4.4731,-4.5041,-4.5818,-4.6254,-4.6409,-4.6409,-4.6755,-4.7312,-4.6825,0.0,-4.6247,-4.6263,0.0,0.0,0.0,0.0,0.0,0.0,0.0,0.0,0.0,0.0,0.0,0.0,0.0,0.0,0.0,0.0,0.0,0.0,0.0,0.0,0.0,-2.8846,-2.9019,-2.9301,-2.9052,-2.8762,-2.8438,-2.8072,-2.7798,-2.7536,-2.759,-2.8222,-2.9345,-2.917,-3.0012,-3.1842,-3.3543,-3.4953,-3.6044,0.0,0.0,0.0,-3.7266,-3.7445,0.0,0.0,0.0,0.0,0.0,0.0,0.0,0.0,0.0,0.0,0.0,0.0,0.0,0.0,0.0,0.0,0.0,0.0,0.0,0.0,0.0,0.0,0.0,0.0,0.0,0.0,0.0,0.0,0.0,0.0,0.0,0.0,0.0,0.0,0.0,0.0,0.0,0.0,0.0,0.0,0.0,-4.2619,-4.3089,-4.3069,-4.2812,-4.2555,0.0,0.0,0.0,0.0,0.0,0.0,0.0,0.0,0.0,-4.4503,-4.4576,-4.4643,-4.4806,-4.4877,-4.4969,-4.508,-4.5464,-4.5763,-4.599,-4.599,-4.6234,-4.668,-4.6314,-4.6108,-4.6046,-4.6281,-4.6101,-4.5661,0.0,0.0,0.0,0.0,-4.508,-4.508,0.0,0.0,0.0,0.0,0.0,0.0,0.0,0.0,0.0,0.0,0.0,0.0,-2.836,-2.8389,-2.8592,-2.9274,-2.8677,-2.8349,-2.8425,-2.7773,-2.7446,-2.759,-2.7644,-2.837,-2.9875,-3.0011,-3.0875,-3.2526,-3.363,-3.467,0.0,0.0,0.0,0.0,0.0,0.0,0.0,0.0,0.0,0.0,0.0,0.0,0.0,0.0,0.0,0.0,0.0,0.0,0.0,0.0,0.0,0.0,0.0,0.0,0.0,0.0,0.0,0.0,0.0,0.0,0.0,0.0,0.0,0.0,0.0,0.0,0.0,0.0,0.0,0.0,0.0,0.0,0.0,0.0,0.0,0.0,0.0,-4.2593,-4.2852,-4.3198,-4.2967,-4.2733,0.0,0.0,0.0,0.0,0.0,0.0,-4.4457,-4.3928,-4.3983,-4.4834,-4.49,-4.5017,-4.5227,-4.5055,-4.4997,-4.5071,-4.4841,-4.4848,-4.5056,-4.5056,-4.5131,-4.5289,-4.5289,-4.5289,-4.5336,-4.607,-4.6009,-4.5451,-4.5468,-4.5468,-4.5451,-4.5433,-4.5416,-4.5435,0.0,0.0,0.0,0.0,0.0,0.0,0.0,0.0,0.0,0.0,0.0,-2.7771,-2.832,-2.8922,-2.9274,-2.9274,-2.9274,-2.9026,-2.8425,-2.7459,-2.7208,-2.7762,-2.7404,-2.8165,-3.0151,-3.1549,-3.2311,-3.2526,0.0,0.0,0.0,0.0,0.0,0.0,0.0,0.0,0.0,0.0,0.0,0.0,0.0,0.0,0.0,0.0,0.0,0.0,0.0,0.0,0.0,0.0,0.0,0.0,0.0,0.0,0.0,0.0,0.0,0.0,0.0,0.0,0.0,0.0,0.0,0.0,0.0,0.0,0.0,0.0,0.0,0.0,0.0,0.0,0.0,0.0,0.0,0.0,0.0,0.0,0.0,-4.3558,-4.288,0.0,0.0,0.0,0.0,-4.3427,-4.4203,-4.4773,-4.5042,-4.5148,-4.5208,-4.5285,-4.5266,-4.5285,-4.5285,-4.448,-4.4187,-4.4438,-4.3607,-4.3357,-4.3606,-4.3606,-4.3617,-4.3617,-4.3617,-4.3617,-4.3753,-4.537,-4.5956,-4.5873,-4.5949,-4.5937,-4.5861,-4.5794,-4.5766,-4.5771,0.0,0.0,0.0,0.0,0.0,0.0,0.0,-2.7667,-2.7523,-2.7523,-2.785,-2.815,-2.836,-2.8769,-2.9048,-2.9301,-2.8821,-2.8505,-2.8576,-2.7512,-2.7024,-2.7377,-2.737,-2.8111,-2.9723,-3.1087,-3.1829,-3.1839,0.0,0.0,0.0,0.0,0.0,0.0,0.0,0.0,0.0,0.0,0.0,0.0,0.0,0.0,0.0,0.0,0.0,0.0,0.0,0.0,0.0,0.0,0.0,0.0,0.0,0.0,0.0,0.0,0.0,0.0,0.0,0.0,0.0,0.0,0.0,0.0,0.0,0.0,0.0,0.0,0.0,0.0,0.0,0.0,0.0,0.0,0.0,0.0,0.0,0.0,0.0,-4.2464,-4.2887,0.0,-4.3547,-4.4002,-4.428,-4.4304,-4.425,-4.4276,-4.4403,-4.3963,-4.3748,-4.3891,-4.3885,-4.3979,-4.4137,-4.3833,-4.374,-4.3884,-4.3572,-4.3474,-4.3553,-4.3553,-4.3553,-4.3553,-4.3553,-4.3553,-4.3612,-4.4211,-4.4413,-4.4353,-4.4383,-4.4383,-4.4353,-4.4331,-4.4319,-4.4319,0.0,0.0,0.0,0.0,-2.7523,-2.7523,-2.7523,-2.7523,-2.7523,-2.7523,-2.8033,-2.8464,-2.866,-2.8993,-2.9257,-2.9215,-2.8622,-2.8201,-2.8014,-2.7079,-2.6628,-2.697,-2.7317,-2.7948,-2.8837,-3.0163,-3.0765,0.0,0.0,0.0,0.0,0.0,0.0,0.0,0.0,0.0,0.0,0.0,0.0,0.0,0.0,0.0,-4.1041,0.0,0.0,0.0,0.0,0.0,0.0,0.0,0.0,0.0,0.0,0.0,0.0,0.0,0.0,0.0,0.0,0.0,0.0,0.0,0.0,0.0,0.0,0.0,0.0,0.0,0.0,0.0,0.0,0.0,0.0,0.0,0.0,0.0,0.0,0.0,-4.2055,-4.2567,-4.3277,-4.3695,-4.3568,-4.4003,-4.4102,-4.3751,-4.3675,-4.3673,-4.3792,-4.3316,-4.3095,-4.3233,-4.3261,-4.3345,-4.3532,-4.3241,-4.3114,-4.315,-4.2857,-4.2711,-4.2724,-4.2724,-4.2724,-4.2724,-4.2724,-4.2724,-4.2724,-4.2724,-4.2694,-4.27,-4.3308,-4.3536,-4.3538,-4.3538,-4.3538,-4.3538,0.0,0.0,0.0,-2.7523,-2.7523,-2.7523,-2.7523,-2.7523,-2.7523,-2.7523,-2.8033,-2.8608,-2.9209,-2.9686,-2.9693,-2.8975,-2.8715,-2.8068,-2.6633,-2.6013,-2.5959,-2.6451,-2.7294,-2.7718,-2.7727,0.0,0.0,0.0,0.0,0.0,0.0,0.0,0.0,0.0,0.0,0.0,0.0,0.0,0.0,0.0,0.0,0.0,-4.0551,0.0,0.0,0.0,0.0,0.0,0.0,0.0,0.0,0.0,0.0,0.0,0.0,0.0,0.0,0.0,0.0,0.0,0.0,0.0,0.0,0.0,0.0,0.0,0.0,0.0,0.0,0.0,0.0,0.0,0.0,0.0,0.0,0.0,-4.2758,-4.1899,-4.1978,-4.396,-4.3937,-4.3316,-4.2227,-4.2986,-4.3033,-4.1733,-4.2549,-4.3189,-4.3341,-4.3423,-4.3452,-4.3422,-4.347,-4.3521,-4.3525,-4.2687,-4.2259,-4.2259,-4.1401,-4.0991,-4.0991,-4.0991,-4.0991,-4.0991,-4.0991,-4.0991,-4.0991,-4.0991,-4.0991,-4.1166,-4.2857,-4.3524,-4.3526,-4.3526,-4.35,-4.3481,0.0,0.0,-2.7523,-2.7523,-2.7523,-2.7523,-2.7523,-2.7523,-2.7523,-2.7523,-2.8033,-2.8386,-2.8384,-2.8206,-2.7826,-2.7005,-2.7168,-2.6867,-2.5729,-2.608,-2.6216,-2.6099,-2.6685,-2.7299,-2.775,0.0,0.0,0.0,0.0,0.0,0.0,0.0,0.0,0.0,0.0,0.0,0.0,0.0,0.0,0.0,0.0,0.0,-4.0541,0.0,0.0,0.0,0.0,0.0,0.0,0.0,0.0,0.0,0.0,0.0,0.0,0.0,0.0,0.0,0.0,0.0,0.0,0.0,0.0,0.0,0.0,0.0,0.0,0.0,0.0,0.0,0.0,0.0,0.0,0.0,0.0,-4.0454,-4.1142,-4.175,-4.2175,-4.2173,-4.236,-4.2441,-4.2323,-4.2658,-4.2814,-4.2703,-4.3032,-4.3039,-4.2558,-4.2585,-4.2342,-4.1713,-4.1705,-4.1716,-4.1718,-4.1483,-4.1386,-4.1431,-4.1197,-4.1069,-4.107,-4.107,-4.107,-4.107,-4.107,-4.107,-4.107,-4.107,-4.1062,-4.1123,-4.1548,-4.171,-4.172,-4.1707,-4.1305,-4.0779,0.0,-2.7523,-2.7523,-2.7523,-2.7523,-2.7523,-2.7523,-2.7523,-2.739,-2.7108,-2.7528,-2.7691,-2.6986,-2.7123,-2.6723,-2.548,-2.6079,-2.598,-2.4847,-2.5437,-2.5986,-2.628,-2.6145,-2.6349,0.0,0.0,0.0,0.0,0.0,0.0,0.0,0.0,0.0,0.0,0.0,0.0,0.0,0.0,0.0,0.0,0.0,0.0,-3.9557,-4.0123,-4.0544,-4.0828,-4.1405,-4.163,-4.176,-4.2195,0.0,0.0,0.0,0.0,0.0,0.0,0.0,0.0,0.0,0.0,0.0,0.0,0.0,0.0,0.0,0.0,0.0,0.0,0.0,0.0,0.0,0.0,0.0,0.0,-4.0414,-4.0286,-4.0596,-4.1157,-4.1568,-4.1632,-4.1961,-4.2106,-4.1936,-4.2145,-4.2225,-4.2143,-4.2233,-4.2119,-4.1712,-4.1735,-4.1539,-4.1066,-4.1038,-4.1034,-4.1048,-4.1041,-4.1065,-4.1111,-4.1111,-4.1095,-4.111,-4.111,-4.111,0.0,-4.111,-4.111,-4.111,-4.111,-4.0875,0.0,0.0,0.0,0.0,0.0,-3.9667,-3.9238,0.0,-2.7523,-2.7523,-2.7523,-2.7523,-2.7523,-2.7523,-2.7523,-2.7255,-2.6483,-2.6841,-2.6744,-2.5467,-2.6093,-2.5956,-2.4284,-2.5238,-2.5413,-2.4282,-2.4753,-2.5499,-2.6579,-2.5656,0.0,0.0,0.0,0.0,0.0,0.0,0.0,0.0,0.0,0.0,0.0,0.0,0.0,0.0,0.0,0.0,0.0,0.0,0.0,-3.8181,-3.8901,-3.9022,-3.895,-3.9608,-4.0446,-4.1306,-4.1451,0.0,0.0,0.0,0.0,0.0,0.0,0.0,0.0,0.0,0.0,0.0,0.0,0.0,0.0,0.0,0.0,0.0,0.0,0.0,0.0,0.0,0.0,0.0,0.0,-4.0421,-4.1025,-4.0742,-4.0374,-4.0589,-4.1721,-4.2011,-4.186,-4.1226,-4.1473,-4.1428,-4.0851,-4.0868,-4.0926,-4.0996,0.0,0.0,0.0,0.0,-4.1103,-4.1097,-4.11,-4.1097,-4.1097,-4.1091,-4.111,-4.111,-4.1097,-4.1097,-4.1097,-4.1103,-4.1103,-4.1097,-4.098,-4.0435,-3.9655,-3.9657,-3.9658,-3.9569,-3.8854,-3.8534,-3.8456,0.0,-2.7523,-2.7523,-2.7523,-2.7523,-2.7523,-2.7523,-2.7523,-2.7255,-2.6483,-2.6515,-2.6202,-2.5086,-2.449,-2.3853,-2.3265,-2.407,-2.4822,-2.5468,0.0,-2.5301,0.0,0.0,0.0,0.0,0.0,0.0,0.0,0.0,0.0,0.0,0.0,0.0,0.0,0.0,0.0,0.0,0.0,0.0,0.0,0.0,0.0,-3.8128,-3.8286,-3.8679,-3.9218,-3.9359,-3.9176,-3.8943,-3.9917,-4.0354,-4.0625,-4.1595,0.0,0.0,0.0,0.0,0.0,0.0,0.0,0.0,0.0,0.0,0.0,0.0,0.0,0.0,0.0,0.0,0.0,0.0,0.0,0.0,-4.033,-4.015,-4.012,-4.0697,-4.0203,-4.0096,-4.0929,-4.0632,-4.0383,-4.0403,-4.0669,-4.0848,-4.0878,-4.0898,-4.0926,-4.0996,-4.0993,-4.1028,-4.1097,-4.109,-4.1093,-4.1103,-4.1101,-4.1105,-4.11,0.0,0.0,-4.1091,-4.1111,-4.1105,-4.1105,-4.1111,-4.1108,-4.1046,-4.0344,-3.9546,-3.8759,-3.874,-3.8742,-3.8728,-3.8571,-3.8114,-3.7555,0.0,-2.7523,-2.7523,-2.7523,-2.7523,-2.7523,-2.7523,-2.7523,-2.7255,-2.6483,-2.607,-2.5441,-2.4299,-2.3575,-2.2967,-2.2313,-2.2968,-2.3762,0.0,0.0,0.0,0.0,0.0,0.0,0.0,0.0,0.0,0.0,0.0,0.0,0.0,0.0,0.0,0.0,0.0,0.0,0.0,0.0,0.0,0.0,0.0,0.0,-3.7306,-3.7509,-3.7795,-3.8146,-3.8146,-3.8392,-3.8749,-3.8916,-3.9775,-4.079,-4.1034,-4.1591,-4.2047,0.0,0.0,0.0,0.0,0.0,0.0,0.0,0.0,0.0,0.0,0.0,0.0,0.0,0.0,-4.0977,-3.9983,0.0,-4.0146,-4.0146,-3.984,-3.9733,-4.0201,-3.9934,-3.9689,-3.9656,-3.9561,-3.9541,-3.9679,-3.9986,-4.0361,-4.0859,-4.0538,-4.0488,-4.096,-4.0202,-4.017,-4.1074,-4.0679,-4.0664,-4.1093,-4.1103,-4.1094,-4.1094,-4.1101,-4.1094,-4.1094,-4.1108,-4.1094,-4.1094,-4.1103,-4.085,-4.0388,-3.9513,-3.8882,-3.8459,-3.8026,-3.7844,-3.7793,-3.7398,-3.6997,-3.6657,0.0,-2.739,-2.7456,-2.7323,-2.739,-2.7456,-2.7323,-2.7323,-2.704,-2.6277,-2.5652,-2.4791,-2.345,-2.3262,-2.2827,-2.1937,-2.2149,0.0,0.0,0.0,0.0,0.0,0.0,0.0,0.0,0.0,0.0,0.0,0.0,0.0,0.0,0.0,0.0,0.0,0.0,0.0,0.0,0.0,0.0,0.0,0.0,0.0,-3.5852,-3.6277,-3.6667,-3.697,-3.6812,-3.7672,-3.876,-3.8111,-3.934,-4.106,-4.0446,-4.0867,-4.1376,-4.0148,-3.9881,0.0,0.0,0.0,0.0,0.0,0.0,0.0,0.0,0.0,-4.1314,-4.2004,-4.2208,-4.1961,-4.0985,-4.0797,-4.0534,-3.9733,-3.9602,-3.957,-3.9463,-3.949,-3.9154,-3.8215,-3.8704,-3.9065,-3.8979,-3.9251,-3.98,-4.0616,-3.9917,-3.9824,-4.0695,-3.9318,-3.9229,-4.0795,-4.0012,-4.0055,-4.1089,-4.0937,-4.0934,-4.1091,-4.1108,-4.1107,-4.1087,-4.0914,-4.0856,-4.0856,-4.0856,-4.0446,-3.9722,-3.8861,-3.851,-3.8412,-3.7555,-3.7223,-3.7127,-3.6302,-3.5996,-3.5991,0.0,-2.704,-2.7323,-2.6633,-2.704,-2.7255,-2.6633,-2.6483,-2.6277,-2.5511,-2.5382,-2.4707,-2.3209,-2.3599,-2.3647,-2.2708,-2.2058,0.0,0.0,0.0,0.0,0.0,0.0,0.0,0.0,0.0,0.0,0.0,0.0,0.0,0.0,0.0,0.0,0.0,0.0,0.0,0.0,0.0,0.0,0.0,0.0,0.0,-3.3533,-3.4186,-3.5505,-3.69,-3.6197,-3.6496,-3.7233,-3.7128,-3.8216,-3.955,-3.9463,-4.0446,-4.1376,-4.0148,0.0,-4.0076,-3.8925,-3.8548,-3.8588,-3.9055,-3.9524,-4.0314,0.0,0.0,-4.2941,-4.3098,-4.3144,-4.2675,-4.1098,-4.0797,-4.0534,-3.9733,-3.9602,-3.9363,-3.8746,-3.8745,-3.8305,-3.6875,-3.8131,-3.8864,-3.8209,-3.8373,-3.8907,-3.9781,-3.9023,-3.893,-3.9799,-3.8987,-3.8936,-3.9917,-3.9159,-3.9493,-4.1074,-4.0328,-4.0332,-4.1093,-4.1092,-4.1107,-4.1068,-4.0293,-3.9941,-3.9941,-3.9941,-3.9882,-3.9726,-3.8865,-3.851,-3.8412,-3.7617,-3.7284,-3.7187,-3.6327,-3.6007,-3.5991,0.0,0.0,-2.5988,-2.5193,-2.6045,-2.6769,-2.6414,-2.607,-2.5791,-2.5931,-2.5134,-2.4348,-2.3694,-2.3055,-2.2481,-2.2148,0.0,0.0,0.0,0.0,0.0,0.0,0.0,0.0,0.0,0.0,0.0,0.0,0.0,0.0,0.0,0.0,0.0,0.0,0.0,0.0,0.0,0.0,0.0,0.0,0.0,0.0,-3.2767,-3.2814,-3.3843,-3.5334,-3.5548,-3.6164,0.0,0.0,-3.7877,-3.9066,-3.8653,-3.9291,-3.9982,-3.9088,-3.8911,0.0,-3.7918,-3.8492,0.0,0.0,-3.9758,-4.1137,-4.1932,-4.265,-4.3362,-4.3886,-4.3632,-4.2919,-4.1736,-4.1116,-4.0534,0.0,-3.9602,-3.9368,-3.8723,-3.9072,-3.8877,-3.7488,-3.8358,-3.8638,-3.7472,-3.7531,-3.7994,-3.8887,-3.8615,-3.858,-3.8981,-3.8207,-3.8156,-3.9078,-3.8277,-3.8385,-3.9516,-3.9178,-3.9165,-3.9536,-3.9527,-3.9578,-3.9626,-3.927,-3.9364,-3.9754,-3.8778,-3.8595,-3.8931,-3.8043,-3.7956,-3.8302,-3.7449,-3.7444,-3.7781,-3.7028,-3.645,-3.5991,0.0,0.0,0.0,-2.4264,-2.5052,-2.5767,-2.5767,-2.5288,-2.5146,-2.5709,-2.4767,-2.4108,-2.4108,-2.2626,-2.1592,-2.1592,0.0,0.0,0.0,0.0,0.0,0.0,0.0,0.0,0.0,0.0,0.0,0.0,0.0,0.0,0.0,0.0,0.0,0.0,0.0,0.0,0.0,0.0,0.0,0.0,0.0,0.0,-3.1863,-3.1961,-3.248,-3.3351,-3.4586,-3.5636,0.0,0.0,-3.7572,-3.8589,-3.8157,-3.8507,-3.8944,-3.8298,-3.8016,-3.7813,-3.7288,0.0,0.0,-3.849,-3.9695,-4.1152,-4.156,-4.2192,-4.2922,-4.368,-4.3351,-4.2675,-4.1849,-4.1191,-4.0534,-3.9733,-3.9602,-3.9368,-3.8726,-3.9167,-3.9124,-3.7983,-3.8396,-3.8354,-3.7317,-3.7123,-3.7307,-3.7947,-3.7773,-3.7769,-3.8079,-3.7235,-3.7196,-3.8131,-3.7312,-3.7352,-3.8364,-3.8131,-3.8131,-3.8364,-3.8364,-3.8427,-3.8502,-3.8268,-3.8619,-3.9316,-3.8107,-3.8146,-3.8981,-3.8118,-3.8109,-3.8557,-3.7692,-3.7605,-3.7875,-3.74,-3.6664,-3.5884,0.0,0.0,0.0,0.0,-2.4108,-2.4192,-2.4192,-2.4181,-2.4108,-2.4192,-2.412,-2.4108,-2.4108,-2.2626,-2.1592,0.0,0.0,0.0,0.0,-2.0161,0.0,0.0,0.0,0.0,0.0,0.0,0.0,0.0,0.0,0.0,0.0,0.0,0.0,0.0,0.0,0.0,0.0,0.0,0.0,0.0,0.0,0.0,-3.0418,-3.1686,-3.1662,-3.1128,-3.3085,0.0,0.0,0.0,-3.7206,-3.7857,-3.7982,-3.8507,0.0,-3.8298,-3.7824,0.0,0.0,0.0,-3.8253,-3.8653,-3.9138,-3.9801,-4.104,-4.1396,-4.1564,-4.1994,-4.2074,-4.1811,-4.0985,-4.0816,-4.0534,-3.9733,-3.9602,-3.9344,-3.8614,-3.8631,-3.8477,-3.7787,-3.7846,-3.7939,0.0,-3.7324,-3.6917,-3.6938,-3.6221,-3.6154,-3.7003,-3.6164,-3.6086,-3.702,-3.6196,-3.6565,-3.8291,-3.7467,-3.7467,-3.8291,-3.8291,-3.8311,-3.828,-3.7436,-3.7525,-3.8333,-3.8294,-3.9207,-4.0655,-3.9781,-3.9451,-3.9392,-3.8576,-3.7761,-3.7033,-3.7012,-3.6448,-3.5613,0.0,0.0,0.0,0.0,0.0,-2.335,-2.335,-2.335,-2.3559,-2.4047,-2.3694,0.0,0.0,0.0,0.0,0.0,0.0,0.0,0.0,-2.0926,0.0,0.0,0.0,0.0,0.0,0.0,0.0,0.0,0.0,0.0,0.0,0.0,0.0,0.0,0.0,0.0,0.0,0.0,0.0,0.0,0.0,0.0,-2.945,-3.0192,-3.0719,-3.1262,0.0,0.0,0.0,0.0,-3.6599,-3.6807,-3.695,0.0,0.0,-3.7266,-3.7202,-3.7185,0.0,0.0,-3.8049,-3.7987,-3.8905,-3.9824,-3.9984,-4.0593,-4.1169,-4.1311,-4.1109,-4.0848,-4.0568,-4.0101,-3.9653,-3.9373,-3.9335,-3.8901,-3.7638,-3.8014,-3.8165,-3.7447,-3.7315,0.0,0.0,0.0,0.0,-3.6876,-3.7127,-3.693,-3.6105,-3.6318,-3.6358,-3.6142,-3.5849,-3.5968,-3.6513,-3.6212,-3.6212,-3.6513,-3.655,-3.6887,-3.743,-3.7139,-3.7489,-3.8266,-3.7702,-3.7725,-3.8141,-3.7278,-3.7204,-3.7559,-3.6767,-3.6593,-3.6735,-3.6207,-3.5821,-3.5543,0.0,0.0,0.0,0.0,0.0,0.0,0.0,0.0,0.0,0.0,0.0,0.0,0.0,0.0,0.0,0.0,0.0,0.0,0.0,0.0,0.0,0.0,0.0,0.0,0.0,0.0,0.0,0.0,0.0,0.0,0.0,0.0,0.0,0.0,0.0,0.0,0.0,0.0,0.0,0.0,0.0,0.0,-2.9346,-2.9981,-3.0569,0.0,0.0,0.0,0.0,0.0,0.0,0.0,-3.5924,-3.5925,-3.5956,-3.6381,-3.6499,-3.6597,0.0,-3.7299,-3.7646,-3.7405,-3.8122,-3.8917,-3.876,-3.9306,-3.9871,-4.0084,-3.9944,-3.9816,-3.9928,-3.9509,-3.912,-3.9183,-3.9129,-3.8729,-3.7757,-3.7897,-3.7965,-3.753,-3.7178,-3.731,0.0,0.0,0.0,-3.6971,-3.7241,-3.6921,-3.5767,-3.6015,-3.5958,-3.54,-3.5386,-3.5393,-3.5359,-3.5359,-3.5386,-3.5457,-3.5425,-3.5763,-3.6358,-3.6272,-3.6748,-3.7588,-3.696,-3.6865,-3.7147,-3.6502,-3.6511,-3.6878,-3.6055,-3.6067,-3.6496,-3.5611,-3.5339,-3.5355,0.0,0.0,0.0,0.0,0.0,0.0,0.0,0.0,0.0,0.0,0.0,0.0,0.0,0.0,0.0,0.0,0.0,0.0,0.0,0.0,0.0,0.0,0.0,0.0,0.0,0.0,0.0,0.0,0.0,0.0,0.0,0.0,0.0,0.0,0.0,0.0,0.0,0.0,0.0,0.0,0.0,0.0,-2.9788,-3.0723,0.0,0.0,0.0,0.0,0.0,0.0,0.0,0.0,0.0,0.0,-3.4959,-3.5642,-3.5766,-3.5824,-3.6579,-3.6869,-3.697,-3.697,-3.6987,-3.7108,-3.7487,-3.7596,-3.7755,-3.8423,-3.8548,-3.8718,0.0,0.0,-3.895,-3.9129,-3.8989,-3.8862,-3.8807,-3.8174,-3.7772,0.0,0.0,0.0,0.0,0.0,0.0,-3.7103,0.0,-3.6141,-3.5911,-3.5306,-3.4907,-3.4793,-3.4851,-3.4889,-3.4889,-3.4908,-3.5001,-3.5174,-3.5001,-3.502,-3.525,-3.5058,-3.5475,-3.6377,-3.6179,-3.6653,-3.754,-3.7338,-3.726,-3.7184,-3.6368,-3.6159,-3.6207,-3.5248,-3.5019,-3.5076,0.0,0.0,0.0,0.0,0.0,0.0,0.0,0.0,0.0,0.0,0.0,0.0,0.0,0.0,0.0,0.0,0.0,0.0,0.0,0.0,0.0,0.0,0.0,0.0,0.0,0.0,0.0,0.0,0.0,0.0,0.0,0.0,0.0,0.0,0.0,0.0,0.0,0.0,0.0,0.0,0.0,0.0,-2.8425,0.0,0.0,0.0,0.0,0.0,0.0,0.0,0.0,0.0,0.0,0.0,-3.4968,-3.5153,-3.5251,-3.5399,-3.6088,-3.6308,-3.6451,-3.6891,-3.6987,-3.7009,-3.7147,-3.7261,-3.7449,-3.781,-3.8083,-3.8378,0.0,0.0,0.0,-3.8676,-3.8634,0.0,-3.7796,-3.7059,0.0,0.0,0.0,-3.5063,-3.6528,-3.615,0.0,0.0,-3.6705,-3.65,-3.5794,-3.5088,-3.4694,-3.4653,-3.4773,-3.4831,-3.4831,-3.4889,-3.4927,-3.4982,-3.4908,-3.5249,-3.5875,-3.5818,-3.5913,-3.6179,-3.6122,-3.5932,-3.5609,-3.5572,-3.5552,-3.5533,-3.5287,-3.5249,-3.5248,-3.4984,-3.4926,-3.4944,0.0,0.0,0.0,0.0,0.0,0.0,0.0,0.0,0.0,0.0,0.0,0.0,0.0,0.0,0.0,0.0,0.0,0.0,0.0,0.0,0.0,0.0,0.0,0.0,0.0,0.0,0.0,0.0,0.0,0.0,0.0,0.0,0.0,0.0,0.0,0.0,0.0,0.0,0.0,0.0,0.0,0.0,0.0,0.0,0.0,0.0,0.0,0.0,0.0,0.0,0.0,-3.3467,-3.3534,-3.3794,-3.4083,-3.4131,0.0,-3.4169,-3.46,-3.5027,-3.5472,-3.5825,-3.6348,-3.6684,-3.6334,-3.6461,-3.662,-3.6487,-3.6986,0.0,0.0,0.0,0.0,0.0,0.0,0.0,-3.7754,-3.6871,-3.6118,0.0,-3.4509,0.0,-3.5046,-3.4769,-3.4872,0.0,-3.6128,-3.6024,-3.5436,-3.482,-3.4416,-3.4302,-3.4394,-3.4461,-3.4483,-3.4567,-3.4649,-3.4771,-3.4649,-3.4896,-3.5452,-3.531,-3.5331,-3.5452,0.0,-3.5066,-3.4771,-3.4649,-3.4588,-3.4588,-3.4588,-3.467,-3.4751,-3.4588,-3.4609,-3.4691,0.0,0.0,0.0,0.0,0.0,0.0,0.0,0.0,0.0,0.0,-2.3001,0.0,0.0,0.0,0.0,0.0,0.0,0.0,0.0,0.0,0.0,0.0,0.0,0.0,0.0,0.0,0.0,0.0,0.0,0.0,0.0,0.0,0.0,0.0,0.0,0.0,0.0,0.0,0.0,0.0,0.0,0.0,0.0,0.0,0.0,0.0,0.0,0.0,0.0,0.0,-3.0555,-3.1913,-3.2761,-3.2875,-3.2752,-3.2804,-3.2751,-3.264,-3.2763,-3.3544,-3.4351,-3.4438,-3.542,-3.6153,-3.5359,-3.5444,-3.5524,-3.4993,0.0,-3.6291,-3.6761,0.0,-3.8077,-3.8269,0.0,-3.8106,-3.8106,-3.7022,-3.599,-3.5416,-3.4269,-3.3582,-3.3839,-3.3784,-3.4031,-3.4809,-3.4976,-3.5016,-3.4869,-3.4397,-3.3986,-3.377,-3.3823,-3.3902,-3.3935,-3.403,-3.4179,-3.4409,-3.4179,-3.4203,-3.4431,-3.4179,-3.4203,-3.4409,0.0,0.0,-3.4473,-3.4269,-3.4197,-3.4197,-3.4197,-3.434,-3.4517,-3.4221,-3.4245,-3.4386,0.0,0.0,0.0,0.0,0.0,0.0,0.0,0.0,0.0,0.0,-2.3001,-2.3001,0.0,0.0,0.0,0.0,0.0,0.0,0.0,0.0,0.0,0.0,0.0,0.0,0.0,0.0,0.0,0.0,0.0,0.0,0.0,0.0,0.0,0.0,0.0,0.0,0.0,0.0,0.0,0.0,0.0,0.0,0.0,0.0,0.0,0.0,0.0,0.0,0.0,0.0,-3.0947,-3.2073,-3.153,-3.168,-3.202,-3.1871,-3.1831,-3.1887,-3.2152,-3.2823,-3.3538,-3.4052,-3.4935,-3.5511,-3.478,-3.4856,0.0,0.0,0.0,-3.4957,-3.5365,-3.6267,0.0,-3.7243,0.0,0.0,0.0,0.0,-3.5764,0.0,0.0,0.0,0.0,0.0,0.0,0.0,0.0,-3.353,-3.415,-3.3476,-3.3057,-3.3087,-3.3184,-3.3225,-3.3171,-3.3372,-3.3447,-3.3458,-3.3447,-3.3476,-3.3532,-3.3476,-3.3476,-3.3532,-3.377,0.0,-3.3947,-3.4124,-3.4197,-3.4197,-3.4197,-3.4221,-3.4269,-3.4197,-3.4173,-3.4105,0.0,0.0,0.0,0.0,0.0,0.0,0.0,-2.3001,-2.3001,-2.3001,-2.3001,-2.3001,-2.3001,-2.3001,-2.2754,0.0,0.0,0.0,0.0,0.0,0.0,0.0,0.0,0.0,0.0,0.0,0.0,0.0,0.0,0.0,0.0,0.0,0.0,0.0,0.0,0.0,0.0,0.0,0.0,0.0,0.0,0.0,0.0,0.0,0.0,0.0,0.0,0.0,0.0,0.0,-2.9057,-3.0303,-3.0947,-3.1366,-3.1539,-3.0922,-3.0738,-3.0674,-3.0503,-3.1065,-3.1881,-3.2805,-3.3594,-3.4064,-3.3684,0.0,0.0,0.0,0.0,-3.3728,-3.3913,0.0,0.0,0.0,0.0,0.0,0.0,0.0,0.0,0.0,0.0,0.0,0.0,0.0,0.0,0.0,0.0,-3.2302,-3.3315,-3.3009,-3.2827,-3.2858,-3.2952,-3.2983,-3.2947,-3.3136,-3.3214,-3.3087,-3.3196,-3.3214,-3.3148,-3.3148,-3.3196,-3.3243,-3.3437,0.0,-3.355,-3.3643,-3.3778,-3.3921,-3.3661,-3.3688,-3.3805,-3.3607,-3.3496,-3.3439,0.0,0.0,0.0,0.0,0.0,0.0,-2.3001,-2.3001,-2.3045,-2.3143,-2.3067,-2.3045,-2.3143,-2.3056,-2.27,0.0,0.0,0.0,0.0,0.0,0.0,0.0,0.0,0.0,0.0,0.0,0.0,0.0,0.0,0.0,0.0,0.0,0.0,0.0,0.0,0.0,0.0,0.0,0.0,0.0,0.0,0.0,0.0,0.0,0.0,0.0,0.0,0.0,0.0,0.0,-2.7148,-2.8199,-2.9988,-3.0542,-3.0522,-2.9868,-2.9674,-2.9569,-2.9191,-2.9733,-3.0622,-3.1545,-3.2174,-3.2547,-3.2479,-3.2197,0.0,0.0,0.0,-3.2517,0.0,0.0,0.0,0.0,0.0,0.0,0.0,0.0,0.0,0.0,0.0,0.0,0.0,0.0,0.0,0.0,0.0,0.0,-3.2229,-3.2366,-3.2451,-3.2451,-3.2616,-3.2681,-3.2648,-3.2858,-3.289,-3.2759,-3.289,-3.2921,-3.2791,-3.2791,-3.2872,-3.297,-3.3032,0.0,0.0,-3.3154,-3.3302,-3.3522,-3.313,-3.316,-3.3354,-3.3039,-3.2916,-3.2872,0.0,0.0,0.0,0.0,0.0,0.0,-2.3001,-2.3001,-2.3154,-2.3602,-2.3274,-2.3176,-2.3613,-2.3263,-2.2979,0.0,0.0,0.0,0.0,0.0,0.0,0.0,0.0,0.0,0.0,0.0,0.0,0.0,0.0,0.0,0.0,0.0,0.0,0.0,0.0,0.0,0.0,0.0,0.0,0.0,0.0,0.0,0.0,0.0,0.0,0.0,0.0,0.0,0.0,0.0,0.0,-2.7026,-2.752,-2.7888,-2.8196,-2.8735,0.0,0.0,-2.9621,-3.0303,-3.0858,-3.0973,-3.1282,-3.1503,-3.1369,0.0,0.0,0.0,-3.0888,-3.1219,0.0,0.0,0.0,0.0,0.0,0.0,0.0,0.0,0.0,0.0,0.0,0.0,0.0,0.0,0.0,0.0,0.0,0.0,-3.0623,-3.1067,-3.1261,-3.1261,-3.1714,-3.1966,-3.1893,-3.2091,-3.2109,-3.1985,-3.2126,-3.2197,-3.2161,-3.2161,-3.2197,-3.2232,-3.2521,0.0,0.0,-3.2934,-3.3039,-3.3069,-3.3039,-3.3039,-3.3021,-3.2991,-3.2947,-3.2872,0.0,0.0,0.0,0.0,0.0,0.0,-2.3001,-2.3252,-2.3514,-2.37,-2.3558,-2.3514,-2.3711,-2.3296,-2.2892,-2.2608,0.0,0.0,0.0,0.0,0.0,0.0,0.0,0.0,0.0,0.0,0.0,0.0,0.0,0.0,0.0,0.0,0.0,0.0,0.0,0.0,0.0,0.0,0.0,0.0,0.0,0.0,0.0,0.0,0.0,0.0,0.0,0.0,0.0,0.0,0.0,0.0,-2.545,-2.5813,0.0,0.0,-2.7982,-2.851,-2.882,-2.9457,-3.0258,-3.0944,-3.0618,-3.0213,-3.0587,0.0,0.0,-2.9502,-2.9661,-2.9777,-2.9935,0.0,0.0,0.0,0.0,0.0,0.0,0.0,0.0,0.0,0.0,0.0,0.0,0.0,0.0,0.0,0.0,0.0,-2.8446,-2.9088,-2.9465,-2.9465,-2.9694,-2.9989,-3.0369,-3.0523,-3.0857,-3.1432,-3.1562,-3.1728,-3.1946,-3.1946,-3.1929,-3.1984,-3.2109,0.0,0.0,-3.2317,-3.2451,-3.2616,-3.2368,-3.2401,-3.2535,-3.2334,-3.2248,-3.2231,0.0,0.0,0.0,0.0,0.0,-2.3045,-2.3198,-2.3383,-2.3624,-2.3919,-2.37,-2.3569,-2.3711,-2.3296,-2.287,-2.2553,-2.239,0.0,0.0,0.0,0.0,0.0,0.0,0.0,0.0,0.0,0.0,0.0,0.0,0.0,0.0,0.0,0.0,0.0,0.0,0.0,0.0,0.0,0.0,0.0,0.0,0.0,0.0,0.0,0.0,0.0,0.0,0.0,0.0,0.0,0.0,0.0,0.0,0.0,0.0,0.0,-2.7058,-2.7711,-2.8078,-2.8797,-2.9711,-3.0705,-3.0013,-2.9317,0.0,0.0,0.0,-2.8748,-2.8858,-2.8904,-2.9028,-2.9088,0.0,0.0,0.0,0.0,0.0,0.0,0.0,0.0,0.0,0.0,0.0,0.0,0.0,0.0,0.0,0.0,0.0,-2.7251,-2.7827,-2.8157,-2.8329,-2.8616,-2.9092,-2.9387,-2.9911,-3.0589,-3.0903,-3.1179,-3.1428,-3.1428,-3.1449,-3.1507,0.0,0.0,0.0,-3.1839,-3.2002,-3.2197,-3.1929,-3.1965,-3.2126,-3.1893,-3.18,-3.18,0.0,0.0,0.0,0.0,0.0,0.0,-2.3646,-2.3318,-2.3362,-2.4355,-2.3624,-2.3187,-2.3678,-2.3296,-2.3001,-2.299,-2.2575,0.0,0.0,0.0,0.0,0.0,0.0,0.0,0.0,0.0,-1.8533,-1.8073,-1.804,0.0,0.0,0.0,0.0,0.0,0.0,0.0,0.0,0.0,0.0,0.0,0.0,0.0,0.0,0.0,0.0,0.0,0.0,0.0,0.0,0.0,0.0,0.0,0.0,0.0,0.0,0.0,-2.6048,-2.6671,-2.7693,-2.8573,-2.9356,-2.9954,-2.939,-2.889,0.0,0.0,0.0,-2.8575,-2.8795,-2.8904,-2.8904,-2.8997,-2.9136,-2.909,-2.9904,0.0,0.0,0.0,0.0,0.0,0.0,0.0,0.0,0.0,0.0,0.0,0.0,0.0,0.0,-2.5645,-2.6557,-2.7681,-2.8174,-2.8405,-2.8422,-2.9081,-2.9423,-2.9423,-3.017,-3.0518,-3.0518,-3.0518,-3.0518,0.0,0.0,0.0,0.0,-3.1634,-3.18,-3.18,-3.18,-3.18,-3.18,-3.18,-3.18,-3.18,0.0,0.0,0.0,0.0,0.0,0.0,-2.3209,-2.3383,-2.3613,-2.3929,-2.37,-2.3558,-2.3711,-2.3296,-2.3001,-2.3001,-2.287,0.0,0.0,0.0,0.0,0.0,0.0,0.0,0.0,0.0,-1.9403,-1.9697,-1.9121,-1.9485,-2.0705,-2.0209,0.0,0.0,0.0,0.0,0.0,0.0,0.0,0.0,0.0,0.0,0.0,0.0,0.0,0.0,0.0,0.0,0.0,0.0,0.0,0.0,0.0,0.0,0.0,-2.3748,0.0,0.0,-2.6248,-2.6835,-2.7432,-2.8061,-2.7722,-2.7343,-2.7609,0.0,0.0,0.0,-2.766,-2.776,-2.7875,-2.8008,-2.8195,-2.8682,-2.9021,0.0,0.0,0.0,0.0,0.0,0.0,0.0,0.0,0.0,0.0,0.0,0.0,0.0,0.0,-2.5409,-2.5964,-2.5855,-2.6423,-2.6744,-2.6744,-2.6969,-2.7486,-2.8241,-2.8976,-2.9486,-2.9755,-2.9755,0.0,0.0,0.0,0.0,0.0,-3.0845,-3.0925,-3.0925,-3.1201,-3.1162,-3.0925,-3.1218,-3.1334,-3.1334,0.0,0.0,0.0,0.0,0.0,0.0,-2.3252,-2.3372,-2.3514,-2.37,-2.3569,-2.3449,-2.3449,-2.3187,-2.3001,-2.3001,-2.3001,0.0,0.0,0.0,0.0,0.0,0.0,0.0,0.0,-1.9855,-2.038,-2.0841,-2.039,-2.0617,-2.1653,-2.0944,-2.0514,-2.0259,0.0,0.0,0.0,0.0,0.0,0.0,0.0,0.0,-2.5915,0.0,0.0,0.0,0.0,0.0,0.0,0.0,0.0,0.0,0.0,0.0,0.0,0.0,-2.3242,-2.408,0.0,-2.5401,-2.6022,-2.6613,-2.6517,0.0,0.0,0.0,0.0,0.0,0.0,-2.7078,-2.6959,-2.7218,-2.7505,-2.7764,-2.803,0.0,0.0,0.0,0.0,0.0,0.0,0.0,0.0,0.0,0.0,0.0,0.0,0.0,0.0,-2.4918,-2.5274,-2.4838,-2.5604,-2.5882,-2.5614,-2.5866,-2.6379,-2.7081,-2.8062,-2.8511,-2.8559,-2.9056,0.0,0.0,0.0,0.0,0.0,-3.0435,-3.0518,-3.0518,-3.0804,-3.0707,-3.0518,-3.0788,-3.0868,-3.0868,0.0,0.0,0.0,0.0,0.0,0.0,0.0,-2.3296,-2.3165,-2.3613,-2.3285,-2.3001,-2.3001,-2.3001,-2.3001,-2.3001,-2.3034,0.0,0.0,0.0,0.0,0.0,0.0,0.0,0.0,-2.0872,-2.1322,-2.1719,-2.159,-2.1988,-2.2681,-2.1538,-2.0984,-2.0839,-2.0149,0.0,0.0,0.0,0.0,0.0,0.0,-2.3831,0.0,0.0,0.0,0.0,0.0,0.0,0.0,0.0,0.0,0.0,0.0,0.0,0.0,0.0,0.0,0.0,0.0,-2.4236,-2.4949,-2.5572,-2.5601,-2.5544,0.0,0.0,0.0,0.0,0.0,-2.6712,-2.6122,-2.6616,-2.6922,-2.6568,-2.6975,0.0,0.0,0.0,0.0,0.0,0.0,0.0,0.0,0.0,0.0,0.0,0.0,0.0,0.0,-2.4193,-2.4561,-2.4431,-2.5399,-2.5636,-2.5021,-2.5614,-2.5945,-2.6024,-2.7383,-2.7731,-2.7209,-2.8474,0.0,0.0,0.0,0.0,0.0,-3.0225,-3.0393,-3.0393,-3.0435,-3.0435,-3.0393,-3.0435,-3.0435,-3.0435,0.0,0.0,0.0,0.0,0.0,0.0,0.0,0.0,0.0,0.0,-2.3078,-2.3001,-2.3001,-2.3001,-2.3001,0.0,0.0,0.0,0.0,0.0,0.0,0.0,0.0,0.0,0.0,-2.1617,-2.2147,-2.3016,-2.2444,-2.2371,-2.2692,-2.1723,-2.1094,-2.0636,-1.9818,-1.9539,0.0,0.0,0.0,0.0,-2.2927,-2.3427,0.0,0.0,0.0,0.0,-2.2743,-2.2402,0.0,0.0,0.0,0.0,0.0,0.0,0.0,0.0,-2.2197,-2.2283,-2.2528,0.0,-2.2985,-2.3599,-2.3812,-2.3922,0.0,0.0,0.0,0.0,0.0,-2.5577,-2.5467,-2.5618,-2.5937,-2.6245,0.0,0.0,0.0,0.0,0.0,0.0,0.0,0.0,0.0,0.0,0.0,0.0,0.0,0.0,0.0,-2.3866,-2.4386,-2.3839,-2.475,-2.5164,-2.5021,-2.5179,-2.5471,-2.6009,-2.6909,-2.7525,-2.7873,-2.8189,0.0,0.0,0.0,0.0,-2.9243,-2.938,-2.9425,-2.9454,-2.9837,-2.9766,-2.9454,-2.9837,-2.9968,-2.9968,0.0,0.0,0.0,0.0,0.0,0.0,0.0,0.0,0.0,0.0,-2.3001,-2.3001,-2.3001,-2.3001,-2.3001,0.0,0.0,0.0,0.0,0.0,0.0,0.0,0.0,-2.251,-2.202,-2.1953,-2.2381,-2.3425,-2.2788,-2.2735,-2.3167,-2.2167,-2.1389,-2.0892,-1.9857,-1.9539,0.0,0.0,0.0,0.0,-2.2357,0.0,0.0,0.0,0.0,0.0,-2.2379,-2.1865,0.0,-2.2132,-2.1891,-2.1267,0.0,0.0,0.0,0.0,-2.2197,-2.2197,-2.2197,-2.2197,-2.2247,-2.2604,-2.2763,-2.2992,0.0,0.0,0.0,0.0,0.0,0.0,-2.4738,0.0,0.0,0.0,0.0,0.0,0.0,0.0,0.0,0.0,0.0,0.0,0.0,0.0,0.0,0.0,0.0,0.0,0.0,-2.2858,-2.3269,-2.3201,-2.3822,-2.4331,-2.4782,-2.4766,-2.5192,-2.6009,-2.6404,-2.6957,-2.7652,-2.7952,-2.83,0.0,0.0,0.0,-2.9029,-2.8998,-2.8967,-2.9014,-2.9259,-2.9183,-2.8998,-2.9259,-2.9335,-2.9335,0.0,0.0,0.0,0.0,0.0,0.0,0.0,0.0,0.0,0.0,0.0,0.0,0.0,0.0,0.0,0.0,0.0,0.0,0.0,0.0,0.0,0.0,0.0,-2.2703,-2.2478,-2.2083,-2.2339,-2.3306,-2.2907,-2.2983,-2.3525,-2.2475,-2.17,-2.1091,-2.0066,-1.9671,0.0,0.0,0.0,0.0,-2.1505,0.0,0.0,0.0,0.0,0.0,0.0,0.0,0.0,-2.1729,-2.1664,-2.1233,-2.1631,0.0,0.0,0.0,0.0,0.0,-2.2197,-2.2123,-2.2061,-2.2185,-2.2309,-2.2432,0.0,0.0,0.0,0.0,0.0,0.0,0.0,0.0,0.0,0.0,0.0,0.0,0.0,0.0,0.0,0.0,0.0,0.0,0.0,0.0,0.0,0.0,0.0,0.0,0.0,-2.1793,-2.203,-2.2572,-2.2799,-2.3392,-2.4234,-2.4467,-2.5062,-2.6083,-2.6136,-2.6556,-2.7229,-2.7908,-2.8207,0.0,0.0,0.0,-2.8873,-2.8826,-2.8794,-2.8794,-2.8794,-2.8794,-2.8794,-2.8794,-2.8794,-2.8794,0.0,0.0,0.0,0.0,0.0,0.0,0.0,0.0,0.0,0.0,0.0,0.0,0.0,0.0,0.0,0.0,0.0,0.0,0.0,0.0,0.0,-2.2927,-2.2927,-2.2927,-2.2927,-2.285,-2.2883,-2.3036,-2.2959,-2.2896,-2.2875,-2.2239,-2.1375,-2.0255,-1.9783,-1.9539,-1.9417,0.0,0.0,-2.1339,-2.1076,0.0,0.0,0.0,0.0,0.0,0.0,0.0,0.0,-2.1355,-2.1475,-2.1302,-2.174,0.0,0.0,0.0,0.0,0.0,-2.2197,-2.1726,-2.14,-2.2061,-2.2185,-2.2247,0.0,0.0,0.0,0.0,0.0,0.0,0.0,0.0,0.0,0.0,0.0,0.0,0.0,0.0,0.0,0.0,0.0,0.0,0.0,0.0,0.0,0.0,0.0,0.0,0.0,-2.1664,-2.1841,-2.1935,-2.2217,-2.2526,-2.2965,-2.4207,-2.5372,-2.6432,-2.6901,-2.7317,-2.7805,-2.8404,-2.8686,0.0,0.0,-2.8842,-2.8826,-2.8794,-2.8794,-2.8794,-2.8794,-2.8794,-2.8794,-2.8794,-2.8794,-2.8794,0.0,0.0,0.0,0.0,0.0,0.0,0.0,0.0,0.0,0.0,0.0,0.0,0.0,0.0,0.0,0.0,0.0,0.0,0.0,0.0,0.0,-2.3001,-2.3001,-2.3001,-2.3001,-2.2761,-2.2761,-2.3001,-2.2761,-2.2687,-2.2841,-2.228,-2.1471,-2.0578,-2.0122,-1.9998,-1.9977,-1.9854,-2.0126,-2.0649,0.0,0.0,0.0,0.0,0.0,0.0,0.0,0.0,0.0,0.0,-2.1052,-2.0937,-2.111,0.0,0.0,0.0,0.0,0.0,-2.16,-2.1071,-2.0613,-2.1008,-2.1083,0.0,0.0,0.0,0.0,0.0,0.0,0.0,0.0,0.0,0.0,0.0,0.0,0.0,0.0,0.0,0.0,0.0,0.0,0.0,0.0,0.0,0.0,0.0,0.0,0.0,0.0,0.0,-2.1568,-2.1568,-2.1841,-2.2244,-2.2724,-2.3515,-2.4728,-2.6228,-2.6382,-2.6995,-2.792,-2.8124,-2.8264,-2.835,0.0,-2.8684,-2.8684,-2.8604,-2.8604,-2.8604,-2.8604,-2.8604,-2.8604,-2.8604,-2.8604,-2.8556,0.0,0.0,0.0,0.0,0.0,0.0,0.0,0.0,0.0,0.0,0.0,0.0,0.0,0.0,0.0,0.0,0.0,0.0,0.0,0.0,-2.315,-2.315,-2.315,-2.3075,-2.3001,-2.2663,-2.2652,-2.3001,-2.2652,-2.2608,-2.2837,-2.231,-2.1732,-2.1047,-2.0589,-2.0454,-2.0557,-2.0072,-2.0009,-2.0085,0.0,0.0,0.0,0.0,0.0,0.0,0.0,0.0,0.0,0.0,0.0,0.0,0.0,0.0,0.0,-2.1526,-2.1262,-2.0869,-2.0869,-2.0355,-1.9835,0.0,0.0,0.0,0.0,0.0,0.0,0.0,0.0,0.0,0.0,0.0,0.0,0.0,0.0,0.0,0.0,0.0,0.0,0.0,0.0,0.0,0.0,0.0,0.0,0.0,0.0,0.0,0.0,0.0,-2.1423,-2.1423,-2.1616,-2.1945,-2.2476,-2.2797,-2.3794,-2.5469,-2.5465,-2.6111,-2.7233,-2.7379,-2.7593,-2.7799,-2.8365,-2.8525,-2.8541,-2.8444,-2.8411,-2.8411,-2.8411,-2.8411,-2.8427,-2.8581,-2.8535,-2.8427,0.0,0.0,0.0,0.0,0.0,0.0,0.0,0.0,0.0,0.0,0.0,0.0,0.0,0.0,0.0,0.0,0.0,0.0,0.0,0.0,-2.353,-2.353,-2.353,-2.3372,-2.3001,-2.2968,-2.2968,-2.3001,-2.2968,-2.275,-2.2368,-2.2335,-2.1908,-2.129,-2.0805,-2.059,-2.0557,-2.0072,-2.0009,-2.0085,-2.0085,0.0,0.0,0.0,0.0,0.0,0.0,0.0,0.0,0.0,0.0,0.0,0.0,0.0,-2.0719,-2.106,-2.0677,-2.0161,-2.0161,-1.9639,-1.911,-1.911,0.0,0.0,0.0,0.0,0.0,0.0,0.0,0.0,0.0,0.0,0.0,0.0,0.0,0.0,0.0,0.0,0.0,0.0,0.0,0.0,0.0,0.0,0.0,0.0,0.0,0.0,0.0,0.0,0.0,-2.1423,-2.1423,-2.1437,-2.1491,-2.2083,-2.2867,-2.3855,-2.4336,-2.48,-2.5242,-2.624,-2.6999,-2.7565,-2.8186,-2.8396,-2.8396,-2.8396,-2.8411,-2.8411,-2.8411,-2.8411,-2.8488,-2.9119,-2.895,-2.8488,0.0,0.0,0.0,0.0,0.0,0.0,0.0,0.0,0.0,0.0,0.0,0.0,0.0,0.0,0.0,0.0,0.0,0.0,0.0,-2.4177,-2.397,-2.397,-2.397,-2.3897,-2.3751,-2.3224,-2.3001,-2.3001,-2.2717,-2.263,-2.2728,-2.2138,-2.186,-2.1865,-2.1141,-2.0793,-2.076,-2.0215,-2.0074,-2.0085,-2.0085,-2.0085,0.0,0.0,0.0,0.0,0.0,0.0,0.0,0.0,-2.0205,-2.0335,-2.0464,-2.0313,-2.015,-2.042,-1.989,-1.9299,-1.9375,-1.8921,-1.8405,0.0,0.0,0.0,0.0,0.0,0.0,0.0,0.0,0.0,0.0,0.0,0.0,0.0,0.0,0.0,0.0,0.0,0.0,0.0,0.0,0.0,0.0,0.0,0.0,0.0,0.0,0.0,0.0,0.0,0.0,-2.1006,-2.1264,-2.1423,-2.1423,-2.164,-2.1896,-2.2297,-2.3646,-2.4312,-2.4461,-2.5185,-2.5687,-2.5994,-2.6568,-2.7205,-2.7845,-2.7845,-2.8073,-2.8442,-2.8873,-2.9289,-2.9689,-2.995,-2.9874,-2.9689,0.0,0.0,0.0,0.0,0.0,0.0,0.0,0.0,0.0,0.0,0.0,0.0,0.0,0.0,0.0,0.0,0.0,0.0,-2.4886,-2.4743,-2.4539,-2.4418,-2.4418,-2.4345,-2.42,-2.3677,-2.3372,-2.3372,-2.2906,-2.2756,-2.297,-2.2165,-2.1908,-2.2051,-2.1221,-2.0928,-2.0828,-2.0347,-2.0085,-2.0085,-2.0085,-2.0085,0.0,0.0,0.0,0.0,0.0,0.0,0.0,0.0,-2.0085,-2.0151,-2.0205,-1.9922,-1.9518,-1.977,-1.9177,-1.8442,-1.8576,-1.8192,-1.7872,0.0,0.0,0.0,0.0,0.0,0.0,0.0,0.0,0.0,0.0,0.0,0.0,0.0,0.0,0.0,0.0,0.0,0.0,0.0,0.0,0.0,0.0,0.0,0.0,0.0,0.0,0.0,0.0,0.0,0.0,0.0,-2.1215,-2.1423,-2.1423,-2.1423,-2.1423,-2.1423,-2.2586,-2.3284,-2.3565,-2.4063,-2.4455,-2.4695,-2.5394,-2.6134,-2.6849,-2.7223,-2.7745,-2.8409,-2.91,-2.9638,-3.0166,-3.0566,-3.0545,-3.0339,0.0,0.0,0.0,0.0,0.0,0.0,0.0,0.0,-2.5812,-2.5812,-2.5824,0.0,0.0,0.0,0.0,0.0,0.0,0.0,-2.4861,-2.5312,-2.537,-2.4861,-2.4801,-2.4646,-2.42,-2.42,-2.42,-2.42,-2.3695,-2.3219,-2.2913,-2.2338,-2.1918,-2.1559,-2.1136,-2.0917,-2.0895,-2.0347,-2.0074,-2.0074,-2.0085,-2.0074,-2.0074,0.0,0.0,0.0,0.0,0.0,0.0,0.0,-2.0085,-2.014,-2.0506,-1.9791,-1.8875,-1.9177,-1.8452,-1.7529,-1.7647,-1.7588,0.0,0.0,0.0,0.0,0.0,0.0,0.0,0.0,0.0,0.0,0.0,0.0,0.0,0.0,0.0,0.0,0.0,0.0,0.0,0.0,0.0,0.0,0.0,0.0,0.0,0.0,0.0,0.0,0.0,0.0,0.0,0.0,-2.1166,-2.1423,-2.1423,-2.1423,-2.1423,-2.1375,-2.1277,-2.1574,-2.2305,-2.279,-2.3322,-2.3937,-2.4924,-2.54,-2.5457,-2.6638,-2.7545,-2.8262,-2.892,-2.9245,-2.9597,-3.0905,-3.086,-3.0295,0.0,0.0,0.0,0.0,0.0,0.0,0.0,0.0,-2.7443,-2.7443,-2.7162,0.0,0.0,0.0,0.0,0.0,0.0,0.0,-2.6905,-2.6688,-2.6483,-2.6358,-2.6025,-2.5746,-2.5594,-2.517,-2.4754,-2.42,-2.3684,-2.3431,-2.3208,-2.2389,-2.1922,-2.18,-2.1291,-2.113,-2.1118,-2.0971,-2.0839,-2.0839,-2.0582,-2.0646,-2.0839,0.0,0.0,0.0,0.0,0.0,0.0,0.0,0.0,0.0,-1.9781,-1.9177,-1.8586,-1.8462,-1.7852,-1.7314,-1.752,0.0,0.0,0.0,0.0,0.0,0.0,0.0,0.0,0.0,0.0,0.0,0.0,0.0,0.0,0.0,0.0,0.0,0.0,0.0,0.0,0.0,0.0,0.0,0.0,0.0,0.0,0.0,0.0,0.0,0.0,0.0,0.0,0.0,-2.0871,-2.1277,-2.1277,-2.1277,-2.1229,-2.1131,-2.1082,-2.1225,-2.1547,-2.1583,-2.1907,-2.2525,-2.279,-2.3634,-2.4871,-2.5983,-2.6871,-2.7521,-2.7793,-2.8695,-2.9953,-3.0342,-3.0895,-3.1475,0.0,0.0,0.0,0.0,0.0,0.0,0.0,0.0,-2.8276,-2.8276,-2.8066,-2.8052,0.0,0.0,0.0,0.0,0.0,0.0,0.0,-2.7762,-2.7617,-2.7417,-2.7082,-2.6947,-2.6947,-2.6252,-2.5709,-2.5146,-2.4284,-2.3781,-2.3618,-2.2587,-2.2047,-2.1904,-2.1388,-2.1221,-2.1221,-2.1221,-2.1221,-2.1158,-2.0967,-2.0967,-2.1158,0.0,0.0,0.0,0.0,0.0,0.0,0.0,0.0,0.0,-1.9726,-1.911,-1.8442,-1.8259,-1.7647,-1.7176,-1.7392,0.0,0.0,0.0,0.0,0.0,0.0,0.0,0.0,0.0,0.0,0.0,0.0,0.0,0.0,0.0,0.0,0.0,0.0,0.0,0.0,0.0,0.0,0.0,0.0,0.0,0.0,0.0,0.0,0.0,0.0,0.0,0.0,0.0,-2.0295,-2.0809,-2.0809,-2.1019,-2.1082,-2.0997,-2.0947,-2.101,-2.1059,-2.101,-2.1159,-2.1504,-2.1916,-2.2924,-2.4407,-2.5354,-2.6089,-2.6771,-2.7111,-2.8051,-2.936,-2.9908,-3.0683,-3.1522,0.0,0.0,-2.8365,-2.8587,0.0,0.0,0.0,0.0,-2.8587,-2.8587,-2.8587,-2.8587,0.0,0.0,0.0,0.0,0.0,0.0,0.0,-2.8597,-2.8661,-2.8182,-2.8117,-2.8051,-2.7986,-2.7258,-2.6786,-2.6625,-2.5289,-2.4405,-2.3954,-2.3046,-2.2355,-2.1901,-2.1504,-2.1296,-2.1296,-2.1296,-2.1296,-2.1296,-2.1296,-2.1285,-2.1296,-2.1296,0.0,0.0,0.0,0.0,0.0,0.0,0.0,0.0,-2.0009,-1.9264,-1.8499,-1.8365,-1.7638,-1.6978,0.0,0.0,0.0,0.0,0.0,0.0,0.0,0.0,0.0,0.0,0.0,0.0,0.0,0.0,0.0,0.0,0.0,0.0,0.0,0.0,0.0,0.0,0.0,0.0,0.0,0.0,0.0,0.0,0.0,0.0,0.0,0.0,0.0,-1.8661,-1.9658,-2.0181,-2.0181,-2.0723,-2.0997,0.0,-2.0924,-2.0888,-2.0888,-2.0888,-2.0888,-2.0954,-2.1983,-2.2976,-2.4001,-2.4678,-2.53,-2.592,-2.6567,-2.7301,-2.8111,-2.9347,-3.0148,-3.0675,0.0,0.0,-2.8522,-2.8587,0.0,0.0,0.0,0.0,0.0,0.0,0.0,0.0,0.0,0.0,0.0,0.0,0.0,0.0,-2.9261,-2.9338,-2.9401,-2.9275,-2.8853,-2.8454,-2.7986,-2.7258,-2.6854,-2.6854,-2.5877,-2.4873,-2.3862,-2.3634,-2.303,-2.2103,-2.2047,-2.1999,-2.1999,-2.1999,-2.1999,-2.1937,-2.1726,-2.1726,-2.1937,-2.1663,-2.1588,0.0,0.0,0.0,0.0,0.0,0.0,0.0,-1.9177,-1.871,-1.8297,-1.751,-1.7107,-1.6908,0.0,0.0,0.0,0.0,0.0,0.0,0.0,0.0,0.0,0.0,0.0,0.0,0.0,0.0,0.0,0.0,0.0,0.0,0.0,0.0,0.0,0.0,0.0,0.0,0.0,0.0,0.0,0.0,0.0,0.0,0.0,0.0,0.0,-1.8394,-1.9451,-2.0042,-2.0042,-2.0649,-2.0875,0.0,-2.0762,-2.0762,-2.0762,-2.0762,-2.0762,-2.0777,-2.1917,-2.2535,-2.2841,-2.3839,-2.439,-2.4492,-2.4682,-2.5702,-2.7088,-2.7391,-2.8503,-2.9728,0.0,0.0,0.0,0.0,0.0,0.0,0.0,0.0,0.0,0.0,0.0,0.0,0.0,0.0,0.0,0.0,-2.9974,-3.0097,-3.0158,-3.0158,-3.0158,-3.0158,-2.9822,-2.9406,-2.8788,-2.8071,-2.7688,-2.7546,-2.6189,-2.5004,-2.4037,-2.4037,-2.3466,-2.2445,-2.2445,-2.2445,-2.2432,-2.2309,-2.2371,-2.2432,-2.2161,-2.2173,-2.2309,-2.2099,-2.1975,-2.1925,-2.1737,0.0,0.0,0.0,0.0,0.0,0.0,0.0,-1.8576,-1.7569,-1.7107,-1.6908,0.0,0.0,0.0,0.0,0.0,0.0,0.0,0.0,0.0,0.0,0.0,0.0,0.0,0.0,0.0,0.0,0.0,0.0,0.0,0.0,0.0,0.0,0.0,0.0,0.0,0.0,0.0,0.0,0.0,0.0,0.0,-1.759,-1.7733,-1.7831,-1.8673,-1.9214,-1.954,-2.008,-2.0498,-2.0699,-2.0699,-2.0843,-2.1054,-2.083,-2.0699,-2.0751,-2.1577,-2.2113,-2.2452,-2.3328,-2.3851,-2.4112,-2.4112,-2.486,-2.5975,-2.6321,-2.7371,-2.8588,0.0,0.0,0.0,0.0,0.0,0.0,0.0,0.0,0.0,0.0,0.0,0.0,0.0,0.0,0.0,0.0,0.0,0.0,-3.0821,-3.0821,-3.0821,-3.0821,-3.0762,-3.0396,-2.9697,-2.9007,-2.8503,-2.8196,-2.6623,-2.5358,0.0,0.0,0.0,-2.269,-2.28,-2.2848,-2.2848,-2.2653,-2.2775,-2.2957,-2.2714,-2.2592,-2.2592,-2.2592,-2.242,-2.2247,-2.2123,-2.1987,-2.1788,-2.1651,0.0,0.0,0.0,0.0,-1.8911,-1.8037,-1.7364,-1.6968,0.0,0.0,0.0,0.0,0.0,0.0,0.0,0.0,0.0,0.0,0.0,0.0,0.0,0.0,0.0,0.0,0.0,0.0,0.0,0.0,0.0,0.0,0.0,0.0,0.0,0.0,0.0,0.0,0.0,0.0,-1.7278,-1.7278,-1.7278,-1.7278,-1.7788,-1.8375,-1.8987,-1.9488,-2.0016,-2.0599,-2.0703,-2.1055,-2.1537,-2.112,-2.0847,-2.0832,-2.1251,-2.1798,-2.233,-2.2932,-2.3519,-2.3995,-2.3995,-2.4406,-2.4962,-2.5534,-2.6385,-2.7215,0.0,0.0,0.0,0.0,0.0,0.0,0.0,0.0,0.0,0.0,-2.954,-2.9665,0.0,0.0,-3.0387,-3.0702,-3.0895,-3.1014,-3.1073,0.0,0.0,-3.1073,-3.1014,-3.0719,-3.0072,-2.9347,-2.8576,-2.7863,-2.7638,0.0,0.0,0.0,0.0,-2.2739,0.0,0.0,-2.3471,-2.3458,-2.3741,-2.4182,-2.3682,-2.3458,-2.3399,-2.3267,-2.2871,-2.2297,-2.1913,-2.1925,-2.2061,-2.1474,-2.1411,0.0,0.0,0.0,-1.91,-1.8345,-1.7687,0.0,0.0,0.0,0.0,0.0,0.0,0.0,0.0,0.0,0.0,0.0,0.0,0.0,0.0,0.0,0.0,0.0,0.0,0.0,0.0,0.0,0.0,0.0,0.0,0.0,0.0,0.0,0.0,0.0,0.0,0.0,-1.7278,-1.7278,-1.7278,-1.7278,-1.77,-1.8224,-1.8804,-1.9226,-1.9747,-2.0283,-2.081,-2.135,-2.1834,-2.1758,-2.1557,-2.1199,-2.1276,-2.1572,-2.2005,-2.2708,-2.3289,-2.3688,-2.3688,-2.4034,-2.4584,-2.4645,-2.5107,-2.556,0.0,0.0,0.0,0.0,0.0,0.0,0.0,0.0,0.0,0.0,0.0,-3.0144,0.0,-3.0642,-3.0675,-3.0441,-3.091,-3.1234,-3.1336,-3.1336,-3.1278,-3.1249,-3.1132,-3.0601,-2.9569,-2.9229,-2.8668,-2.7975,0.0,0.0,0.0,-2.515,-2.4317,0.0,0.0,0.0,0.0,0.0,0.0,-2.4824,-2.4021,-2.3741,-2.3741,-2.3292,-2.2763,-2.2359,-2.2161,-2.2111,-2.2123,-2.1874,-2.1862,-2.1788,-2.0921,0.0,0.0,0.0,-1.8085,0.0,0.0,0.0,0.0,0.0,0.0,0.0,0.0,0.0,0.0,0.0,0.0,0.0,0.0,0.0,0.0,0.0,0.0,0.0,0.0,0.0,0.0,0.0,0.0,0.0,0.0,0.0,0.0,0.0,0.0,-1.7043,-1.7043,-1.7043,-1.7043,-1.7043,-1.72,-1.7567,-1.8201,-1.8685,-1.9319,-2.0195,-2.1036,-2.1419,-2.1476,-2.1893,-2.1771,-2.117,-2.1491,-2.1761,-2.195,-2.2596,-2.3174,-2.3628,-2.3628,-2.3769,-2.4,-2.4,-2.4346,-2.4743,0.0,0.0,0.0,0.0,0.0,0.0,0.0,0.0,0.0,0.0,0.0,0.0,0.0,0.0,0.0,0.0,-3.1068,-3.1392,-3.1369,-3.1204,-3.1057,-3.0959,-3.0966,-3.0374,-2.9055,-2.9134,-2.8714,0.0,0.0,0.0,-2.6749,-2.61,-2.5504,0.0,-2.5056,0.0,0.0,0.0,0.0,0.0,-2.4323,-2.3975,-2.4034,-2.3365,-2.2896,-2.2543,-2.242,-2.2359,-2.2247,-2.2197,-2.2197,-2.2061,-2.1451,-2.1123,0.0,0.0,0.0,0.0,0.0,0.0,0.0,0.0,0.0,0.0,0.0,0.0,0.0,0.0,0.0,0.0,0.0,0.0,0.0,0.0,0.0,0.0,0.0,0.0,0.0,0.0,0.0,0.0,0.0,0.0,0.0,0.0,0.0,-1.6999,-1.6999,-1.6882,-1.6818,-1.6818,-1.6761,-1.7022,-1.7611,-1.8321,-1.9182,-2.036,-2.1094,-2.1335,-2.1202,-2.1832,-2.1693,-2.1023,-2.1457,-2.1699,-2.1839,-2.2329,-2.293,-2.3437,-2.3437,-2.3437,-2.3437,-2.3437,-2.3854,-2.4287,0.0,0.0,0.0,0.0,0.0,0.0,0.0,0.0,0.0,0.0,0.0,0.0,-3.1073,-3.119,-3.1321,-3.145,-3.1625,-3.157,-3.1031,-3.0448,-3.0046,-3.0046,-3.0473,0.0,-2.8861,-2.9304,0.0,0.0,0.0,0.0,-2.5495,-2.6601,-2.6445,-2.5369,-2.5369,-2.5374,-2.5342,0.0,0.0,0.0,-2.4794,-2.4292,-2.4234,0.0,0.0,0.0,0.0,0.0,-2.2359,-2.2247,-2.2197,-2.2185,-2.2123,-2.1663,-2.0858,0.0,0.0,0.0,0.0,0.0,0.0,0.0,0.0,0.0,0.0,0.0,0.0,0.0,0.0,0.0,0.0,0.0,0.0,0.0,0.0,0.0,0.0,0.0,0.0,0.0,0.0,0.0,0.0,0.0,0.0,0.0,0.0,-1.7488,-1.7488,-1.7062,-1.6818,-1.6818,-1.6694,-1.6909,-1.7523,-1.8506,-1.956,-2.0668,-2.0731,-2.102,-2.1499,-2.1506,-2.1217,-2.0718,-2.0876,-2.1192,-2.1536,-2.1673,-2.2274,-2.3138,-2.3138,-2.3138,-2.3138,-2.3138,-2.3502,-2.3991,0.0,0.0,0.0,0.0,0.0,0.0,0.0,0.0,0.0,0.0,0.0,0.0,0.0,-3.0818,-3.0488,-3.0528,-3.038,-3.0514,-3.1103,-3.0572,-3.0418,-3.0754,-3.0873,-3.0461,-2.9607,-2.9766,0.0,0.0,0.0,-2.7391,-2.6793,-2.7239,-2.7006,-2.6222,-2.6028,-2.5711,-2.5398,-2.5175,0.0,0.0,-2.4794,-2.4452,-2.4337,0.0,0.0,0.0,0.0,0.0,0.0,0.0,0.0,0.0,-2.2197,-2.1761,-2.0965,-1.9306,-1.7661,0.0,0.0,0.0,0.0,0.0,0.0,0.0,0.0,0.0,0.0,0.0,0.0,0.0,0.0,0.0,0.0,0.0,0.0,0.0,0.0,0.0,0.0,0.0,0.0,0.0,0.0,0.0,0.0,0.0,0.0,0.0,-1.7186,-1.7009,-1.678,-1.6555,-1.6488,-1.692,-1.7886,-1.8213,-1.9006,-2.0112,-2.0489,-2.0577,-2.0426,-2.1154,-2.0991,-2.015,-2.0945,-2.1373,-2.1518,-2.1927,-2.2518,-2.3078,-2.3078,-2.3078,-2.3175,-2.3552,-2.3816,-2.4054,0.0,0.0,0.0,0.0,0.0,-3.0482,-3.0482,-3.0482,-3.0539,-3.0597,0.0,0.0,0.0,0.0,-3.0136,-3.0381,-3.0002,-3.008,-3.0894,-3.0396,-3.0173,-3.036,-3.0433,-3.0182,-2.9459,0.0,0.0,0.0,0.0,0.0,0.0,-2.7173,-2.683,-2.6245,-2.6053,-2.59,0.0,0.0,0.0,-2.5618,0.0,-2.4465,-2.4247,0.0,0.0,0.0,0.0,0.0,0.0,0.0,0.0,0.0,0.0,-2.1691,-2.06,-1.8907,-1.7503,0.0,0.0,0.0,0.0,0.0,0.0,0.0,0.0,0.0,0.0,0.0,0.0,0.0,0.0,0.0,0.0,0.0,0.0,0.0,0.0,0.0,0.0,0.0,0.0,0.0,0.0,0.0,0.0,0.0,0.0,0.0,-1.7113,-1.7009,-1.6839,-1.6394,-1.6269,-1.6853,-1.8093,-1.7984,-1.8578,-1.9759,-2.0095,-2.003,-1.9681,-2.0428,-2.0366,-1.9718,-2.064,-2.1206,-2.1531,-2.2083,-2.2577,-2.3017,-2.3078,-2.3078,-2.3092,-2.3716,-2.4054,-2.4356,0.0,0.0,-3.0451,-3.0354,-2.9792,-2.9362,-2.9362,-2.9347,-2.9441,-2.9696,0.0,0.0,0.0,0.0,0.0,-3.1098,-3.072,-3.0414,-3.0414,-2.979,-2.9273,-2.8889,-2.9221,-2.9119,-2.8473,0.0,0.0,0.0,0.0,0.0,0.0,0.0,-2.6048,-2.5481,-2.5472,-2.5921,-2.6683,0.0,-2.5728,-2.5673,0.0,-2.4363,-2.3891,0.0,0.0,0.0,-2.303,-2.2909,0.0,0.0,0.0,0.0,0.0,-2.1337,-1.9884,-1.8763,-1.7517,0.0,0.0,0.0,0.0,0.0,0.0,0.0,0.0,0.0,0.0,0.0,0.0,0.0,0.0,0.0,0.0,0.0,0.0,0.0,0.0,0.0,0.0,0.0,0.0,0.0,0.0,0.0,0.0,0.0,0.0,-1.8089,-1.7272,-1.7063,-1.6791,-1.6415,-1.6097,-1.6627,-1.8038,-1.782,-1.8309,-1.9565,-1.942,-1.9368,-1.942,-1.942,-1.942,-1.9457,-1.9998,-2.0704,-2.1531,-2.2083,-2.253,-2.2909,-2.3017,-2.303,-2.2996,-2.3542,-2.4165,-2.4856,0.0,-3.0673,-3.087,-3.0815,-3.0679,-3.0558,-3.0682,-3.0243,-2.9963,0.0,0.0,0.0,0.0,0.0,-3.0526,-3.0609,-3.057,-3.0683,-3.1048,-3.0485,-3.0347,-3.0895,-3.0386,-3.013,-3.013,0.0,0.0,0.0,0.0,0.0,0.0,0.0,0.0,0.0,-2.7277,-2.7417,-2.7524,-2.5687,0.0,0.0,-2.4523,-2.4261,0.0,0.0,0.0,0.0,0.0,-2.333,0.0,0.0,-2.2909,-2.2725,0.0,0.0,0.0,0.0,0.0,0.0,-1.6138,0.0,0.0,0.0,0.0,0.0,-1.2854,-1.2597,0.0,0.0,0.0,0.0,0.0,0.0,0.0,0.0,0.0,0.0,0.0,0.0,0.0,0.0,0.0,0.0,0.0,0.0,0.0,0.0,-1.8496,-1.8243,-1.7745,-1.7042,-1.6567,-1.6505,-1.6085,-1.6296,-1.7157,-1.7101,-1.7644,-1.8792,-1.875,-1.8975,-1.942,-1.942,-1.942,-1.9457,-1.9998,-2.0539,-2.1193,-2.1737,-2.2233,-2.2739,-2.28,-2.3047,-2.3392,-2.3934,-2.4476,-2.5086,-3.0308,-3.04,-3.0477,-3.0424,-3.0424,-3.0333,-3.0161,-3.0007,-2.9823,0.0,0.0,0.0,0.0,0.0,-3.0688,-3.0811,-3.0897,-3.1033,-3.13,-3.0993,-3.0917,-3.1218,-3.0529,-3.0192,-3.0291,0.0,0.0,0.0,0.0,0.0,0.0,0.0,0.0,0.0,-2.7625,0.0,0.0,0.0,0.0,0.0,-2.5189,0.0,0.0,-2.4054,-2.3891,0.0,0.0,0.0,-2.345,-2.333,-2.3138,0.0,0.0,0.0,0.0,0.0,0.0,0.0,0.0,0.0,0.0,0.0,0.0,0.0,-1.3635,-1.3164,-1.2862,0.0,0.0,0.0,0.0,0.0,0.0,0.0,0.0,0.0,0.0,0.0,0.0,0.0,0.0,0.0,0.0,0.0,0.0,-1.8212,-1.8414,-1.8292,-1.7926,-1.6917,-1.6377,-1.6497,-1.5949,-1.6056,-1.6765,-1.6652,-1.709,-1.8038,-1.8255,-1.8536,-1.8869,-1.9093,-1.921,-1.93,-2.0025,-2.0402,-2.0604,-2.1545,-2.2201,-2.2555,-2.2678,-2.3009,-2.3386,-2.3704,-2.4369,-2.5148,0.0,-3.0217,-2.9793,-2.9645,-2.9596,-2.9443,-2.8871,-2.9277,-2.945,0.0,-2.9152,0.0,0.0,0.0,0.0,0.0,-3.1511,-3.1511,-3.1511,-3.1511,-3.1295,-3.0824,-3.0258,-2.9886,-2.9746,-2.9169,0.0,0.0,0.0,0.0,0.0,0.0,0.0,0.0,-2.7225,-2.7004,0.0,0.0,0.0,-2.6283,-2.6176,-2.5412,0.0,0.0,-2.4054,0.0,-2.3747,-2.3688,-2.3675,-2.3628,-2.345,0.0,0.0,0.0,0.0,0.0,-1.9669,0.0,0.0,0.0,0.0,0.0,0.0,0.0,-1.4547,-1.3958,-1.3684,0.0,0.0,0.0,0.0,0.0,0.0,0.0,0.0,0.0,0.0,0.0,0.0,0.0,0.0,0.0,0.0,-1.6515,-1.7364,-1.794,-1.8279,-1.8312,-1.7931,-1.6849,-1.6333,-1.6587,-1.5861,-1.5876,-1.6736,-1.64,-1.6595,-1.7379,-1.782,-1.8093,-1.8201,-1.8762,-1.8987,-1.9047,-2.0009,-2.0189,-1.9901,-2.1404,-2.2103,-2.2335,-2.2531,-2.2885,-2.3159,-2.322,-2.4018,-2.5031,-2.9747,-2.9989,-3.0165,-2.9793,-2.9759,-2.981,-2.9927,-2.9842,-2.9823,-2.9984,-3.0293,0.0,0.0,0.0,0.0,0.0,-3.2109,-3.2352,-3.2301,-3.2126,-3.2061,-3.2123,-3.1244,-3.0742,-3.0725,-2.9713,-2.9121,0.0,0.0,0.0,0.0,0.0,0.0,0.0,-2.8137,-2.791,0.0,0.0,0.0,-2.6229,-2.5425,0.0,-2.4664,-2.4563,-2.4505,-2.4447,-2.4447,-2.4305,-2.4131,0.0,-2.37,-2.3484,0.0,0.0,0.0,0.0,0.0,0.0,0.0,0.0,0.0,0.0,0.0,0.0,-1.5294,-1.4689,-1.4311,0.0,0.0,0.0,0.0,0.0,0.0,0.0,0.0,0.0,0.0,0.0,0.0,0.0,0.0,0.0,0.0,-1.6446,-1.7226,-1.794,-1.8076,-1.8037,-1.7958,-1.7468,-1.7194,-1.7194,-1.6409,-1.6058,-1.6228,-1.5821,-1.614,-1.7257,-1.7313,-1.7863,-1.8815,-1.8934,-1.8987,-1.8999,-1.9215,-1.9492,-1.9841,-2.061,-2.1175,-2.1656,-2.2078,-2.2573,-2.3091,-2.3525,-2.4068,-2.4659,-3.0074,-3.0196,-3.0312,-3.0073,-3.0209,-3.0337,-3.0303,-3.0445,-3.0533,-3.0518,-3.0954,0.0,0.0,0.0,0.0,0.0,0.0,0.0,0.0,-3.2506,-3.2441,-3.2503,-3.1713,-3.1275,-3.1183,-3.026,-2.975,-2.9601,0.0,0.0,0.0,0.0,0.0,0.0,0.0,0.0,0.0,0.0,-2.7275,-2.6734,-2.5909,0.0,-2.4778,-2.4734,-2.4677,-2.462,-2.462,-2.4549,-2.4478,-2.4593,-2.4465,0.0,0.0,-2.4105,-2.3794,0.0,-2.2367,-2.1811,0.0,0.0,0.0,-1.8681,0.0,0.0,0.0,-1.6058,-1.5201,0.0,0.0,0.0,0.0,0.0,0.0,0.0,0.0,0.0,0.0,0.0,0.0,0.0,0.0,0.0,0.0,-1.701,-1.7579,-1.794,-1.8008,-1.8008,-1.8008,-1.7607,-1.7383,-1.7383,-1.6738,-1.6396,-1.6396,-1.5846,-1.6078,-1.7105,-1.7097,-1.76,-1.8548,-1.8721,-1.8881,-1.9011,-1.9125,-1.9443,-1.9841,-2.067,-2.1163,-2.1452,-2.1993,-2.2678,-2.3376,-2.3376,-2.4025,-2.4915,-3.0858,-3.0673,-3.046,-3.0335,-3.056,-3.0712,-3.0459,-3.0957,-3.1258,-3.1145,0.0,0.0,0.0,0.0,0.0,0.0,0.0,0.0,0.0,0.0,-3.2639,-3.2639,-3.2056,-3.164,-3.1473,-3.0811,-3.0402,-3.0294,0.0,0.0,0.0,0.0,0.0,0.0,0.0,0.0,0.0,0.0,0.0,-2.7169,0.0,-2.5784,-2.4962,-2.4962,-2.4848,-2.4677,-2.4677,-2.4721,-2.4821,-2.5245,0.0,-2.5217,-2.519,-2.4924,0.0,0.0,0.0,0.0,0.0,0.0,0.0,0.0,0.0,-1.8489,0.0,0.0,0.0,0.0,0.0,0.0,0.0,0.0,0.0,0.0,0.0,0.0,0.0,0.0,0.0,0.0,0.0,0.0,0.0,-1.7555,-1.8027,-1.8018,-1.8018,-1.8027,-1.794,-1.7686,-1.751,-1.7444,-1.7015,-1.6792,-1.6728,-1.609,-1.6176,-1.7054,-1.6942,-1.7335,-1.8104,-1.8387,-1.8614,-1.8863,-1.9136,-1.9471,-1.9821,-2.0783,-2.1272,-2.1392,-2.1981,-2.2775,-2.358,-2.3256,-2.3989,-2.5107,-3.1456,-3.1321,-3.1089,-3.0418,-3.0333,-3.0476,-3.0794,-3.114,-3.1709,0.0,0.0,0.0,0.0,0.0,0.0,0.0,0.0,0.0,-3.3332,0.0,-3.2943,-3.3093,-3.2486,-3.2003,-3.1752,-3.1244,-3.0751,-3.0202,0.0,0.0,0.0,0.0,0.0,0.0,-2.8332,0.0,0.0,0.0,-2.7918,0.0,-2.6755,-2.6184,0.0,-2.5439,-2.5257,-2.4948,-2.4835,-2.5104,-2.5467,0.0,-2.5714,-2.6079,0.0,-2.5645,-2.5217,0.0,0.0,0.0,0.0,0.0,0.0,0.0,-2.1364,0.0,0.0,0.0,0.0,0.0,0.0,0.0,0.0,0.0,0.0,0.0,0.0,0.0,0.0,0.0,0.0,0.0,0.0,0.0,0.0,0.0,-1.8209,-1.8037,-1.816,-1.812,-1.7735,-1.7881,-1.7804,-1.7472,-1.7178,-1.6958,-1.6769,-1.5984,-1.6176,-1.7183,-1.677,-1.7112,-1.8084,-1.8139,-1.8193,-1.8228,-1.8734,-1.9134,-1.9509,-2.0238,-2.0717,-2.1055,-2.1858,-2.2558,-2.3123,-2.3532,-2.4073,-2.4675,-3.2332,-3.195,-3.164,-3.1435,-3.1244,-3.1266,-3.1699,-3.2039,-3.2453,0.0,0.0,0.0,0.0,0.0,0.0,0.0,0.0,-3.3606,0.0,0.0,0.0,-3.3468,-3.3148,-3.284,-3.2598,-3.2144,-3.1702,-3.1288,-3.096,0.0,0.0,0.0,0.0,0.0,-2.7823,0.0,-2.7277,0.0,0.0,0.0,0.0,0.0,0.0,-2.5715,-2.5522,-2.5508,-2.5453,-2.5605,-2.5865,0.0,-2.6611,0.0,0.0,0.0,0.0,0.0,0.0,0.0,0.0,0.0,0.0,0.0,0.0,0.0,-2.1212,0.0,-1.9237,0.0,0.0,0.0,0.0,0.0,0.0,0.0,-1.5807,0.0,0.0,0.0,0.0,0.0,0.0,0.0,0.0,0.0,0.0,0.0,-1.8199,-1.8177,-1.7881,-1.7852,-1.7794,-1.7803,-1.7494,-1.7331,-1.7321,-1.6307,-1.6249,-1.7134,-1.6653,-1.6821,-1.7678,-1.781,-1.8134,-1.8586,-1.8623,-1.9102,-1.9993,-2.03,-2.0646,-2.1109,-2.1467,-2.2232,-2.3185,-2.361,-2.4278,-2.5011,-3.3241,0.0,0.0,-3.2266,-3.2039,-3.2039,-3.2419,-3.2784,0.0,0.0,0.0,0.0,-3.3671,-3.3743,0.0,0.0,0.0,-3.3689,0.0,0.0,-3.3532,0.0,0.0,0.0,0.0,-3.2979,-3.2533,-3.2162,-3.1886,0.0,0.0,0.0,0.0,0.0,0.0,-2.7414,-2.6784,0.0,0.0,-2.6777,-2.6828,-2.6785,-2.6751,-2.6042,-2.5879,-2.599,-2.5907,-2.5988,-2.6258,-2.7041,-2.7261,0.0,-2.7159,0.0,0.0,0.0,0.0,0.0,-2.6332,0.0,0.0,0.0,0.0,0.0,0.0,0.0,0.0,0.0,0.0,0.0,0.0,0.0,0.0,0.0,0.0,0.0,0.0,0.0,0.0,0.0,0.0,0.0,0.0,0.0,0.0,-1.8085,-1.8302,-1.8241,-1.7969,-1.7862,-1.7784,-1.7803,-1.7598,-1.7461,-1.751,-1.6431,-1.6265,-1.6911,-1.6394,-1.6555,-1.7194,-1.7566,-1.8068,-1.8641,-1.8647,-1.9295,-2.0289,-2.0313,-2.0585,-2.1042,-2.119,-2.1904,-2.3012,-2.3494,-2.4342,-2.5312,-3.4172,-3.3633,0.0,0.0,0.0,-3.2453,-3.2669,0.0,0.0,0.0,0.0,0.0,0.0,0.0,0.0,0.0,0.0,-3.3075,-3.3671,0.0,-3.3698,0.0,0.0,-3.386,0.0,0.0,-3.2908,-3.2387,-3.2371,0.0,0.0,0.0,0.0,0.0,0.0,-2.9038,-2.6792,-2.6792,-2.6788,-2.6794,-2.6794,-2.6794,-2.6741,0.0,-2.6198,-2.6143,-2.599,0.0,0.0,-2.7159,-2.7429,0.0,0.0,0.0,0.0,0.0,0.0,0.0,0.0,0.0,0.0,-2.5508,0.0,0.0,0.0,0.0,-2.2339,0.0,0.0,0.0,0.0,0.0,0.0,-1.9125,0.0,0.0,0.0,0.0,0.0,0.0,0.0,0.0,0.0,0.0,0.0,-1.8337,-1.8537,-1.8404,-1.7754,-1.7862,-1.7725,-1.7235,-1.7392,-1.7332,-1.6908,-1.6092,-1.5946,-1.6437,-1.6059,-1.6105,-1.6538,-1.7557,-1.7992,-1.8006,-1.897,-1.9563,-1.9929,-2.005,-2.0313,-2.0691,-2.1195,-2.1767,-2.2285,-2.3012,-2.4124,-2.5312,-3.4563,0.0,0.0,0.0,0.0,0.0,0.0,-3.3304,0.0,0.0,0.0,0.0,0.0,0.0,-3.3207,0.0,0.0,-3.3465,-3.3698,-3.3815,0.0,0.0,0.0,-3.4241,0.0,0.0,0.0,0.0,0.0,0.0,0.0,0.0,0.0,0.0,0.0,-2.9311,0.0,0.0,0.0,0.0,0.0,-2.6808,-2.6789,0.0,0.0,-2.6582,-2.6509,-2.6315,0.0,-2.6837,-2.6811,-2.662,-2.6947,-2.7372,-2.7655,-2.756,-2.7795,0.0,0.0,0.0,-2.7144,-2.699,0.0,0.0,0.0,0.0,0.0,0.0,0.0,0.0,0.0,0.0,0.0,-2.0246,0.0,0.0,0.0,0.0,0.0,0.0,0.0,0.0,0.0,0.0,0.0,-1.8521,-1.8174,-1.7983,-1.7881,-1.7852,-1.7716,-1.7579,-1.7373,-1.7245,-1.7107,-1.6434,-1.6167,-1.6356,-1.6013,-1.6013,-1.6475,-1.6809,-1.7511,-1.8354,-1.8702,-1.9339,-2.0039,-2.0074,-2.0151,-2.0314,-2.0875,-2.1507,-2.2262,-2.3064,-2.3886,-2.4585,-3.5012,0.0,0.0,0.0,0.0,0.0,0.0,0.0,0.0,0.0,-3.2809,0.0,-3.2713,0.0,-3.3009,0.0,-3.335,-3.3465,-3.3698,-3.3815,0.0,-3.4074,-3.4269,0.0,0.0,0.0,0.0,0.0,0.0,-3.2914,0.0,0.0,0.0,0.0,0.0,0.0,0.0,0.0,-2.6777,0.0,0.0,-2.5811,0.0,0.0,-2.6402,-2.5488,0.0,-2.6147,-2.5862,-2.6321,-2.6258,-2.597,-2.6253,-2.6903,-2.7437,-2.7079,-2.7653,-2.842,-2.8015,-2.7948,0.0,-2.7444,-2.7134,0.0,-2.6439,0.0,0.0,0.0,0.0,0.0,0.0,0.0,0.0,-2.1255,-2.0974,-2.0593,0.0,-2.0104,0.0,0.0,0.0,0.0,0.0,0.0,-1.9068,-1.8601,-1.8325,-1.8132,0.0,0.0,-1.7706,-1.7647,-1.7373,-1.7166,-1.7107,-1.6582,-1.6321,-1.6312,-1.6135,-1.6147,-1.6354,-1.6786,-1.7549,-1.8555,-1.8749,-1.9318,-2.0085,-2.0085,-2.0085,-2.014,-2.086,-2.1526,-2.2065,-2.2897,-2.3621,-2.4269,-3.5532,0.0,0.0,0.0,-3.416,0.0,0.0,0.0,-3.3094,0.0,-3.2755,-3.2548,-3.2548,-3.2548,-3.2709,-3.3033,-3.2903,0.0,-3.3615,-3.3671,0.0,0.0,-3.3895,-3.4156,-3.4564,0.0,0.0,0.0,0.0,0.0,0.0,0.0,0.0,0.0,-3.0477,0.0,-2.892,-2.746,-2.6759,-2.6458,-2.4736,-2.4088,-2.435,-2.6586,-2.5558,-2.3228,-2.502,-2.5701,-2.5634,-2.5736,-2.5712,-2.5758,-2.6001,-2.6375,-2.6714,-2.6392,-2.7067,-2.7698,-2.6954,-2.7611,-2.823,-2.7091,0.0,0.0,0.0,0.0,-2.6197,0.0,0.0,0.0,0.0,0.0,0.0,-2.2213,-2.2002,-2.1666,-2.1097,0.0,0.0,0.0,0.0,0.0,0.0,-2.0101,-1.9725,-1.8689,-1.8788,0.0,0.0,0.0,-1.7676,-1.747,-1.7314,-1.7107,-1.6908,-1.6532,-1.6349,-1.634,-1.6364,-1.6392,-1.634,-1.7298,-1.7975,-1.8509,-1.9034,-1.9584,-2.0074,-2.0085,-2.0085,-2.0172,-2.121,-2.1614,-2.1783,-2.2577,-2.3428,-2.4303,-3.5723,-3.5514,-3.5284,0.0,-3.4539,-3.4124,0.0,0.0,0.0,0.0,-3.2264,-3.195,-3.195,-3.195,-3.2074,-3.2484,-3.2699,0.0,0.0,0.0,0.0,-3.3698,-3.3895,-3.3979,-3.3925,-3.5141,0.0,-3.3948,0.0,0.0,-3.2579,0.0,0.0,0.0,0.0,0.0,-2.7969,-2.7564,-2.6104,-2.4027,-2.3566,-2.3642,0.0,0.0,-2.4518,-2.3931,-2.5171,-2.536,-2.4978,-2.5017,-2.4906,-2.4841,-2.5423,-2.5994,-2.6439,-2.6604,-2.6961,-2.7343,-2.7541,-2.7465,-2.7498,-2.8108,-2.7952,-2.7673,0.0,0.0,0.0,0.0,0.0,0.0,0.0,0.0,0.0,0.0,0.0,0.0,0.0,0.0,0.0,-2.1281,0.0,0.0,-2.0389,-1.9409,-1.885,-1.9092,-1.8261,0.0,0.0,0.0,0.0,-1.748,-1.747,-1.7254,-1.6908,-1.6807,-1.6762,-1.6752,-1.6483,-1.6501,-1.6743,-1.671,-1.7121,-1.7969,-1.8442,-1.9044,-1.9518,-1.9933,-2.0085,-2.0172,-2.121,-2.2018,-2.2652,-2.2919,-2.3494,-2.4307,-3.5818,0.0,0.0,-3.5388,0.0,0.0,-3.4043,0.0,0.0,-3.2706,-3.2229,0.0,-3.177,-3.1714,-3.1649,-3.1568,-3.1989,0.0,-3.2228,0.0,0.0,-3.3429,-3.3625,-3.3671,-3.3577,-3.4709,0.0,-3.3918,0.0,0.0,-3.3106,0.0,0.0,0.0,0.0,-2.9143,0.0,-2.738,-2.5696,-2.3548,-2.355,0.0,0.0,-2.3529,-2.3688,-2.4121,-2.4063,-2.4125,-2.4202,-2.4253,-2.418,-2.4122,-2.456,-2.5134,-2.5679,-2.5743,-2.6188,-2.6641,-2.6635,-2.6765,-2.7039,-2.7703,-2.7766,-2.7767,-2.837,-2.7977,-2.7425,0.0,0.0,0.0,0.0,0.0,0.0,0.0,0.0,0.0,0.0,0.0,0.0,0.0,-2.1319,0.0,-2.1083,-1.9404,-1.8547,-1.9088,0.0,0.0,0.0,0.0,0.0,-1.7548,-1.7392,-1.7254,-1.6908,-1.6908,-1.6908,-1.6908,-1.6679,-1.6606,-1.6652,-1.6597,-1.6859,-1.7446,-1.816,-1.8767,-1.9375,-1.9868,-2.0085,-2.0172,-2.121,-2.2171,-2.3001,-2.3001,-2.3326,-2.3818,0.0,0.0,0.0,0.0,0.0,0.0,0.0,-3.3821,0.0,-3.2688,0.0,-3.183,-3.1597,-3.1436,-3.1089,-3.0454,0.0,-3.1444,-3.1377,-3.1954,-3.2509,-3.3046,-3.328,-3.3393,-3.3393,-3.3983,0.0,0.0,0.0,0.0,-3.4084,0.0,0.0,0.0,0.0,0.0,0.0,-2.7112,-2.5591,0.0,-2.4137,-2.4021,-2.3781,-2.2776,-2.2905,-2.3505,-2.2328,-2.2648,-2.3589,-2.3599,-2.3586,-2.3629,-2.3846,-2.4364,-2.4879,-2.467,-2.5246,-2.5756,-2.529,-2.5888,-2.6659,-2.6733,-2.7083,-2.7551,-2.8167,-2.8334,-2.8235,-2.763,-2.7144,-2.6573,0.0,0.0,0.0,0.0,0.0,0.0,0.0,0.0,0.0,0.0,0.0,0.0,0.0,-1.9781,-1.8741,0.0,0.0,0.0,0.0,0.0,0.0,-1.7489,-1.7314,-1.7125,-1.6912,0.0,-1.6936,-1.6912,-1.6936,-1.6725,-1.6413,-1.6752,-1.698,-1.712,-1.8081,-1.8767,-1.9233,-1.9868,-2.0162,-2.0357,-2.1265,-2.2171,-2.3001,-2.3001,-2.3001,-2.3143,0.0,0.0,0.0,0.0,0.0,-3.3839,-3.3427,-3.2871,-3.2406,-3.2142,-3.1163,-3.0432,-3.0411,-2.983,-2.9406,-2.927,-3.0195,0.0,0.0,0.0,0.0,-3.284,-3.3208,-3.3393,-3.3393,-3.3983,-3.4073,0.0,-3.3773,-3.3457,-3.2634,0.0,0.0,0.0,0.0,0.0,-2.7261,-2.6658,0.0,-2.5005,-2.4358,-2.3547,-2.2686,-2.2475,-2.1944,-2.1251,-2.105,-2.2099,-2.3613,-2.3612,-2.3586,-2.3697,-2.4213,-2.4634,-2.4958,-2.5285,-2.5281,-2.525,-2.5708,-2.5582,-2.5573,-2.6612,-2.6858,-2.6989,-2.7535,-2.8028,-2.8235,-2.763,-2.7414,-2.7144,-2.6443,0.0,0.0,0.0,0.0,0.0,0.0,0.0,0.0,0.0,0.0,0.0,0.0,0.0,0.0,0.0,0.0,0.0,0.0,0.0,0.0,0.0,-1.747,0.0,0.0,0.0,-1.6924,-1.6884,-1.6924,-1.6872,-1.6807,-1.6872,-1.6941,-1.7005,-1.8075,-1.8576,-1.871,-1.9671,-2.062,-2.1352,-2.1516,-2.2171,-2.3001,-2.3001,-2.3001,-2.3143,0.0,0.0,0.0,0.0,0.0,0.0,0.0,-3.2121,0.0,-3.1077,-3.0607,-3.012,-2.9595,-2.9033,-2.8605,-2.8416,-2.9007,-2.9334,-2.9143,-3.0698,-3.1635,-3.1667,-3.2791,0.0,-3.2848,-3.314,-3.3173,-3.283,-3.2824,-3.2529,-3.1986,0.0,0.0,0.0,0.0,-2.8176,0.0,0.0,0.0,-2.5073,-2.4358,-2.3566,-2.279,-2.2493,-2.2057,-2.1485,-2.0921,-2.193,-2.361,-2.3599,-2.3606,-2.3643,-2.3956,-2.4421,-2.4911,-2.4925,-2.4981,-2.5067,-2.5408,-2.5274,-2.5219,-2.612,-2.6275,-2.6427,-2.7318,-2.7674,-2.7885,-2.7947,-2.773,-2.7157,-2.6064,-2.5441,0.0,0.0,0.0,0.0,0.0,0.0,0.0,0.0,0.0,0.0,0.0,0.0,0.0,0.0,0.0,0.0,0.0,0.0,0.0,0.0,0.0,0.0,0.0,0.0,0.0,-1.6901,-1.693,-1.6651,-1.6305,-1.6738,-1.6651,-1.6383,-1.7532,-1.824,-1.8586,-1.9927,-2.0937,-2.1614,-2.1865,-2.239,-2.3001,-2.3001,-2.3329,-2.3842,0.0,-3.5247,0.0,0.0,-3.3356,0.0,-3.215,-3.1382,-3.0673,-3.023,-3.012,-2.9711,-2.8839,-2.8165,-2.7686,-2.7446,-2.7828,-2.8066,-2.8061,-2.958,-3.061,-3.0818,-3.2332,-3.288,-3.2265,-3.2283,-3.2283,0.0,-3.1913,-3.1731,0.0,0.0,0.0,0.0,0.0,0.0,0.0,0.0,-2.5425,-2.4778,-2.4142,-2.3576,-2.2975,-2.24,-2.2115,-2.19,-2.1033,-2.1787,-2.3302,-2.3541,-2.3596,-2.3595,-2.3595,-2.4094,-2.4563,-2.4425,-2.4653,-2.5008,-2.4989,-2.5005,-2.5092,-2.5507,-2.5665,-2.596,-2.6884,-2.7273,-2.755,-2.8088,-2.7868,-2.7265,-2.6156,-2.584,0.0,0.0,0.0,0.0,0.0,0.0,0.0,0.0,0.0,0.0,0.0,0.0,0.0,0.0,0.0,0.0,0.0,0.0,0.0,0.0,0.0,-1.7362,-1.7024,0.0,-1.6875,-1.6888,-1.6806,-1.645,-1.5872,-1.6408,-1.6372,-1.5881,-1.7076,-1.7969,-1.8808,-2.0279,-2.1163,-2.1636,-2.2127,-2.2597,-2.3001,-2.3001,-2.3558,-2.4344,0.0,0.0,0.0,0.0,0.0,0.0,-3.1438,-3.0408,-2.9852,-3.0401,-2.9359,-2.8412,-2.7891,-2.6568,-2.5905,-2.6239,-2.6889,-2.7754,-2.8822,-2.997,-3.0871,-3.1576,-3.2092,-3.2299,-3.2127,-3.202,-3.1985,0.0,-3.1582,-3.1432,0.0,0.0,0.0,0.0,0.0,0.0,0.0,-2.5877,-2.5189,-2.4118,-2.3524,-2.2949,-2.2441,-2.1812,-2.1302,-2.0828,-2.0722,-2.1377,-2.2366,-2.3301,-2.3614,-2.3608,-2.358,-2.3655,-2.3849,-2.4402,-2.4773,-2.5008,-2.4989,-2.5005,-2.5021,-2.5045,-2.5403,-2.5753,-2.5835,-2.6653,-2.7411,-2.7473,-2.774,-2.7925,-2.7947,-2.6837,-2.5901,0.0,0.0,0.0,0.0,0.0,0.0,0.0,0.0,0.0,0.0,-2.2108,0.0,0.0,0.0,0.0,0.0,0.0,0.0,-1.8109,0.0,-1.7633,-1.7489,-1.7062,-1.6872,-1.6928,-1.651,-1.6324,-1.6219,-1.6035,-1.6035,-1.6289,-1.6862,-1.7959,-1.9306,-2.0344,-2.1107,-2.1636,-2.2127,-2.2597,-2.3001,-2.3001,-2.334,-2.3864,0.0,0.0,0.0,0.0,0.0,0.0,0.0,-2.9062,-2.8442,-2.8151,-2.7434,-2.6704,-2.6086,-2.5128,-2.4798,-2.5388,-2.5151,-2.5359,-2.6251,-2.7572,-2.8613,-2.9291,-3.0716,-3.1481,-3.1376,-3.147,-3.1487,0.0,0.0,0.0,0.0,0.0,0.0,0.0,0.0,-2.7485,-2.5877,-2.5837,-2.5147,-2.406,-2.3459,-2.2871,-2.235,-2.1734,-2.1159,-2.0699,-2.0706,-2.1315,-2.2245,-2.3109,-2.348,-2.3595,-2.3606,-2.358,-2.3595,-2.3568,-2.4256,-2.4999,-2.4981,-2.5005,-2.4966,-2.4902,-2.4945,-2.5134,-2.5512,-2.6176,-2.6872,-2.7303,-2.7743,-2.7883,-2.7555,-2.718,-2.6802,0.0,0.0,0.0,0.0,0.0,0.0,0.0,0.0,0.0,0.0,0.0,0.0,0.0,0.0,0.0,0.0,0.0,0.0,-1.8518,0.0,-1.7562,-1.7524,-1.7113,-1.6912,-1.6926,-1.6483,-1.6202,-1.5982,-1.6053,-1.6263,-1.6691,-1.7226,-1.7969,-1.8906,-2.0188,-2.108,-2.1658,-2.2433,-2.2837,-2.3034,-2.3329,-2.3755,-2.4257,-3.356,0.0,-3.1809,0.0,-2.9524,-2.8626,-2.7783,-2.7162,-2.6406,-2.5265,-2.4863,-2.4616,-2.4354,-2.3943,-2.3771,-2.4162,-2.3638,-2.3616,-2.4462,-2.5596,-2.6555,-2.7274,-2.9057,0.0,-3.0342,-3.0622,-3.078,-3.0773,-3.0831,0.0,0.0,0.0,0.0,0.0,-2.8367,-2.7174,-2.5783,-2.5783,-2.5037,-2.3799,-2.321,-2.2622,-2.2047,-2.1472,-2.1002,-2.0712,-2.0662,-2.1166,-2.1949,-2.263,-2.3132,-2.3481,-2.351,-2.3481,-2.3319,-2.3003,-2.3749,-2.4722,-2.4698,-2.4766,-2.4766,-2.4686,-2.4605,-2.4688,-2.5102,-2.5805,-2.6595,-2.7441,-2.7832,-2.7853,-2.7303,-2.7459,-2.7475,-2.6961,0.0,0.0,0.0,0.0,0.0,0.0,-2.2782,-2.2576,-2.1506,0.0,0.0,0.0,0.0,0.0,0.0,0.0,0.0,0.0,0.0,0.0,0.0,-1.7101,-1.6908,-1.6908,-1.6412,-1.6053,-1.5982,-1.6202,-1.6544,-1.6942,-1.7544,-1.8151,-1.8765,-2.0309,-2.1195,-2.1663,-2.2611,-2.3088,-2.3263,-2.3602,-2.4137,-2.4738,-3.2429,-3.119,-2.9847,-2.8745,-2.8105,-2.7146,-2.5495,-2.4654,-2.3688,-2.2091,-2.1758,-2.2018,-2.2906,-2.3005,-2.2832,-2.2368,-2.2613,-2.3294,-2.4434,-2.4783,-2.537,0.0,0.0,-2.8056,-2.9017,-2.9433,-2.9919,-3.051,0.0,0.0,-3.0692,0.0,-2.9805,-2.9194,-2.867,-2.7485,-2.5783,-2.5783,-2.4778,-2.3184,-2.2635,-2.206,-2.1459,-2.0935,-2.0712,-2.0662,-2.0562,-2.0835,-2.1286,-2.1698,-2.2419,-2.3209,-2.329,-2.3113,-2.2936,-2.2907,-2.342,-2.4025,-2.4,-2.4151,-2.4302,-2.4302,-2.44,-2.4498,-2.4513,-2.5497,-2.6719,-2.7944,-2.8088,-2.7955,-2.784,-2.7675,-2.7625,-2.761,0.0,0.0,0.0,0.0,0.0,0.0,-2.4165,-2.3961,-2.1656,0.0,0.0,0.0,0.0,0.0,0.0,0.0,0.0,-1.9173,-1.828,0.0,-1.7495,-1.7101,-1.6908,-1.6908,-1.6193,-1.5982,-1.6272,-1.6272,-1.6555,-1.6927,-1.7779,-1.8397,-1.9033,-2.0556,-2.1271,-2.1523,-2.2583,-2.3296,-2.3722,-2.3733,-2.4334,-2.5164,-3.0897,-2.9416,-2.7827,-2.6363,-2.4962,-2.3626,-2.2526,-2.2119,-2.1551,-2.0375,-1.9946,-1.9683,-1.9431,-2.0464,-2.134,0.0,-2.1188,-2.1225,0.0,-2.2463,-2.3271,-2.4697,-2.5508,-2.6883,-2.8818,-2.8992,-2.9272,-2.9764,0.0,0.0,0.0,-2.9892,-2.9345,-2.9104,-2.8271,-2.7075,-2.573,-2.5364,-2.4431,-2.3058,-2.2181,-2.1681,-2.1446,-2.0783,-2.0562,-2.0562,-2.0347,-2.0623,-2.1091,-2.1104,-2.1759,-2.2566,-2.2555,-2.2694,-2.2892,-2.2878,-2.3068,-2.3171,-2.2875,-2.345,-2.4116,-2.3994,-2.4234,-2.4498,-2.4359,-2.5364,-2.6688,-2.7959,-2.8103,-2.7955,-2.784,-2.7675,-2.7625,-2.7625,-2.7021,0.0,0.0,0.0,0.0,0.0,-2.3306,-2.3117,0.0,-2.2617,0.0,0.0,0.0,0.0,0.0,0.0,0.0,0.0,-1.8286,0.0,-1.7495,-1.7101,-1.6908,-1.6908,-1.6412,-1.6202,-1.6272,-1.6272,-1.6696,-1.7288,-1.756,-1.8136,-1.9024,-2.0257,-2.1015,-2.1555,-2.295,-2.3591,-2.3809,-2.4476,-2.4912,-2.5218,-2.8945,-2.7196,-2.536,-2.3724,-2.2192,-2.0845,-1.9842,-1.9623,-1.9271,-1.8248,-1.8105,-1.7827,-1.7226,-1.8344,0.0,-2.0197,-2.013,-2.0198,-2.0603,-2.0802,-2.1321,-2.2359,-2.3617,-2.5178,-2.7125,-2.7538,0.0,-2.8543,-2.9247,-2.9609,-2.9704,-2.905,-2.8744,-2.8685,-2.7686,-2.6547,-2.5312,-2.4761,-2.3758,-2.2365,-2.1642,-2.1212,-2.0991,-2.054,-2.041,-2.0347,-2.0195,-2.0321,-2.061,-2.0709,-2.1272,-2.1988,-2.217,-2.242,-2.2741,-2.2877,-2.2922,-2.2819,-2.235,-2.2717,-2.3286,-2.3304,-2.361,-2.4046,-2.4633,-2.5542,-2.6642,-2.7862,-2.8005,-2.7905,-2.774,-2.7675,-2.7625,-2.7625,-2.6811,-2.5935,-2.5357,0.0,0.0,0.0,0.0,0.0,0.0,-2.2811,-2.2931,0.0,0.0,0.0,0.0,0.0,0.0,-1.9643,-1.8458,0.0,-1.7275,-1.7027,-1.6908,-1.6908,-1.6774,-1.6696,-1.6564,-1.6857,-1.7361,-1.7954,-1.7954,-1.8406,-1.9099,-2.0039,-2.0838,-2.1435,-2.2796,-2.3599,-2.4104,-2.488,-2.5295,-2.5491,-2.6548,-2.4606,0.0,0.0,-1.975,0.0,-1.7533,-1.7376,-1.699,-1.5876,-1.6233,-1.649,-1.6281,-1.6731,-1.7407,-1.823,0.0,0.0,0.0,-1.9782,-1.9717,-1.9704,-2.1528,-2.3132,-2.4323,-2.5331,-2.623,-2.6999,-2.7387,-2.7698,-2.8012,-2.7908,-2.7891,-2.7908,-2.6928,-2.5827,-2.4651,-2.3998,-2.2753,-2.125,-2.112,-2.0694,-2.0182,-2.0182,-2.0182,-2.0182,-2.0029,-1.999,-2.0029,-2.0409,-2.0894,-2.1465,-2.1969,-2.2235,-2.2452,-2.2747,-2.285,-2.2729,-2.2292,-2.2002,-2.2013,-2.2363,-2.2694,-2.336,-2.5116,-2.5817,-2.6412,-2.7682,-2.784,-2.7725,-2.7625,-2.7625,-2.7625,-2.7625,-2.6355,-2.5364,-2.5298,0.0,0.0,0.0,0.0,0.0,0.0,-2.3089,-2.3133,0.0,0.0,0.0,0.0,0.0,-2.1777,-1.9628,-1.889,-1.8037,-1.6968,-1.6908,-1.6917,-1.6954,-1.7321,-1.7297,-1.7044,-1.7797,-1.8339,-1.8715,-1.8715,-1.8935,-1.9381,-1.9932,-2.0644,-2.1332,-2.2403,-2.3513,-2.4596,-2.5054,-2.5513,-2.5895,0.0,0.0,-1.9748,-1.8647,-1.7748,-1.6848,-1.5835,-1.5951,-1.5974,-1.5358,-1.5393,-1.5586,-1.5876,-1.6256,-1.6769,-1.7419,-1.8512,-1.932,-1.973,-1.9724,-1.9686,-1.9701,-2.0186,-2.1495,-2.3734,-2.4058,-2.4829,-2.6193,-2.6246,-2.6572,-2.7182,-2.6698,-2.6474,-2.6489,-2.5851,-2.4922,-2.3786,-2.3252,-2.2305,-2.102,-2.0578,-2.0348,-2.0182,-2.008,-2.0042,-2.0029,-1.9926,-1.9862,-1.9862,-1.9952,-2.0497,-2.114,-2.1237,-2.1718,-2.2296,-2.248,-2.2463,-2.2231,-2.173,-2.1732,-2.1967,-2.2207,-2.2572,-2.3223,-2.4534,-2.4922,-2.5399,-2.6857,-2.7122,-2.7225,-2.756,-2.7625,-2.7625,-2.7625,-2.6355,-2.5364,-2.5298,-2.4038,0.0,0.0,-2.3499,-2.3833,-2.3673,-2.3715,-2.3947,0.0,0.0,0.0,0.0,-2.3123,-2.218,-2.0602,-1.9222,-1.8297,-1.7881,-1.7226,-1.7055,-1.7358,-1.7449,-1.7588,-1.7824,-1.7999,-1.8339,-1.8715,-1.8715,-1.8935,-1.9381,-1.9932,-2.082,-2.1876,-2.296,-2.3993,-2.5065,-2.5546,-2.5797,-2.5895,-2.032,-1.9008,-1.7716,-1.6678,-1.5973,-1.5378,-1.4866,-1.5013,-1.5081,-1.4822,-1.4789,-1.5051,-1.5744,-1.5772,-1.6137,-1.7115,-1.7774,-1.8268,-1.8526,-1.857,-1.945,-2.1395,-2.0934,-2.1296,-2.2693,-2.3327,-2.3964,-2.478,-2.4722,-2.5056,-2.5693,-2.5559,-2.5546,-2.557,-2.5067,-2.4305,-2.3345,-2.2582,-2.173,-2.0845,-2.0258,-2.0016,-2.0016,-1.9926,-1.9926,-1.9926,-1.9811,-1.9759,-1.9708,-1.9708,-2.0093,-2.0633,-2.0633,-2.1126,-2.1766,-2.1833,-2.1955,-2.1949,-2.152,-2.1513,-2.1688,-2.1813,-2.2367,-2.3089,-2.3992,-2.4547,-2.5185,-2.6593,-2.6849,-2.6982,-2.7509,-2.7625,-2.747,-2.7121,-2.6113,-2.5364,-2.525,-2.4241,0.0,-2.3775,-2.4109,-2.4326,-2.4326,-2.431,-2.4544,-2.5159,-2.4096,0.0,-2.3831,-2.3096,-2.2084,-2.0921,-1.9607,-1.868,-1.82,-1.7543,-1.7284,-1.7495,-1.7871,-1.8174,-1.8394,-1.8577,-1.8779,-1.8981,-1.8981,-1.9256,-1.9775,-2.0089,-2.1036,-2.2422,-2.3196,-2.4164,-2.5229,-2.5721,-2.5895,-2.5895,-1.8128,-1.7193,-1.6276,-1.5329,-1.4762,-1.4435,-1.4482,-1.4428,-1.4373,-1.4373,-1.4373,-1.4686,-1.5567,-1.5266,-1.5614,-1.7063,-1.7253,-1.734,-1.7409,-1.7282,-1.899,-2.3006,-2.2392,-2.2004,-2.1997,-2.2964,-2.3437,-2.3334,-2.3344,-2.3613,-2.4145,-2.4448,-2.4641,-2.4736,-2.4288,-2.3789,-2.3172,-2.2193,-2.134,-2.0597,-2.0055,-1.9798,-1.9798,-1.9798,-1.9798,-1.9747,-1.9747,-1.9656,-1.9565,-1.9565,-1.9798,-2.0131,-2.0131,-2.0584,-2.1153,-2.1247,-2.1594,-2.1863,-2.1499,-2.1375,-2.1375,-2.1375,-2.204,-2.2815,-2.3474,-2.4187,-2.5103,-2.6442,-2.6654,-2.6774,-2.7458,-2.7575,-2.7345,-2.6664,-2.5927,-2.5416,-2.5286,0.0,-2.4334,-2.4776,-2.4872,-2.493,-2.4881,-2.4881,-2.5056,-2.5393,-2.4164,-2.3576,-2.3936,-2.2823,-2.1851,-2.1112,-2.0128,-1.9135,-1.8142,-1.7699,-1.7523,-1.7596,-1.8348,-1.8742,-1.8815,-1.9146,-1.9301,-1.9301,-1.9301,-1.9618,-2.0167,-2.0167,-2.1301,-2.2987,-2.3307,-2.4207,-2.5327,-2.5742,-2.5895,-2.5895,-1.6491,-1.6012,-1.5558,-1.5391,-1.4985,-1.4703,-1.479,-1.4482,-1.4269,-1.4384,-1.4326,-1.4455,-1.4994,-1.4846,-1.5371,-1.688,-1.7626,-1.8072,-1.8288,-1.7606,-1.8357,-2.1034,-2.2516,-2.332,-2.3301,-2.3113,-2.301,-2.2966,-2.3143,-2.3275,-2.3377,-2.3273,-2.3227,-2.3238,-2.3136,-2.308,-2.2963,-2.2768,-2.1637,-1.9952,-1.985,-1.9798,-1.9798,-1.9798,-1.9759,-1.9604,-1.9604,-1.9565,-1.942,-1.942,-1.9604,-1.985,-1.985,-2.0295,-2.0951,-2.1467,-2.1918,-2.2111,-2.1559,-2.1326,-2.1229,-2.1229,-2.1622,-2.2161,-2.2671,-2.3244,-2.4067,-2.5656,-2.5946,-2.6283,-2.7408,-2.7488,-2.7408,-2.7253,-2.6474,-2.5898,-2.5848,0.0,-2.4733,-2.4863,-2.5328,-2.5546,-2.5306,-2.5306,-2.537,-2.5466,-2.4035,-2.3306,-2.3657,-2.2714,-2.2123,-2.1987,-2.0794,-1.941,-1.7765,-1.7567,-1.7669,-1.8027,-1.8495,-1.8889,-1.921,-1.9274,-1.9301,-1.9301,-1.9301,-1.9618,-2.0167,-2.0167,-2.149,-2.344,-2.3433,-2.441,-2.5797,-2.5874,-2.5895,-2.5895,-1.5607,-1.5367,-1.5212,-1.5351,-1.5054,-1.4853,-1.5124,-1.4789,-1.4489,-1.4537,-1.4489,-1.4562,-1.4789,-1.4733,-1.5308,-1.6892,-1.7554,-1.82,-1.884,-1.8703,-1.9098,-2.0154,-2.1077,-2.2088,-2.3172,-2.3002,-2.2918,-2.2921,-2.3008,-2.3022,-2.3007,-2.2661,-2.2509,-2.2509,-2.2203,-2.2183,-2.2332,-2.1999,-2.1362,-2.059,-2.0054,-1.9759,-1.9708,-1.9708,-1.9617,-1.946,-1.946,-1.942,-1.9275,-1.9275,-1.9499,-1.9785,-1.9785,-2.0557,-2.1432,-2.1718,-2.2034,-2.22,-2.1866,-2.1471,-2.126,-2.1519,-2.19,-2.2406,-2.2933,-2.3401,-2.4103,-2.5148,-2.5577,-2.6054,-2.6878,-2.7218,-2.7232,-2.6724,-2.63,0.0,0.0,-2.5581,-2.5487,-2.5865,-2.6155,-2.6211,-2.5936,-2.5883,-2.5799,-2.5536,-2.4326,-2.3573,-2.3623,-2.2714,-2.1999,-2.1675,-2.0473,-1.926,-1.8033,-1.7903,-1.8036,-1.8449,-1.8843,-1.9127,-1.9301,-1.9301,-1.9301,-1.9311,-1.954,-2.0193,-2.1155,-2.1382,-2.2574,-2.4422,-2.4422,-2.5016,-2.5895,-2.5895,-2.5895,-2.5895,-1.5122,-1.5142,-1.5224,-1.5447,-1.5226,-1.5091,-1.5458,-1.515,-1.4842,-1.4842,-1.4842,-1.4842,-1.4818,-1.4795,-1.54,-1.6943,-1.734,-1.7962,-1.9083,-1.9421,-1.968,-1.9804,-1.9814,-2.0527,-2.2161,-2.263,-2.2922,-2.2884,-2.2663,-2.2575,-2.2663,-2.2203,-2.2016,-2.1983,-2.1575,-2.141,-2.1367,-2.0848,-2.0791,-2.0948,-2.0144,-1.9733,-1.9654,-1.9565,-1.9473,-1.938,-1.938,-1.9275,-1.917,-1.917,-1.9455,-1.9836,-1.9946,-2.0852,-2.1882,-2.2176,-2.2445,-2.2544,-2.2307,-2.1894,-2.1603,-2.1954,-2.2419,-2.2865,-2.3286,-2.3738,-2.4287,-2.4892,-2.5314,-2.5673,-2.6176,-2.6616,-2.668,-2.6134,0.0,0.0,0.0,-2.601,-2.6199,-2.6721,-2.6779,-2.6659,-2.6244,-2.619,-2.5988,-2.5425,-2.458,-2.3917,-2.3636,-2.2825,-2.204,-2.1277,-2.0183,-1.9344,-1.8674,-1.8495,-1.8629,-1.8935,-1.9187,-1.9301,-1.9301,-1.9301,-1.9301,-1.932,-1.9641,-2.0552,-2.1938,-2.2191,-2.3481,-2.5175,-2.5175,-2.5469,-2.5895,-2.5895,-2.5895,-2.5895,-1.4904,-1.5382,-1.5662,-1.5693,-1.5673,-1.5673,-1.5867,-1.5468,-1.5226,-1.533,-1.5226,-1.5153,-1.5163,-1.5039,-1.5613,-1.7226,-1.6882,-1.7289,-1.8903,-1.9044,-1.9294,-1.9787,-1.98,-1.9861,-2.0049,-2.1938,-2.2912,-2.2898,-2.1997,-2.1657,-2.1951,-2.1629,-2.1465,-2.1465,-2.1417,-2.086,-1.9949,-1.99,-1.9915,-1.9911,-1.9847,-1.978,-1.9766,-1.9433,-1.9316,-1.9312,-1.9247,-1.9117,-1.8987,-1.8987,-1.9336,-1.9891,-2.0316,-2.1016,-2.1903,-2.2932,-2.3411,-2.3498,-2.2898,-2.2631,-2.2498,-2.2537,-2.2863,-2.3171,-2.321,-2.3681,-2.4287,-2.4892,-2.4865,-2.4951,-2.5563,-2.5508,-2.5494,-2.5997,0.0,0.0,-2.6654,-2.6707,-2.6721,-2.6779,-2.6779,-2.6568,-2.6002,-2.5948,-2.5674,-2.5061,-2.4593,-2.4047,-2.3636,-2.322,-2.2562,-2.143,-2.0447,-1.9891,-1.9865,-1.9644,-1.9477,-1.9516,-1.9334,-1.9301,-1.9301,-1.9301,-1.9301,-1.9301,-1.9329,-2.0346,-2.1918,-2.1948,-2.32,-2.5175,-2.5175,-2.5469,-2.5895,-2.5895,-2.5895,-2.5895,-1.4914,-1.4987,-1.4963,-1.5084,-1.5009,-1.5118,-1.5522,-1.5546,-1.5539,-1.5593,-1.5539,-1.5371,-1.5081,-1.5309,-1.5796,-1.6758,-1.6884,-1.7345,-1.8363,-1.8762,-1.9251,-1.9798,-1.9825,-1.9813,-1.9811,-2.0562,-2.1601,-2.2904,-2.2516,-2.2102,-2.1582,-2.1475,-2.1385,-2.1385,-2.0703,-2.0169,-1.9786,-1.962,-1.9453,-1.9294,-1.9448,-1.9433,-1.9287,-1.9263,-1.917,-1.9117,-1.9117,-1.9052,-1.9035,-1.9372,-1.9718,-2.0163,-2.1072,-2.1596,-2.2038,-2.3005,-2.3663,-2.3993,-2.3681,-2.3115,-2.2641,-2.2929,-2.3067,-2.3315,-2.3694,-2.3955,-2.4112,-2.4287,-2.4536,-2.4738,-2.4794,-2.5007,-2.5231,-2.5398,0.0,-2.6002,-2.6233,-2.6568,-2.6779,-2.6779,-2.6606,-2.6312,-2.5948,-2.5743,-2.5355,-2.465,-2.4105,-2.3649,-2.3185,-2.2654,-2.2186,-2.1845,-2.1592,-2.1101,-2.0443,-2.0262,-2.0115,-1.9995,-1.9925,-1.9696,-1.9301,-1.9301,-1.9301,-1.9329,-2.032,-2.1364,-2.2372,-2.334,-2.4532,-2.5622,-2.5622,-2.5732,-2.5895,-2.5895,-2.5895,-2.5895,-1.4419,-1.4408,-1.435,-1.4426,-1.4473,-1.4676,-1.5293,-1.5519,-1.5665,-1.5908,-1.5908,-1.5784,-1.5463,-1.5711,-1.6164,-1.6678,-1.6872,-1.7224,-1.7765,-1.8375,-1.9016,-1.9747,-1.9798,-1.9774,-1.9826,-1.9799,-2.0657,-2.2415,-2.2103,-2.1743,-2.1399,-2.1062,-2.0887,-2.0874,-2.0064,-1.9611,-1.9534,-1.9344,-1.9178,-1.9036,-1.9137,-1.9109,-1.9016,-1.9105,-1.9052,-1.8987,-1.8987,-1.8934,-1.8964,-1.949,-1.979,-2.0135,-2.1271,-2.1958,-2.2482,-2.3075,-2.3695,-2.4203,-2.4112,-2.355,-2.3083,-2.335,-2.3441,-2.3545,-2.3904,-2.3995,-2.3995,-2.3832,-2.4086,-2.4234,-2.4073,-2.4279,-2.4553,-2.4681,-2.5077,-2.5495,-2.5839,-2.6165,-2.6433,-2.6606,-2.6365,-2.6096,-2.5798,-2.5605,-2.5201,-2.435,-2.4158,-2.3879,-2.3516,-2.2798,-2.2343,-2.2338,-2.2485,-2.2074,-2.1222,-2.1093,-2.0873,-2.0547,-2.0313,-2.0001,-1.9539,-1.9519,-1.9574,-1.9841,-2.1043,-2.2089,-2.2919,-2.4127,-2.5157,-2.5895,-2.5895,-2.5895,-2.5895,-2.5895,-2.5895,-2.5895,-1.3297,-1.3714,-1.3978,-1.3847,-1.4194,-1.4706,-1.5294,-1.541,-1.5652,-1.6316,-1.6384,-1.6384,-1.6384,-1.6384,-1.6581,-1.7157,-1.6684,-1.6637,-1.7146,-1.7754,-1.8632,-1.9747,-1.9798,-1.9798,-1.9798,-1.9788,-2.0319,-2.1372,-2.0346,-2.0359,-2.1361,-2.0283,-1.979,-1.9778,-1.9522,-1.9254,-1.9,-1.9,-1.8984,-1.8992,-1.8992,-1.9016,-1.8987,-1.8987,-1.8987,-1.8987,-1.8987,-1.8839,-1.8642,-1.9116,-1.9448,-1.9771,-2.0759,-2.2102,-2.3255,-2.3148,-2.3543,-2.4125,-2.4112,-2.4008,-2.3903,-2.3891,-2.4008,-2.3995,-2.3688,-2.376,-2.3832,-2.3628,-2.3509,-2.3403,-2.3403,-2.321,-2.3305,-2.4002,-2.4131,-2.4523,-2.5729,-2.5591,-2.5618,-2.6229,-2.6042,-2.5798,-2.5494,-2.5508,-2.5145,-2.4363,-2.4774,-2.4972,-2.4718,-2.3839,-2.3231,-2.2925,-2.297,-2.2783,-2.2324,-2.2179,-2.1797,-2.1165,-2.0547,-2.0167,-2.0177,-1.9975,-2.0242,-2.0799,-2.1414,-2.2257,-2.323,-2.3909,-2.4868,-2.5895,-2.5895,-2.5895,-2.5895,-2.5895,-2.5895,-2.5895,-1.2824,-1.3125,-1.3323,-1.3156,-1.3956,-1.4659,-1.4777,-1.5536,-1.6192,-1.6374,-1.6384,-1.6384,-1.6384,-1.6384,-1.6488,-1.6637,-1.6488,-1.6761,-1.7611,-1.7843,-1.8429,-1.946,-1.9617,-1.9656,-1.9656,-1.9643,-1.9874,-2.027,-1.9567,-1.9401,-1.9693,-1.938,-1.9223,-1.9223,-1.9158,-1.9081,-1.9004,-1.9004,-1.9016,-1.8975,-1.8975,-1.8987,-1.8987,-1.8987,-1.8881,-1.8721,-1.8721,-1.874,-1.8904,-1.9345,-1.9627,-1.9907,-2.0266,-2.1673,-2.3075,-2.2531,-2.3389,-2.4455,-2.4053,-2.4116,-2.4189,-2.3994,-2.3819,-2.3747,-2.3628,-2.3628,-2.3641,-2.3509,-2.3463,-2.3343,-2.321,-2.3138,-2.3198,-2.3365,-2.378,-2.4176,-2.4381,-2.4711,-2.4924,-2.5036,-2.4768,-2.4553,-2.4452,-2.4616,-2.4507,-2.39,-2.4104,-2.4062,-2.3804,-2.3501,-2.3247,-2.2992,-2.2999,-2.2936,-2.2794,-2.2339,-2.1797,-2.1165,-2.1011,-2.0469,-1.9627,-2.0198,-2.0709,-2.0989,-2.2211,-2.3203,-2.394,-2.486,-2.543,-2.5906,-2.5728,-2.5812,-2.5895,-2.5895,-2.5895,-2.5895,-1.249,-1.2654,-1.2706,-1.257,-1.321,-1.3884,-1.4246,-1.4991,-1.571,-1.6144,-1.6202,-1.6202,-1.6202,-1.6202,-1.6202,-1.6202,-1.6202,-1.6534,-1.7412,-1.7678,-1.8224,-1.904,-1.9316,-1.9473,-1.9512,-1.9485,-1.9534,-1.9661,-1.9226,-1.8996,-1.9008,-1.8992,-1.9016,-1.9016,-1.8987,-1.8987,-1.8987,-1.8987,-1.8987,-1.8987,-1.8987,-1.8934,-1.8827,-1.8827,-1.8667,-1.8433,-1.8631,-1.8732,-1.8817,-1.9522,-1.9857,-2.0023,-2.0052,-2.125,-2.258,-2.2366,-2.343,-2.4532,-2.4185,-2.4218,-2.4211,-2.3795,-2.3641,-2.3569,-2.3437,-2.3615,-2.3717,-2.3381,-2.3447,-2.3611,-2.3477,-2.3288,-2.3215,-2.3728,-2.3847,-2.4073,-2.4387,-2.4385,-2.4406,-2.4582,-2.4374,-2.4059,-2.3884,-2.4368,-2.4633,-2.435,-2.4014,-2.3893,-2.3931,-2.367,-2.3363,-2.3213,-2.3075,-2.3001,-2.3001,-2.2402,-2.2032,-2.1804,-2.1804,-2.1507,-2.0985,-2.125,-2.1689,-2.2291,-2.3096,-2.3832,-2.4545,-2.5273,-2.5728,-2.5895,-2.5559,-2.5644,-2.5906,-2.5812,-2.5822,-2.5895,-1.2165,-1.2254,-1.2265,-1.2128,-1.2243,-1.272,-1.3855,-1.4145,-1.4638,-1.574,-1.5914,-1.5914,-1.5914,-1.5914,-1.5914,-1.5914,-1.5914,-1.6134,-1.6751,-1.7346,-1.7941,-1.8548,-1.8946,-1.9223,-1.9368,-1.9291,-1.9316,-1.9348,-1.9105,-1.9016,-1.8987,-1.8987,-1.8987,-1.8987,-1.8987,-1.8987,-1.8987,-1.8987,-1.8987,-1.8934,-1.8934,-1.8774,-1.856,-1.8607,-1.8414,-1.8221,-1.8725,-1.8748,-1.8628,-1.9555,-1.9949,-2.0085,-2.0085,-2.0948,-2.2103,-2.2531,-2.3501,-2.4391,-2.4313,-2.4253,-2.4103,-2.3571,-2.3564,-2.3564,-2.3223,-2.3638,-2.3965,-2.3314,-2.3665,-2.4067,-2.4067,-2.364,-2.3566,-2.4593,-2.419,-2.4142,-2.5116,-2.452,-2.4141,-2.4658,-2.4512,-2.4137,-2.3662,-2.4544,-2.5161,-2.5314,-2.4534,-2.4261,-2.4694,-2.4043,-2.3615,-2.3586,-2.3216,-2.3088,-2.3132,-2.2606,-2.2482,-2.284,-2.284,-2.3014,-2.3395,-2.2695,-2.2968,-2.4075,-2.3941,-2.4241,-2.4946,-2.5391,-2.5644,-2.5812,-2.5369,-2.5464,-2.5812,-2.5644,-2.5728,-2.5895,-1.1642,-1.1933,-1.215,-1.2112,-1.2536,-1.313,-1.3906,-1.4442,-1.504,-1.5788,-1.5914,-1.5914,-1.5914,-1.5914,-1.5914,-1.5914,-1.5914,-1.6134,-1.6637,-1.7179,-1.771,-1.8213,-1.8709,-1.9052,-1.9105,-1.9093,-1.9052,-1.9064,-1.904,-1.8987,-1.8987,-1.8987,-1.8987,-1.8987,-1.8987,-1.8987,-1.8987,-1.8987,-1.8881,-1.8667,-1.8667,-1.8506,-1.8239,-1.8686,-1.8612,-1.8373,-1.8879,-1.9137,-1.9197,-1.9416,-1.9683,-1.9889,-1.9889,-2.1228,-2.278,-2.2486,-2.343,-2.4489,-2.3801,-2.4014,-2.4352,-2.3992,-2.4205,-2.4293,-2.3339,-2.3577,-2.4016,-2.3841,-2.4255,-2.4644,-2.4644,-2.4544,-2.4467,-2.4564,-2.4437,-2.4335,-2.4316,-2.41,-2.3961,-2.4026,-2.3973,-2.3872,-2.375,-2.431,-2.484,-2.5247,-2.4885,-2.4517,-2.4334,-2.3897,-2.3624,-2.371,-2.3569,-2.3766,-2.4159,-2.4013,-2.3616,-2.284,-2.284,-2.2777,-2.2839,-2.3443,-2.3888,-2.4178,-2.4291,-2.4765,-2.5475,-2.5295,-2.5285,-2.5369,-2.5464,-2.5559,-2.5654,-2.5812,-2.5895,-2.5895,-1.1548,-1.169,-1.1879,-1.1879,-1.2166,-1.2712,-1.3614,-1.4094,-1.4628,-1.5546,-1.5662,-1.5662,-1.5662,-1.5662,-1.5662,-1.5662,-1.5662,-1.5884,-1.6436,-1.6708,-1.7179,-1.791,-1.8235,-1.855,-1.8864,-1.9321,-1.9345,-1.8987,-1.8987,-1.8987,-1.8987,-1.8987,-1.8987,-1.8987,-1.8881,-1.8827,-1.8774,-1.8614,-1.8506,-1.8344,-1.8344,-1.8193,-1.7954,-1.8215,-1.8295,-1.8264,-1.8751,-1.9208,-1.9629,-1.9629,-1.9673,-1.9681,-1.9681,-2.0809,-2.2126,-2.2115,-2.3264,-2.4529,-2.403,-2.4489,-2.4932,-2.4466,-2.4607,-2.4669,-2.4079,-2.4368,-2.4682,-2.4443,-2.482,-2.5197,-2.5197,-2.4918,-2.4788,-2.5244,-2.4975,-2.4688,-2.4742,-2.4481,-2.4189,-2.4121,-2.4133,-2.423,-2.4482,-2.4747,-2.5119,-2.5648,-2.5439,-2.5147,-2.4923,-2.4321,-2.4062,-2.4082,-2.4093,-2.4224,-2.4486,-2.4486,-2.4295,-2.3913,-2.3913,-2.4009,-2.4147,-2.4378,-2.465,-2.4849,-2.4575,-2.485,-2.538,-2.5285,-2.52,-2.52,-2.538,-2.538,-2.5464,-2.5644,-2.5812,-2.5906,-1.1622,-1.1622,-1.1622,-1.1622,-1.1685,-1.2112,-1.3139,-1.3502,-1.4043,-1.5118,-1.5352,-1.541,-1.541,-1.541,-1.541,-1.541,-1.5478,-1.5712,-1.614,-1.6399,-1.6838,-1.7644,-1.7835,-1.8134,-1.8699,-1.9481,-1.9563,-1.8959,-1.8976,-1.8994,-1.8934,-1.8934,-1.8881,-1.8839,-1.8614,-1.8506,-1.8506,-1.8193,-1.8084,-1.803,-1.803,-1.7865,-1.7678,-1.779,-1.7988,-1.8196,-1.8742,-1.9326,-1.9868,-1.9868,-1.9843,-1.9783,-1.9783,-2.0471,-2.1448,-2.1849,-2.3121,-2.4396,-2.4366,-2.4915,-2.5478,-2.5018,-2.5021,-2.5096,-2.5096,-2.536,-2.5473,-2.5046,-2.5385,-2.5682,-2.5682,-2.5186,-2.5054,-2.5983,-2.546,-2.5095,-2.5475,-2.5009,-2.465,-2.465,-2.465,-2.4867,-2.5396,-2.5444,-2.5661,-2.6202,-2.5908,-2.5716,-2.5716,-2.4948,-2.453,-2.4607,-2.4607,-2.465,-2.4727,-2.4727,-2.4923,-2.5295,-2.5295,-2.5513,-2.5895,-2.5295,-2.5295,-2.5654,-2.4935,-2.485,-2.52,-2.5285,-2.52,-2.5115,-2.5285,-2.5285,-2.52,-2.5464,-2.5728,-2.5895,-1.1622,-1.1622,-1.1622,-1.1622,-1.1622,-1.1856,-1.2512,-1.313,-1.3803,-1.4529,-1.5059,-1.541,-1.541,-1.541,-1.541,-1.541,-1.5752,-1.587,-1.5546,-1.6718,-1.7336,-1.712,-1.7959,-1.8506,-1.8722,-1.8803,-1.8879,-1.8815,-1.8943,-1.8885,-1.8667,-1.8525,-1.8417,-1.8193,-1.8193,-1.8193,-1.8139,-1.8139,-1.7986,-1.7767,-1.7767,-1.7601,-1.7422,-1.8243,-1.8594,-1.8709,-1.9488,-1.9695,-1.9671,-1.9671,-2.0022,-2.0558,-2.0558,-2.1568,-2.263,-2.2186,-2.3055,-2.4107,-2.378,-2.4482,-2.535,-2.549,-2.5862,-2.6239,-2.6239,-2.59,-2.5573,-2.5511,-2.5827,-2.6089,-2.6089,-2.5889,-2.5726,-2.5664,-2.5545,-2.5451,-2.537,-2.5252,-2.5204,-2.5204,-2.5204,-2.5408,-2.5937,-2.5985,-2.6226,-2.6779,-2.613,-2.5716,-2.5716,-2.4948,-2.4672,-2.5065,-2.5076,-2.5284,-2.571,-2.571,-2.5742,-2.5808,-2.5808,-2.5841,-2.5895,-2.5812,-2.5812,-2.5812,-2.5559,-2.538,-2.52,-2.5464,-2.5137,-2.4711,-2.5475,-2.5464,-2.4946,-2.52,-2.5549,-2.5895,-1.1622,-1.1622,-1.1622,-1.1622,-1.1622,-1.1926,-1.2887,-1.3321,-1.3863,-1.4883,-1.5235,-1.541,-1.541,-1.541,-1.541,-1.541,-1.5586,-1.5723,-1.5771,-1.6325,-1.6576,-1.6457,-1.7149,-1.7529,-1.7461,-1.8553,-1.8867,-1.8341,-1.8949,-1.9056,-1.8774,-1.8695,-1.8652,-1.8552,-1.81,-1.7877,-1.7865,-1.7711,-1.7601,-1.7512,-1.7743,-1.7796,-1.7759,-1.8316,-1.874,-1.9076,-1.9566,-1.9775,-1.9807,-1.9807,-2.0111,-2.0512,-2.0512,-2.1177,-2.1893,-2.1607,-2.2721,-2.4089,-2.3921,-2.4927,-2.5963,-2.607,-2.6264,-2.6465,-2.6339,-2.614,-2.5965,-2.5965,-2.6096,-2.6131,-2.6062,-2.584,-2.5688,-2.5606,-2.5535,-2.5382,-2.5312,-2.5312,-2.5312,-2.5312,-2.5564,-2.5841,-2.6069,-2.6647,-2.7103,-2.7356,-2.6843,-2.6531,-2.6531,-2.575,-2.5371,-2.5579,-2.5579,-2.5677,-2.5895,-2.5895,-2.5895,-2.5895,-2.5895,-2.5895,-2.5895,-2.5895,-2.5812,-2.5728,-2.5464,-2.5211,-2.5031,-2.5295,-2.5041,-2.4625,-2.5559,-2.5728,-2.538,-2.4956,-2.5295,-2.5812]}]]